GFSMA_925_spd_000.txt.gz
Wind_Speed
2 0 1 3 4 7 9 11 13 13 12 11 13 13 11 14 15 16 15 15 16 19 22 25 25 24 23 21 19 19 17 16 17 16 15 15 14 14 13 17 20 22 24
3 2 2 3 6 10 14 15 14 10 8 9 8 9 12 16 19 22 20 17 16 16 18 21 22 25 27 27 25 22 24 23 20 20 18 17 16 14 14 14 18 22 24
4 3 2 5 9 12 11 8 7 8 9 10 12 13 14 17 21 24 22 17 15 14 15 16 18 23 26 27 27 25 20 23 24 20 20 18 16 16 15 15 15 19 22
3 4 7 10 10 8 7 8 8 10 11 14 15 17 17 19 22 17 12 12 12 11 13 17 18 17 18 20 25 27 21 19 22 24 21 18 17 16 15 15 16 16 18
8 11 11 8 7 6 9 10 12 14 13 16 18 15 19 20 14 9 10 11 11 13 15 19 22 23 23 23 23 21 22 20 20 20 22 22 18 16 15 15 15 15 15
7 8 7 7 6 8 9 11 12 14 15 18 18 16 18 9 11 8 12 12 11 13 16 21 26 28 29 28 26 25 21 20 19 20 20 21 22 19 17 15 14 14 15
6 6 6 7 9 10 10 12 14 16 17 19 9 21 14 2 7 11 12 15 13 17 20 25 30 31 31 30 29 29 27 21 18 17 19 20 22 20 19 17 15 14 13
7 9 11 13 13 12 11 12 15 16 10 14 8 6 3 5 3 17 10 20 16 23 22 26 29 30 30 29 27 28 28 25 22 19 20 18 18 20 20 17 16 14 12
8 11 16 17 14 10 6 9 12 15 8 8 9 6 3 2 7 8 19 12 27 21 24 29 28 26 27 27 27 26 26 27 24 20 20 21 17 17 21 19 15 13 13
15 21 24 17 12 4 5 8 8 9 7 8 6 7 6 4 2 3 6 20 18 24 28 27 26 26 26 20 23 23 23 25 25 20 19 18 20 14 16 14 16 11 10
23 21 22 19 10 3 3 3 4 5 7 5 4 5 5 8 6 4 6 11 18 17 19 26 26 23 22 20 21 21 21 21 22 19 16 16 12 14 13 10 9 9 9
23 25 19 8 3 4 6 7 9 8 6 6 6 6 6 3 6 3 3 8 14 16 25 16 19 24 20 21 21 21 20 18 18 18 15 16 14 13 11 9 8 9 6
22 25 11 4 3 7 8 9 9 7 5 4 6 7 7 9 9 9 7 7 7 20 15 21 21 27 23 24 22 21 17 15 15 16 14 12 10 15 10 9 8 8 10
24 19 10 7 6 8 9 6 6 7 7 10 10 11 10 11 10 10 7 8 6 9 19 20 21 24 22 26 22 22 15 10 10 11 14 11 12 17 13 13 7 3 3
20 9 9 2 13 6 8 11 12 10 10 12 12 12 13 11 10 11 12 14 10 9 10 17 19 22 25 23 18 24 16 10 9 10 8 10 11 12 13 19 15 10 4
7 7 2 6 4 5 11 14 12 12 14 13 12 12 11 10 13 16 18 19 20 19 8 20 23 25 25 25 14 15 21 9 5 8 7 9 10 11 14 15 16 14 11
7 10 10 12 8 12 12 12 13 14 15 13 10 10 12 15 19 19 19 20 23 23 15 24 25 28 28 23 14 14 19 18 7 6 5 10 10 13 9 10 11 10 8
10 11 10 11 17 13 10 11 13 14 13 12 11 12 17 21 20 19 19 21 23 24 21 21 24 25 26 15 12 13 14 18 16 11 2 6 9 9 12 11 10 12 13
8 12 17 12 9 11 11 11 13 13 12 11 14 19 21 20 20 20 21 22 24 21 23 16 20 23 26 27 18 16 12 9 11 10 10 7 7 7 13 15 15 10 12
18 13 11 11 11 12 12 11 11 10 12 16 19 20 20 21 20 21 21 20 19 24 22 18 16 18 20 24 17 11 10 7 7 8 4 10 9 8 2 6 12 10 14
14 15 15 8 11 11 10 8 9 13 17 20 21 22 22 19 21 21 21 21 23 20 18 19 15 15 13 10 5 6 6 7 10 8 8 7 5 9 10 5 4 13 16
12 10 10 12 9 3 5 7 11 16 20 19 22 20 21 20 18 19 23 23 22 23 20 18 17 15 15 12 13 8 7 4 2 4 4 6 6 4 5 6 5 3 8
17 15 17 8 1 5 9 11 14 17 17 17 17 21 21 17 20 21 22 22 24 20 18 20 15 16 15 14 13 13 13 9 8 12 12 11 7 9 9 4 2 3 5
17 13 9 2 4 7 10 14 16 16 17 19 18 17 19 18 19 19 24 20 19 20 18 14 16 18 18 17 21 20 17 15 16 17 11 5 9 10 7 10 10 9 7
13 6 4 3 5 7 11 12 12 15 16 17 16 18 15 17 18 21 23 21 18 19 16 17 17 17 18 18 17 13 19 13 11 13 13 14 12 12 12 12 13 14 15
7 8 6 2 3 7 10 11 10 12 14 17 20 17 15 16 19 20 20 18 18 14 16 15 13 16 16 19 18 18 18 8 9 5 13 11 9 6 3 6 13 17 17

GFSMA_925_spd_003.txt.gz
Wind_Speed
4 1 2 2 3 5 8 10 12 11 9 8 8 8 9 11 13 14 14 17 17 18 18 18 18 19 17 15 15 17 19 19 18 15 15 14 13 14 13 13 14 16 19
4 3 3 3 5 8 10 10 9 5 5 5 6 7 10 12 14 15 13 14 16 16 16 16 16 15 15 15 14 13 17 20 18 18 17 17 15 15 14 13 13 16 16
4 2 4 7 8 7 5 4 4 4 4 7 8 10 11 13 14 12 10 11 11 11 10 10 12 15 19 20 19 16 12 15 21 19 17 16 16 16 15 14 14 15 16
2 4 5 4 2 2 3 3 4 5 6 9 11 11 12 12 8 4 5 4 5 5 8 10 12 15 19 20 21 20 18 15 14 20 20 18 17 17 16 14 14 16 16
3 5 4 2 1 1 2 3 5 7 7 10 13 11 14 12 5 2 3 3 4 6 7 12 15 17 20 23 24 22 20 19 17 14 18 20 18 17 17 16 15 16 15
4 4 3 2 3 4 6 7 8 8 7 10 13 11 14 9 4 3 6 6 6 8 9 11 14 16 22 24 26 26 23 21 19 18 15 18 20 20 19 17 17 17 14
4 4 5 7 9 11 13 13 11 10 9 12 11 14 13 7 4 3 6 8 8 11 12 14 16 19 20 23 23 25 24 23 21 19 18 17 19 19 21 22 20 17 14
5 7 11 15 14 12 11 9 7 6 6 8 9 12 7 9 11 9 11 12 12 14 16 19 22 23 23 23 24 25 25 22 22 22 20 20 18 19 22 24 22 18 16
13 14 17 15 14 13 7 3 4 6 8 7 7 6 5 5 14 10 16 15 18 21 20 20 20 22 23 24 23 22 22 25 25 22 22 20 19 19 21 25 23 20 17
14 16 16 16 13 7 2 1 4 7 8 9 9 6 7 10 6 9 13 19 18 21 20 19 22 21 22 22 22 24 26 26 25 24 21 21 20 19 21 23 22 20 18
18 19 18 18 13 5 2 1 3 4 6 6 6 7 8 9 10 9 11 16 19 17 17 20 16 18 20 23 22 22 26 27 26 23 19 19 18 17 20 23 20 18 17
23 21 20 17 9 7 3 1 3 3 2 2 4 4 8 10 11 10 9 16 19 20 20 20 19 19 21 23 22 23 25 24 24 22 17 15 15 13 14 15 18 16 16
20 20 20 13 9 5 0 3 2 3 3 4 5 7 9 9 9 9 11 15 16 24 22 21 21 22 23 22 21 24 24 23 19 17 17 15 15 11 8 12 13 15 17
20 21 12 11 7 2 0 3 6 7 7 7 9 8 9 10 9 9 10 13 13 21 26 26 23 22 20 21 24 23 18 21 16 13 13 15 17 15 14 8 12 13 14
18 12 8 9 3 1 11 7 8 9 8 10 11 10 10 11 9 9 11 13 17 14 15 28 28 25 26 26 23 22 17 20 14 9 9 8 11 14 16 16 14 11 11
15 6 9 5 7 12 7 10 9 10 12 11 11 10 10 9 10 13 16 17 18 20 14 26 29 29 27 26 25 24 18 17 19 10 7 6 8 12 13 19 18 14 13
12 6 9 8 15 7 10 8 9 10 12 12 11 9 11 12 16 17 17 18 18 19 19 30 28 27 27 25 24 22 17 11 12 17 7 8 8 11 13 13 18 15 11
10 7 9 11 12 14 7 9 11 10 13 10 10 11 15 17 18 19 19 19 20 21 23 27 26 25 23 22 24 23 17 12 11 11 14 8 8 7 11 14 16 12 12
11 13 14 14 10 11 9 12 12 11 10 9 11 13 17 18 20 20 21 22 21 20 21 22 28 27 24 22 22 21 20 14 11 12 10 10 9 7 7 11 12 14 12
12 10 12 13 13 8 11 9 8 8 9 11 14 15 17 17 19 20 20 19 18 18 22 24 24 24 22 20 18 18 18 10 9 8 10 5 7 8 6 6 16 7 12
9 12 12 8 9 9 6 4 6 8 12 15 16 16 16 15 18 18 20 21 22 23 21 21 22 21 20 18 11 12 15 13 9 7 8 8 6 6 8 8 8 11 5
11 12 13 9 6 5 7 6 9 9 12 13 15 16 17 16 15 16 17 17 18 21 21 21 22 19 20 19 16 9 11 11 8 1 5 6 6 6 4 6 6 4 14
13 12 11 7 5 2 6 10 14 10 11 13 14 15 14 14 14 15 16 18 20 18 19 22 22 20 19 18 17 13 9 10 11 11 10 11 6 7 8 5 1 2 6
13 11 9 6 4 3 7 12 16 11 11 12 13 13 14 15 14 17 20 20 19 18 16 18 18 19 18 17 16 15 16 14 15 15 11 11 9 9 8 8 9 6 4
10 8 6 6 3 2 8 12 13 10 11 12 12 13 14 14 16 19 20 19 19 19 14 16 17 18 20 18 17 18 16 14 13 15 13 13 15 13 11 10 10 12 12
11 8 7 5 3 5 9 11 10 9 11 13 13 13 12 13 17 19 18 17 18 18 20 19 15 14 15 17 16 17 18 16 11 10 10 11 10 8 6 6 9 9 12

GFSMA_925_spd_006.txt.gz
Wind_Speed
8 11 9 6 4 4 5 7 8 10 11 11 9 9 9 9 10 11 11 13 12 12 12 12 12 12 13 14 9 12 13 11 14 14 15 13 12 14 14 12 12 14 18
5 16 12 8 5 4 6 8 10 11 11 11 11 11 11 11 11 11 12 11 13 12 11 12 11 11 11 13 14 14 11 11 13 13 14 14 14 13 14 14 13 14 14
9 14 9 7 5 4 5 7 8 9 11 12 13 14 14 13 13 11 11 12 12 13 12 9 8 10 11 11 13 14 14 14 13 14 16 16 16 16 15 15 15 15 15
6 6 5 4 4 5 5 6 8 10 12 13 14 15 16 15 14 13 13 13 14 15 15 15 13 12 12 11 13 14 15 15 15 15 15 16 17 18 17 16 16 16 15
4 1 2 2 4 5 6 7 9 10 11 13 15 18 19 20 21 21 18 15 12 10 12 13 16 15 17 16 16 15 16 17 18 17 18 18 17 18 21 19 18 17 16
3 2 3 4 5 7 8 9 10 12 13 14 17 21 20 22 22 20 15 14 13 12 12 13 15 15 18 18 21 20 19 19 19 20 20 20 21 19 17 23 22 19 17
4 4 4 6 8 10 11 11 13 16 16 14 19 19 20 21 12 16 15 16 16 14 16 17 18 19 21 22 22 23 25 23 19 20 22 23 22 23 22 20 26 24 19
5 7 9 11 12 15 15 13 11 12 13 10 15 20 10 17 18 11 18 19 18 17 21 20 20 20 21 21 21 24 21 22 23 22 22 23 25 24 25 23 23 27 23
9 10 11 12 13 14 16 11 8 8 11 12 10 12 9 11 20 22 15 20 17 20 20 20 20 20 20 21 21 21 21 25 25 25 25 24 25 27 26 27 25 28 28
12 14 15 15 15 15 14 10 8 6 7 12 14 15 14 16 11 12 21 21 23 20 21 20 19 21 21 21 22 21 20 25 29 27 26 25 25 25 28 28 28 28 29
16 18 18 18 18 15 12 8 6 6 10 11 18 16 16 16 16 14 12 18 21 19 19 18 20 19 22 23 24 23 25 27 26 27 27 27 25 25 25 27 29 30 30
19 19 19 19 17 13 9 6 4 7 11 12 11 11 12 13 14 15 12 17 19 22 19 21 19 21 22 24 24 24 23 27 27 28 26 25 24 24 24 24 26 30 32
18 19 19 17 13 9 6 4 4 8 10 10 10 12 13 14 15 16 19 19 17 25 25 23 24 23 23 24 24 23 26 26 24 30 24 18 21 23 23 23 16 19 30
17 18 16 10 6 5 3 6 12 9 9 10 11 13 16 17 17 17 18 18 14 23 27 28 27 26 25 25 28 29 26 21 23 28 19 18 20 22 24 23 18 14 12
16 15 11 5 5 4 9 11 11 9 8 11 14 16 17 18 18 17 17 18 21 15 16 30 30 27 26 26 26 27 26 23 20 22 18 13 14 14 14 20 21 15 10
15 14 9 7 7 12 12 13 11 9 9 13 15 16 18 17 17 18 20 21 23 25 15 30 30 29 28 28 26 25 25 25 22 14 17 11 13 14 15 14 16 20 20
14 12 10 10 13 16 17 15 11 11 11 14 16 17 17 17 19 21 23 23 25 25 23 34 31 29 28 28 26 24 24 22 19 9 11 13 11 14 15 13 14 17 20
13 12 11 13 17 19 15 9 11 13 14 16 17 17 19 20 22 24 24 24 25 26 26 30 29 29 27 28 28 25 26 24 22 14 11 14 16 12 13 12 12 13 17
13 12 13 13 13 11 11 11 12 13 13 15 16 17 20 21 23 23 23 24 24 23 22 26 29 28 28 26 25 24 24 25 22 15 9 9 15 13 12 12 11 13 12
12 11 11 13 12 11 10 11 11 11 12 15 16 18 20 20 20 20 23 22 21 21 22 25 27 26 24 23 23 21 18 21 21 15 11 12 12 9 12 12 10 9 15
12 11 10 9 9 8 6 5 9 12 15 15 17 17 17 16 17 16 16 19 20 21 20 22 23 22 22 21 19 20 19 19 17 12 14 11 11 9 6 8 11 5 4
13 13 14 11 9 6 8 7 7 11 13 15 16 16 16 14 12 16 13 15 17 20 23 23 23 21 24 22 18 18 16 16 9 6 11 11 6 10 8 7 11 15 10
13 14 15 11 10 6 7 8 10 10 13 13 13 14 14 14 15 15 17 19 20 18 21 23 24 24 24 21 18 18 16 15 14 13 8 10 8 10 8 9 8 9 10
13 12 12 10 8 6 6 8 12 10 12 11 12 12 13 15 14 15 19 22 21 19 18 18 20 22 22 20 18 18 19 19 18 16 12 14 13 10 10 9 11 7 6
13 13 10 8 8 6 7 8 10 10 10 11 11 11 12 13 13 16 20 20 21 19 17 15 21 22 22 21 18 19 19 19 17 18 15 15 15 13 13 12 10 11 6
13 10 8 7 8 6 7 8 9 9 9 11 11 11 10 10 15 18 18 18 19 19 22 22 20 18 17 15 14 17 19 20 17 15 13 14 13 14 11 13 11 9 9

GFSMA_925_spd_009.txt.gz
Wind_Speed
1 3 4 3 9 12 12 13 15 14 16 16 15 13 14 16 15 15 16 13 11 13 11 10 10 9 10 14 15 12 10 11 12 9 12 15 15 14 14 14 14 13 15
6 7 6 6 10 12 13 13 13 13 14 15 15 15 15 16 15 14 16 16 13 12 15 15 13 9 10 11 11 12 13 13 12 12 11 13 16 16 17 16 16 15 15
3 5 3 8 11 8 10 12 12 13 15 15 17 17 18 19 18 17 17 17 12 13 10 11 10 12 13 12 13 13 14 15 16 15 15 13 13 16 19 19 18 17 17
1 3 4 4 6 6 8 10 12 13 16 18 20 19 20 21 21 21 21 19 17 18 17 7 14 21 18 11 14 16 16 16 17 19 17 17 17 15 14 20 22 20 19
4 2 3 4 7 9 11 12 13 15 17 20 22 21 24 28 22 22 23 23 16 14 12 18 18 18 11 13 15 18 18 17 19 18 21 19 19 20 19 17 19 24 21
4 4 4 5 8 11 13 14 17 18 19 21 23 21 27 22 23 24 16 18 16 15 16 14 19 19 23 21 21 23 19 20 21 17 19 23 23 21 22 22 20 20 24
5 6 7 10 13 14 16 17 18 19 22 23 19 20 21 25 20 22 17 13 16 19 19 19 20 20 22 23 21 18 21 21 16 19 22 21 25 26 23 24 24 23 23
7 9 11 13 15 17 18 19 19 19 19 19 18 17 11 18 22 23 25 24 23 17 19 19 20 21 20 21 21 22 17 16 18 20 23 23 24 27 28 25 25 26 25
10 12 14 16 17 19 20 20 19 15 18 17 17 15 12 11 21 23 24 25 26 23 21 21 22 21 21 22 21 21 22 24 21 23 24 24 25 25 28 28 26 27 28
13 15 17 18 18 19 20 19 16 11 17 16 17 18 20 22 13 14 20 21 21 23 21 23 21 21 23 22 23 22 20 23 28 26 26 26 26 26 27 28 28 27 28
14 15 16 18 18 18 18 16 14 14 14 16 17 18 18 19 20 18 13 20 23 23 21 21 19 23 22 23 23 24 27 25 20 25 25 27 28 25 26 26 28 28 28
13 14 15 17 17 17 15 14 9 10 10 14 15 14 16 18 18 18 13 20 21 25 22 22 23 23 24 25 26 25 24 26 29 27 22 26 28 24 23 25 26 28 28
12 14 16 17 16 14 10 7 7 11 12 12 13 14 16 17 18 19 20 21 17 25 24 24 24 25 27 26 27 26 30 34 29 28 26 29 27 20 23 22 24 27 28
12 14 15 15 13 8 5 6 11 12 13 14 11 14 15 17 18 20 21 20 13 21 25 26 27 26 26 26 26 27 28 29 30 30 28 29 28 20 18 20 21 23 24
12 13 14 13 7 10 9 13 13 15 15 9 11 14 15 17 19 21 20 21 19 12 13 27 27 27 26 27 27 27 28 30 29 31 29 25 24 18 17 19 21 19 21
11 13 13 13 11 11 14 16 18 16 13 12 13 14 17 18 19 20 22 22 23 23 14 27 28 29 28 29 28 29 29 30 31 32 28 19 19 17 16 20 19 18 17
12 13 13 13 14 15 18 19 17 17 15 13 14 17 18 19 21 22 23 24 26 26 20 28 30 29 29 28 29 29 30 30 29 25 20 16 11 9 13 18 17 17 17
12 13 12 13 15 17 17 14 14 13 15 15 16 17 20 22 24 24 24 25 25 27 26 28 31 27 28 27 28 29 28 27 27 29 22 18 22 12 12 17 16 17 17
13 12 12 14 14 13 14 15 14 14 14 15 16 17 19 23 24 24 23 23 25 27 24 23 27 26 26 26 26 26 25 25 26 27 24 17 19 17 12 15 16 14 13
13 12 12 12 13 12 12 13 13 14 15 17 16 19 21 20 19 17 21 20 21 22 23 23 24 25 25 25 24 24 21 21 23 20 21 18 15 13 7 10 12 12 10
12 12 12 13 11 12 9 7 12 14 13 16 18 19 18 15 17 12 15 17 18 20 21 22 22 22 23 23 22 24 23 23 24 21 18 17 13 13 10 10 7 12 14
13 13 13 12 12 12 8 10 7 10 13 16 18 17 16 15 11 18 15 12 17 20 22 22 22 21 24 23 23 22 21 19 12 14 10 21 12 9 8 7 6 12 17
13 14 13 13 10 8 9 9 8 9 13 15 15 15 15 13 15 14 15 19 21 22 24 24 23 23 24 23 23 22 21 19 19 19 11 16 11 8 11 6 7 12 13
15 13 13 11 10 6 10 9 8 9 13 13 13 13 13 12 10 12 16 19 20 20 20 16 20 24 24 26 26 25 24 23 23 22 19 15 19 12 10 11 12 13 11
17 15 13 10 10 6 9 8 7 9 11 11 11 11 10 12 11 15 15 18 20 20 19 19 20 22 25 26 24 21 19 18 16 21 17 20 18 14 10 15 14 13 12
18 15 12 9 9 6 10 11 7 7 10 10 11 10 10 7 12 13 15 17 19 20 23 23 21 20 19 18 18 17 18 17 17 17 15 7 18 15 12 16 17 14 10

GFSMA_925_spd_012.txt.gz
Wind_Speed
2 3 7 8 10 12 13 12 16 16 16 15 16 13 16 16 16 14 14 19 17 12 10 7 9 11 12 14 16 18 17 17 17 17 17 14 13 15 13 13 13 13 14
2 4 4 3 4 7 11 13 13 12 13 15 15 16 16 18 17 17 13 14 21 11 8 6 8 11 12 13 15 17 18 19 19 18 18 18 17 15 15 14 15 15 15
4 2 6 9 9 10 13 13 15 15 12 15 18 19 18 17 18 21 20 19 21 16 8 7 7 12 16 13 14 16 18 20 20 21 20 18 18 19 18 17 14 15 17
8 9 8 8 10 11 11 9 12 12 17 18 17 21 15 17 22 25 18 19 21 17 5 5 10 15 13 10 13 16 19 20 19 21 22 20 21 20 20 20 20 17 16
9 7 3 5 10 10 11 12 13 17 18 20 21 23 17 20 21 25 23 25 16 11 9 10 12 15 8 14 15 18 21 19 21 23 20 23 24 23 22 21 22 21 19
8 5 9 9 8 11 12 16 16 15 16 16 21 23 16 12 20 22 16 18 20 16 17 17 12 10 16 18 18 18 19 22 24 18 21 24 27 26 26 23 23 23 21
8 9 6 9 11 12 15 15 17 14 15 16 18 17 18 16 17 18 22 24 23 22 18 14 13 16 17 18 17 19 21 22 17 20 22 26 27 29 28 26 24 25 23
7 7 9 11 12 13 15 15 17 18 13 12 16 18 4 11 12 24 25 23 21 23 18 21 19 15 12 14 15 19 18 17 19 21 23 26 28 28 30 29 26 25 25
7 8 10 11 13 13 13 16 17 16 9 12 13 13 4 4 14 14 19 19 19 19 20 18 18 14 14 15 20 15 19 21 18 21 25 27 28 29 30 31 30 25 25
7 9 11 13 15 14 15 15 14 15 10 10 13 12 17 18 6 8 6 15 20 22 21 19 16 15 17 20 18 19 19 17 18 19 26 29 28 28 30 30 29 28 25
7 8 10 13 15 15 15 16 15 6 5 10 13 16 15 16 16 11 7 12 19 21 25 18 19 21 21 19 21 20 21 21 20 24 29 30 29 29 31 29 27 27 27
8 9 10 12 13 14 14 7 5 6 8 8 10 10 16 13 12 12 6 13 15 19 19 21 19 19 20 23 23 26 25 27 30 28 26 29 25 28 31 28 26 26 26
8 9 11 12 13 12 7 9 9 9 13 11 8 11 11 12 15 16 16 16 12 22 20 22 20 21 24 25 26 21 25 23 23 25 26 28 27 29 30 28 25 24 24
7 10 9 11 11 6 10 7 8 13 11 12 12 12 8 9 14 15 17 16 8 15 19 21 22 23 24 21 21 22 24 24 25 27 30 31 30 28 28 26 23 23 22
7 9 10 11 13 9 10 11 11 14 15 10 6 7 8 10 13 13 17 19 13 8 10 20 24 23 20 21 23 26 28 27 28 30 32 32 31 25 26 25 24 22 21
7 9 10 11 13 13 10 11 14 13 13 12 13 11 7 11 17 14 15 21 22 21 10 22 22 22 21 27 24 26 30 30 31 31 33 31 26 22 21 21 23 24 20
8 10 11 11 12 13 15 13 15 17 15 12 10 11 18 11 14 16 19 20 20 21 16 22 25 23 27 27 29 28 28 31 30 27 28 25 26 26 22 18 20 18 19
8 10 12 12 13 14 10 12 14 14 13 12 13 12 13 16 20 19 19 18 19 22 23 21 24 25 24 26 26 27 26 26 28 28 29 29 25 25 26 23 21 17 16
9 11 12 14 12 11 11 12 12 8 11 10 8 11 14 16 17 15 16 20 22 21 22 23 24 23 22 23 26 26 25 27 25 25 24 23 24 26 24 18 18 15 15
9 12 14 16 11 11 11 11 7 8 10 11 12 11 15 12 13 15 17 16 17 19 20 21 21 22 22 23 24 24 23 25 26 28 24 23 25 23 18 20 17 12 15
11 13 14 16 11 11 11 6 7 8 9 12 13 14 13 15 17 16 15 15 14 16 19 19 20 21 21 19 20 22 22 24 27 24 22 27 23 23 18 16 14 8 13
14 12 13 14 12 9 11 10 10 7 8 11 12 14 14 13 8 12 11 8 14 20 23 22 23 21 22 20 19 19 20 19 12 19 25 26 22 24 16 18 3 7 12
15 13 14 13 11 9 11 11 10 7 9 10 13 12 12 11 12 12 13 18 19 19 22 25 22 19 20 20 20 22 23 22 21 27 25 23 23 21 21 7 7 11 15
14 14 14 13 10 6 9 11 9 6 6 10 11 12 11 9 12 12 16 19 17 19 20 20 18 21 22 24 27 24 24 25 25 24 21 18 20 24 26 15 10 10 14
16 16 15 12 6 7 9 10 7 5 6 10 10 11 12 10 12 14 18 16 18 19 18 21 25 21 22 23 24 25 23 18 17 19 22 21 19 24 23 21 16 13 13
15 16 13 4 5 6 8 9 9 6 7 8 9 10 13 8 10 13 13 16 18 19 23 26 22 22 21 21 19 18 19 17 15 13 15 10 17 17 6 15 12 12 16

GFSMA_925_spd_015.txt.gz
Wind_Speed
6 7 9 8 8 6 6 8 10 12 13 12 11 14 14 15 13 16 15 11 13 16 6 3 6 8 10 10 11 12 14 17 18 19 20 20 19 19 17 14 13 13 14
7 7 6 5 6 8 10 12 12 11 11 12 12 14 15 11 11 13 17 20 15 13 7 2 5 7 8 9 10 12 14 15 17 18 19 19 20 22 21 19 16 16 15
7 9 6 4 7 9 12 12 8 6 6 10 12 13 17 10 13 14 15 23 19 15 8 1 5 7 9 9 9 11 14 15 15 17 20 19 19 21 23 23 21 18 19
12 8 3 6 9 7 8 5 5 7 13 14 12 13 16 18 15 17 19 18 23 16 4 2 9 7 9 10 10 13 13 14 16 20 19 18 21 23 23 25 24 22 20
10 7 5 6 7 5 6 8 10 13 13 10 11 13 16 11 12 15 15 19 19 20 11 5 7 5 8 10 11 12 14 16 20 21 18 20 23 25 25 24 25 24 22
9 10 6 7 6 4 7 11 13 11 10 12 10 10 9 14 9 13 18 19 20 19 18 12 16 14 13 12 10 12 15 18 17 16 18 22 23 24 26 26 25 25 24
9 5 1 4 6 9 10 11 9 12 14 8 7 12 11 5 11 15 15 17 18 18 17 19 16 15 12 10 11 12 15 13 12 14 17 21 25 27 27 27 26 25 26
5 4 4 5 6 8 9 8 11 13 10 6 6 5 3 6 12 17 19 23 15 18 19 21 18 11 10 11 12 13 9 11 15 17 18 18 24 29 30 27 28 27 26
6 2 4 6 8 10 9 10 10 5 5 4 8 6 3 1 5 4 12 14 17 18 19 20 17 11 15 16 15 13 14 11 8 10 16 20 23 27 31 30 29 29 27
2 4 5 7 11 13 13 11 11 9 1 6 4 9 9 9 1 4 10 9 18 19 23 22 16 19 16 13 15 14 12 14 15 13 18 24 28 28 30 30 30 30 27
1 2 5 9 12 11 13 10 3 3 8 8 7 6 8 7 6 2 3 9 14 18 17 17 22 19 16 19 20 18 20 15 18 17 21 24 26 30 29 28 30 31 29
2 2 6 9 10 10 4 4 7 8 9 10 8 5 6 1 3 2 2 4 13 16 16 19 19 19 24 23 22 23 15 16 16 17 21 24 26 28 30 29 30 31 30
1 3 8 7 9 10 4 7 12 10 10 9 7 8 8 8 8 8 6 10 4 19 15 14 19 22 20 27 23 14 17 21 23 22 23 25 28 29 29 30 31 30 29
2 4 4 7 7 8 7 11 10 12 11 8 11 10 8 10 11 7 7 8 4 5 12 19 21 21 22 8 14 20 23 26 29 28 26 28 29 28 28 28 26 28 27
3 6 8 8 9 8 10 11 11 11 9 11 13 9 5 5 4 9 11 9 10 6 6 17 19 15 14 22 25 25 30 33 28 28 31 28 27 27 26 22 23 26 26
4 5 7 9 9 10 9 9 7 5 9 10 3 1 5 13 14 10 11 14 15 15 3 14 19 21 21 25 26 27 26 26 29 28 27 28 28 27 22 20 24 25 25
4 5 7 10 10 10 11 7 8 8 6 2 1 2 2 4 7 12 11 11 12 15 9 18 22 22 22 24 25 22 24 28 25 26 27 27 29 27 27 26 28 30 26
4 5 8 10 12 13 5 10 12 10 2 5 6 6 7 9 11 11 13 12 14 19 13 14 22 23 23 23 25 28 25 23 25 24 25 27 25 24 25 26 28 25 27
6 7 10 12 12 9 10 10 10 1 1 3 4 8 7 8 8 10 13 16 15 16 17 19 21 25 25 26 28 26 26 23 24 23 26 25 23 24 26 29 21 19 19
8 9 12 14 16 11 10 9 8 5 5 3 4 7 8 8 11 14 14 12 13 14 17 19 20 21 22 26 25 23 20 21 25 28 21 18 24 24 27 21 15 18 16
12 15 15 17 16 16 13 13 12 12 8 9 7 8 10 12 13 14 9 11 10 15 18 21 18 20 21 21 17 18 19 22 26 22 25 26 26 28 27 20 15 11 12
18 23 19 17 16 13 14 14 12 11 8 8 7 8 11 11 9 6 6 6 10 14 18 17 18 18 18 17 19 21 22 20 14 16 20 29 26 29 23 26 13 1 5
21 21 21 21 17 14 13 13 11 10 8 6 7 9 11 9 12 10 14 17 19 19 14 18 20 19 21 22 21 24 23 20 19 30 24 24 25 27 18 23 23 17 11
16 16 20 19 17 15 12 12 11 10 7 7 7 9 11 11 13 14 18 17 19 17 16 15 19 26 22 21 22 24 26 27 26 29 20 14 24 25 22 21 20 14 14
17 14 15 16 14 13 12 11 11 9 7 7 9 10 10 11 13 12 14 18 20 19 14 14 16 18 19 20 19 21 18 19 14 22 25 16 14 20 25 18 11 14 15
14 15 15 12 13 13 12 12 11 9 9 8 10 9 10 11 10 12 15 17 18 16 16 19 19 21 20 17 16 16 18 17 16 15 9 7 20 12 8 8 18 14 16

GFSMA_925_spd_018.txt.gz
Wind_Speed
12 11 12 11 10 7 7 5 5 7 8 7 8 10 11 10 9 11 10 9 10 7 1 4 5 5 6 7 9 10 10 11 12 14 16 17 18 21 22 22 24 23 22
12 10 9 8 6 7 8 7 6 5 6 7 9 8 10 10 11 11 12 12 7 7 2 4 5 5 5 6 8 9 11 11 10 13 15 14 16 20 22 23 24 24 23
10 10 9 8 7 5 5 6 6 4 5 9 11 8 6 13 12 13 12 11 9 3 2 6 5 5 5 4 6 7 8 9 12 14 14 12 14 16 22 24 24 24 24
13 11 8 8 6 5 6 5 5 7 8 9 5 6 11 9 9 11 12 17 16 10 4 6 6 7 6 5 5 5 6 8 11 12 11 12 15 17 19 22 24 24 24
12 10 8 8 5 4 4 7 9 10 8 6 6 5 4 7 8 9 13 16 16 14 10 4 6 8 7 2 3 5 6 10 11 10 11 13 15 17 19 21 22 24 24
12 8 7 5 4 4 6 9 11 9 9 10 4 2 2 4 8 11 11 14 13 14 12 10 7 6 7 5 5 7 9 10 9 10 11 12 15 17 20 21 23 23 24
9 5 2 2 5 6 7 9 7 9 10 6 4 3 2 3 7 11 13 10 10 11 14 14 13 5 5 7 9 11 11 10 8 10 13 14 15 19 21 23 23 24 24
8 4 2 3 3 4 3 4 6 7 5 3 1 1 2 3 2 12 9 8 11 12 15 19 14 11 12 11 10 8 8 9 9 10 12 14 16 22 25 26 27 26 24
7 4 5 3 2 4 4 4 4 1 4 5 4 2 1 2 2 1 2 7 10 12 15 19 12 15 14 9 11 12 10 9 9 10 13 16 19 22 27 30 30 29 26
8 6 3 1 4 4 4 4 4 3 4 3 2 4 3 4 3 2 0 1 6 9 12 9 14 16 13 15 18 14 14 14 9 8 12 17 21 23 25 29 31 30 28
7 4 1 2 4 5 4 3 6 6 5 2 2 2 4 3 3 3 3 3 6 7 7 10 16 15 19 21 18 19 15 6 6 8 12 18 23 27 27 29 32 31 29
7 4 2 5 5 4 2 1 4 5 3 2 1 2 2 3 4 3 2 5 6 5 6 9 11 16 20 20 21 14 8 10 11 12 15 19 23 27 31 31 32 31 30
8 4 2 3 4 1 1 5 7 5 4 4 4 7 8 7 5 7 6 5 3 7 4 11 17 18 18 17 13 12 17 19 22 23 22 23 26 30 31 31 29 29 28
5 4 4 5 5 3 4 7 8 6 7 7 6 8 9 6 7 3 4 5 3 4 7 12 18 11 7 12 19 21 24 28 31 26 23 23 24 24 23 24 25 26 25
3 1 2 5 6 6 6 6 9 10 10 10 12 9 6 3 3 7 10 5 5 3 3 7 7 11 19 23 26 26 26 25 21 21 21 20 22 22 22 23 22 23 21
2 2 3 5 7 8 9 8 6 6 7 9 6 6 9 10 12 10 6 8 5 3 2 7 15 22 24 25 22 20 21 22 24 20 19 21 20 21 22 21 22 25 27
1 3 4 7 8 8 9 9 6 8 7 6 4 5 5 4 5 9 9 8 7 8 6 13 22 24 25 25 23 22 23 22 21 20 20 20 23 21 20 21 23 25 25
5 5 5 8 9 10 11 8 8 8 8 7 6 5 4 5 9 9 10 9 10 10 8 12 22 26 26 24 24 25 23 23 20 22 21 23 21 18 20 21 23 25 27
8 7 8 9 10 11 12 12 13 12 9 7 5 5 5 7 9 8 11 11 9 10 10 14 19 26 27 26 27 26 23 22 25 22 25 25 20 21 20 21 25 22 20
10 8 11 10 11 12 14 18 14 11 11 10 7 7 10 8 9 10 11 8 9 10 13 18 20 21 20 25 23 21 20 24 28 33 27 20 22 23 22 21 25 19 18
5 10 12 18 18 18 19 22 19 16 13 10 8 7 8 9 10 10 8 7 7 10 15 19 16 17 17 17 17 21 21 24 28 24 20 18 27 23 22 23 23 21 11
5 12 17 22 25 23 22 22 21 18 16 13 10 9 10 11 12 11 9 8 9 11 15 16 15 15 14 20 22 21 23 19 10 16 17 29 24 23 21 19 20 20 10
9 19 25 24 22 26 23 22 20 16 11 12 12 9 9 11 12 11 10 10 13 15 15 15 18 16 21 22 22 23 20 19 20 28 20 19 24 23 20 19 18 19 14
13 16 20 20 21 21 21 20 19 16 14 15 12 10 11 12 11 11 11 14 15 18 17 13 14 20 20 22 21 22 23 22 22 24 17 9 23 19 23 20 15 12 14
18 14 14 16 17 16 18 19 18 16 12 14 11 11 12 12 12 12 11 13 18 20 12 11 13 15 18 17 16 18 17 17 18 21 20 13 16 18 21 11 17 10 10
15 16 17 18 18 16 16 18 19 15 15 13 12 11 11 13 12 10 11 14 18 17 14 16 17 18 18 19 17 14 15 15 16 13 12 9 18 13 7 7 19 16 19

GFSMA_925_spd_021.txt.gz
Wind_Speed
16 15 14 13 11 9 7 6 6 8 8 8 8 9 9 9 11 11 9 6 5 6 2 2 3 3 5 7 8 9 9 9 9 11 11 10 12 15 18 20 21 23 22
15 15 15 12 9 7 6 7 7 8 8 6 7 8 8 9 11 11 11 10 4 4 4 5 4 3 4 5 7 7 7 7 9 10 9 8 10 13 16 20 23 23 23
14 13 12 10 8 6 7 7 6 5 6 8 7 7 8 9 10 12 13 13 8 8 8 8 6 6 6 4 5 5 7 6 9 10 8 8 10 12 14 17 21 23 23
13 13 11 9 8 8 5 3 4 5 6 5 5 7 8 8 10 12 12 13 14 10 7 10 5 6 6 5 6 7 9 9 11 11 10 11 12 14 15 16 18 20 21
15 12 10 9 6 3 2 2 4 5 5 5 4 5 6 8 9 9 12 12 10 6 6 4 5 6 6 7 8 9 11 12 14 12 12 14 15 16 17 18 19 20 21
15 11 9 7 6 3 1 3 5 4 5 6 3 4 6 7 6 7 8 9 9 7 5 6 6 6 5 7 8 10 12 14 13 11 12 14 14 15 17 18 20 21 22
14 10 7 6 2 2 4 4 3 5 5 4 3 2 3 6 6 6 6 6 7 9 10 11 8 5 5 8 10 11 13 14 15 15 15 15 15 16 18 20 22 23 24
13 8 6 2 1 3 4 4 5 4 3 2 2 1 2 3 2 5 4 4 3 6 13 15 8 7 10 8 9 11 11 11 13 13 14 15 17 19 21 23 24 25 25
10 7 4 1 2 6 7 7 5 2 2 2 1 1 1 3 3 4 3 2 3 10 11 11 10 10 12 9 13 14 13 15 15 17 18 19 20 21 22 26 26 26 27
8 5 2 2 4 7 8 7 5 2 1 3 3 2 1 1 3 3 5 4 3 7 8 5 9 12 14 14 18 19 17 17 16 14 16 18 20 22 23 27 29 29 29
8 4 1 3 5 5 4 3 3 4 3 1 1 2 4 5 7 5 3 4 7 8 7 7 12 11 13 18 21 18 12 13 10 10 14 18 22 25 28 30 33 34 33
9 6 3 4 6 5 3 2 2 2 1 1 1 2 5 6 6 6 3 8 7 7 6 11 12 15 15 15 14 11 11 13 15 17 19 23 27 30 33 34 35 34 33
12 8 4 3 4 4 4 5 2 2 2 1 3 4 7 8 9 8 8 5 6 6 7 7 10 13 12 10 12 14 16 22 23 22 24 26 29 31 31 30 29 28 28
10 7 5 6 4 5 5 8 7 4 5 5 7 8 9 11 10 7 5 5 3 4 6 8 10 7 8 19 24 26 28 27 26 25 23 26 25 24 25 26 26 27 27
13 12 4 3 6 5 5 5 7 7 7 8 9 12 12 9 9 8 8 7 4 2 3 5 5 14 22 23 22 20 21 21 22 23 23 22 22 23 22 23 24 25 25
17 9 10 7 5 6 5 4 6 6 6 9 12 12 10 10 11 13 10 9 12 10 3 7 12 20 19 21 20 17 19 19 18 18 20 20 21 21 23 22 22 23 23
12 11 9 5 5 7 5 6 6 5 8 8 9 10 11 11 10 11 12 10 10 9 8 16 17 20 22 22 21 20 21 21 19 19 20 20 22 23 22 19 21 21 22
14 11 8 5 3 6 7 8 10 10 10 10 11 12 10 10 12 13 13 12 11 11 12 14 19 22 25 22 20 22 21 20 21 24 21 27 27 25 21 21 20 22 24
15 12 8 5 3 8 11 11 14 15 14 13 15 15 14 13 14 13 12 13 13 11 11 14 18 23 22 21 22 20 24 25 25 24 27 24 20 19 22 23 22 23 25
17 11 8 5 10 11 12 14 17 20 18 16 17 17 15 15 14 12 13 14 13 12 13 15 21 20 16 20 16 19 24 22 27 28 22 18 21 24 23 21 20 21 22
14 9 6 8 17 15 18 20 21 23 21 17 16 13 12 14 13 13 13 13 11 11 13 16 18 15 14 16 16 20 20 25 27 18 20 27 26 25 22 18 18 19 20
6 3 8 15 19 22 25 24 25 25 24 18 17 13 15 16 13 14 13 12 10 11 13 14 15 12 15 19 21 20 22 17 10 15 20 29 27 25 23 20 19 18 21
2 13 13 18 19 21 20 20 22 24 24 21 16 13 16 15 14 14 13 13 12 11 12 14 15 13 15 18 21 21 20 20 19 24 21 22 26 28 25 24 23 19 15
11 12 16 19 17 17 17 17 19 22 23 19 18 15 16 15 15 15 15 15 14 13 15 12 10 12 14 17 19 20 21 22 23 21 16 13 25 28 28 26 13 14 9
12 13 16 17 19 20 19 18 18 21 22 21 17 16 16 16 15 15 16 16 15 15 12 8 9 11 14 16 18 20 20 15 17 19 21 11 19 27 27 19 7 15 14
13 14 18 21 23 23 17 17 17 21 22 20 20 18 17 17 15 15 17 15 16 15 10 10 12 14 16 18 18 17 16 15 14 13 6 13 21 15 7 11 10 16 13

GFSMA_925_spd_024.txt.gz
Wind_Speed
14 15 15 14 13 10 8 7 8 8 8 8 8 7 7 7 8 8 8 8 3 3 3 3 5 6 7 7 9 10 9 9 11 12 11 12 14 16 17 19 20 21 21
14 15 14 12 10 7 8 8 8 7 6 5 6 6 6 6 8 9 10 7 4 3 9 7 5 5 5 6 7 8 7 9 11 12 12 11 12 15 16 18 20 21 21
15 15 14 12 9 8 7 6 6 5 5 5 6 8 6 6 6 7 7 6 4 5 6 9 8 7 6 5 6 7 8 9 10 12 13 11 12 13 15 17 19 21 21
15 14 12 11 10 8 7 6 6 4 4 5 6 6 6 6 7 7 8 9 8 6 6 6 4 5 6 6 7 8 9 11 12 14 11 12 14 16 17 19 19 19 20
16 14 13 12 11 9 6 4 3 2 5 4 4 6 7 7 8 8 8 6 6 5 5 4 4 5 6 7 7 7 10 12 14 14 12 14 15 16 19 21 21 21 21
17 15 13 12 10 6 3 3 4 6 4 3 5 6 7 7 8 8 8 7 6 4 4 5 6 5 3 5 7 9 12 14 14 14 15 15 15 18 20 20 21 22 23
17 15 13 9 7 5 6 5 5 4 4 4 5 4 6 6 6 8 7 5 4 5 7 8 6 5 5 6 7 10 12 14 14 16 18 19 20 19 20 21 22 22 24
17 14 10 8 7 5 4 3 3 5 4 3 2 0 2 3 2 4 3 1 2 4 9 9 8 6 8 7 7 10 12 13 16 16 18 20 20 22 22 23 24 24 25
15 12 9 7 4 3 3 3 4 5 4 2 2 2 1 2 3 3 3 1 2 5 10 9 8 8 10 7 12 15 18 17 17 19 21 21 21 22 22 23 24 26 27
14 11 8 6 4 3 5 7 6 5 4 3 3 1 0 1 2 3 3 6 7 7 11 9 9 11 11 13 17 19 19 17 16 14 17 19 21 22 24 25 28 29 30
14 11 8 6 5 5 7 5 7 7 4 1 2 2 3 5 6 4 2 5 9 11 12 9 10 11 12 16 16 17 13 15 15 14 15 17 20 23 27 29 32 34 34
17 13 9 7 6 4 4 3 5 3 1 1 4 6 5 5 6 8 4 8 8 12 10 10 13 13 16 16 13 12 15 16 19 20 22 23 25 28 30 32 34 33 31
21 16 10 6 2 2 2 3 1 2 4 6 7 7 7 10 11 10 8 6 7 5 6 9 10 14 16 13 15 21 25 27 27 24 25 26 27 28 30 28 28 28 28
23 18 14 11 6 6 3 8 8 9 9 10 10 12 11 12 12 13 10 6 2 4 5 12 9 15 11 20 26 24 24 24 24 23 24 24 24 24 24 24 26 25 26
22 19 16 7 8 6 7 10 12 12 10 10 11 14 15 14 12 12 12 11 7 2 3 8 8 9 17 23 22 23 22 23 21 21 21 21 22 21 22 23 24 25 25
24 19 12 9 9 9 9 8 10 12 11 9 9 11 13 13 12 12 13 13 13 12 4 7 10 14 18 20 21 22 21 21 21 21 20 21 22 21 22 23 24 26 26
24 20 14 14 12 11 10 10 12 13 12 10 9 10 12 13 14 14 13 14 14 13 10 12 16 18 21 22 23 20 21 20 20 20 20 22 22 24 26 25 25 24 24
24 17 16 15 12 11 9 12 14 16 14 13 11 11 14 15 16 14 15 17 17 15 14 17 20 19 22 24 22 22 20 23 23 24 21 24 23 22 20 21 22 25 25
21 20 18 15 11 5 11 13 14 15 16 18 17 16 17 18 17 16 18 17 16 16 16 16 18 18 22 23 23 23 24 23 21 20 21 16 17 20 21 22 24 25 25
23 20 16 13 7 5 13 15 17 18 20 22 22 21 19 19 18 18 18 17 15 15 14 15 17 21 19 22 19 17 22 20 26 23 17 19 25 24 22 21 20 21 21
23 21 19 12 6 11 17 18 21 25 26 26 23 22 21 18 17 18 17 16 15 15 14 13 17 16 16 16 13 17 19 24 22 14 17 29 29 26 23 22 20 19 18
17 13 8 2 11 15 18 21 21 25 26 29 27 24 20 18 17 18 16 15 14 15 14 13 15 14 18 16 17 19 19 18 12 12 26 33 23 26 26 25 22 22 22
12 4 2 13 18 17 21 20 20 22 25 26 30 26 22 19 18 17 16 15 15 15 14 14 17 20 17 15 16 19 16 18 20 24 22 25 24 26 29 29 24 13 16
9 6 12 18 16 20 20 20 20 22 24 26 28 26 23 17 18 17 15 17 18 17 16 15 18 16 14 14 15 18 20 24 20 20 17 16 21 26 30 28 16 7 13
8 13 15 13 18 25 23 25 24 24 24 24 25 25 23 19 18 17 17 19 20 20 16 16 15 14 14 14 14 16 19 15 17 19 21 13 14 26 25 19 14 8 16
15 14 16 18 21 25 20 21 20 21 20 22 23 23 24 21 19 17 18 19 21 21 16 15 14 14 14 15 14 14 15 13 14 11 5 12 21 12 9 13 17 21 17

GFSMA_925_spd_027.txt.gz
Wind_Speed
14 15 17 17 15 13 10 9 8 7 6 5 5 5 6 6 6 6 6 5 2 2 5 7 6 6 6 6 7 7 7 8 9 9 10 9 11 13 15 17 19 20 21
15 16 17 15 13 11 10 8 7 6 6 5 4 3 4 5 8 8 6 7 4 7 9 7 5 5 6 5 6 5 5 6 7 9 10 8 8 10 12 14 17 19 20
16 16 16 14 12 11 8 8 7 5 5 4 4 4 3 3 4 4 4 4 5 3 8 10 8 6 5 4 4 5 7 8 10 11 12 8 10 11 13 14 16 18 18
16 16 15 14 12 10 8 7 6 4 2 3 5 4 4 4 5 5 4 5 5 5 4 2 1 2 4 5 6 8 9 10 11 13 13 11 13 13 11 14 17 17 17
17 16 15 14 12 10 9 6 4 3 4 4 4 5 5 5 5 5 5 5 5 4 3 2 2 4 5 5 6 8 11 13 14 14 14 14 13 11 13 17 18 18 18
19 17 14 14 12 10 7 6 4 5 5 5 5 5 5 5 6 6 5 4 2 1 1 0 3 4 5 6 5 7 10 12 14 15 17 18 18 18 19 18 18 19 18
19 17 16 14 13 9 7 7 7 6 4 6 6 3 3 4 6 6 6 4 2 2 0 2 2 3 4 4 6 7 10 12 15 17 18 18 19 20 20 20 21 20 21
19 17 16 15 12 10 9 8 9 6 4 7 4 2 3 6 7 8 7 5 4 1 1 2 3 2 3 4 6 9 12 14 16 18 19 21 23 23 23 23 22 23 23
20 18 16 14 12 9 8 8 9 9 10 6 6 3 3 3 2 6 8 5 4 4 4 5 5 5 6 7 10 12 15 17 15 17 18 19 21 22 22 23 23 25 26
22 20 18 15 11 10 9 9 8 6 5 6 4 5 5 3 3 3 4 4 6 7 6 9 7 6 9 9 13 15 13 15 16 16 18 20 21 23 24 25 27 28 28
22 22 20 17 15 14 14 9 6 5 8 8 6 5 4 3 4 6 7 6 6 7 10 9 9 9 9 13 12 12 15 17 19 19 21 23 25 26 28 30 31 32 33
24 23 21 18 17 17 14 10 6 11 7 4 5 5 5 4 4 6 7 9 9 11 10 9 10 11 10 11 15 14 19 25 29 27 26 27 28 29 30 31 32 33 33
31 29 25 21 20 16 11 12 11 11 8 6 8 6 6 6 5 6 8 11 10 10 8 10 11 10 10 11 10 22 23 26 26 25 24 24 25 25 26 27 28 29 30
32 30 25 22 19 10 11 15 13 11 9 10 9 8 8 8 9 9 10 9 8 11 10 14 11 11 10 11 16 26 20 22 24 24 23 24 24 24 24 25 26 27 28
32 29 26 23 16 16 17 15 10 9 9 9 9 10 11 12 11 11 11 11 12 9 9 13 12 9 11 14 18 19 21 21 25 23 24 24 23 24 25 26 26 27 28
30 30 26 21 15 19 16 14 9 10 11 11 12 11 11 11 11 11 13 12 13 15 11 16 14 14 13 17 17 19 20 23 22 23 22 22 24 24 26 26 28 30 29
33 31 27 20 20 18 13 9 8 11 14 14 15 14 12 12 12 13 13 13 13 13 16 19 13 14 15 17 18 18 19 20 20 22 23 24 25 25 27 27 28 28 29
36 32 28 24 23 16 12 8 8 14 17 17 17 16 15 13 15 14 14 15 14 14 16 19 18 16 16 16 17 18 19 19 21 21 23 23 23 21 21 23 25 26 26
33 29 24 22 19 14 10 11 9 16 20 21 20 19 18 14 15 16 16 15 15 14 14 15 20 16 16 16 16 17 18 20 19 21 23 19 18 20 23 24 23 25 26
32 27 21 16 14 9 6 8 14 19 22 23 25 24 22 21 20 18 17 17 15 14 14 15 17 17 16 15 15 16 19 19 21 21 17 15 20 21 22 20 19 20 20
27 25 24 20 14 5 8 16 17 19 21 24 27 29 27 27 26 21 17 16 15 15 14 15 16 15 16 15 15 16 18 20 21 17 16 20 21 19 17 17 17 17 19
22 21 21 20 14 10 16 17 20 20 23 24 24 24 28 29 26 24 21 21 18 15 16 16 15 15 16 15 14 14 17 19 18 18 21 25 19 19 17 18 21 23 19
17 17 14 8 7 14 20 18 20 25 23 22 22 22 20 24 26 21 20 20 20 20 20 16 16 16 16 14 13 15 16 19 22 25 22 23 20 19 17 20 24 21 11
13 10 9 11 16 21 20 20 23 27 25 26 25 23 21 21 24 23 18 16 17 17 18 18 17 17 16 13 13 15 18 21 22 21 18 20 17 19 21 22 18 15 11
8 11 13 17 21 25 21 22 25 23 23 24 23 24 22 21 23 25 19 18 17 18 18 22 21 19 17 15 14 15 17 19 20 21 17 11 16 23 21 19 12 14 21
7 13 20 22 22 19 22 25 22 20 23 22 23 23 23 23 26 26 23 21 18 19 16 15 15 16 16 16 16 15 16 17 18 15 6 14 17 15 10 10 21 18 17

GFSMA_925_spd_030.txt.gz
Wind_Speed
12 11 12 12 11 11 9 8 8 7 7 6 6 6 8 8 8 7 5 5 2 4 3 5 6 5 4 5 5 4 5 6 7 8 9 8 7 9 10 12 14 16 17
12 12 12 11 10 9 8 6 6 6 5 5 6 5 6 6 6 5 4 5 4 5 7 6 5 6 4 3 3 3 5 7 8 10 10 10 8 9 11 12 13 16 16
14 13 12 11 10 8 9 8 6 5 3 4 4 4 3 3 3 3 2 1 3 1 4 6 4 3 3 3 4 6 7 8 10 11 12 11 9 14 14 11 14 15 16
14 13 12 11 11 11 9 7 5 3 2 2 2 1 0 0 1 1 0 1 2 1 1 2 3 3 3 4 6 8 9 11 13 14 14 14 13 14 10 12 15 17 16
14 12 12 12 12 10 9 7 5 3 2 2 2 3 4 4 3 3 3 3 2 1 2 4 7 7 7 9 8 9 10 11 13 14 15 16 17 17 16 16 18 18 18
14 13 11 12 11 10 9 7 6 3 2 2 4 4 5 5 5 5 5 5 4 3 4 5 6 6 9 6 5 6 8 10 11 13 15 17 18 19 21 21 20 20 20
16 15 12 13 11 10 9 7 6 5 3 3 4 6 7 7 8 7 7 7 5 5 5 5 6 7 7 8 5 6 7 10 12 15 17 18 20 22 23 24 24 23 23
17 16 15 14 13 11 9 9 7 6 5 6 6 8 5 7 9 9 9 8 7 7 6 6 7 6 8 9 9 12 10 10 12 15 17 19 20 21 23 24 25 24 24
18 16 18 17 16 12 11 11 12 11 7 6 10 8 4 5 2 9 11 9 8 8 8 9 8 8 9 10 11 10 10 13 14 15 17 19 21 22 23 25 26 27 27
19 19 19 18 17 15 14 13 13 13 11 9 8 11 9 7 4 4 8 9 9 10 10 10 11 10 10 11 12 14 13 14 15 15 20 23 24 26 27 27 29 30 30
23 21 20 18 16 14 13 13 15 11 10 8 9 7 8 7 7 8 8 8 8 10 9 10 11 12 13 13 14 13 16 17 21 22 24 25 25 27 28 29 30 31 32
25 22 20 19 17 15 15 16 15 10 9 10 7 9 10 8 9 9 9 11 10 10 10 11 12 13 14 14 16 17 18 21 27 26 22 23 24 25 26 27 28 29 30
25 22 19 19 21 20 20 18 12 11 13 11 9 9 9 8 9 10 10 11 11 11 11 11 13 14 14 16 16 17 19 26 23 23 22 23 24 24 25 26 26 27 28
29 25 27 25 20 21 20 15 12 13 12 10 10 11 10 10 9 10 10 10 8 13 14 14 12 14 16 17 18 22 22 23 22 23 25 24 24 25 26 26 27 27 28
25 31 29 26 21 21 18 14 13 13 12 11 12 12 11 10 10 10 11 12 12 9 9 14 14 13 15 17 19 22 23 23 24 28 23 23 24 25 26 27 27 28 28
22 22 24 23 21 22 19 15 14 13 12 10 13 13 12 10 11 12 14 14 14 15 10 16 16 16 15 19 20 21 22 24 25 23 23 23 25 26 26 27 28 29 29
23 25 32 33 27 27 15 17 13 12 13 10 13 15 14 12 13 13 14 15 16 17 17 19 18 18 15 19 20 21 22 23 24 22 22 25 25 26 26 25 24 24 25
25 32 31 26 26 19 17 15 13 8 6 14 18 18 17 15 16 16 16 17 18 18 19 21 21 20 20 18 21 21 21 22 23 23 23 26 25 25 23 23 25 26 27
28 27 27 26 22 21 18 16 11 7 17 17 18 20 20 20 21 21 20 19 19 18 19 20 22 20 20 19 20 20 21 21 21 22 23 23 20 21 23 25 26 25 25
18 23 27 24 21 18 16 13 8 12 16 17 19 21 22 24 25 24 23 22 21 20 20 20 21 21 19 18 18 20 20 19 21 22 22 19 22 22 24 23 22 22 22
16 22 24 23 17 19 12 4 7 15 16 18 21 24 27 29 30 30 28 25 22 21 19 20 20 20 19 17 17 18 19 20 21 20 21 19 24 24 22 19 19 17 18
16 21 20 23 17 11 9 13 14 14 18 21 24 24 25 28 31 36 37 34 26 21 20 21 21 19 19 18 17 17 17 18 17 16 20 23 22 23 22 20 17 23 24
15 16 15 14 16 13 17 19 19 19 19 22 23 25 26 26 26 28 27 33 31 28 27 23 22 21 20 18 17 17 17 18 20 22 22 23 22 22 21 20 18 23 20
15 15 15 15 11 16 19 21 22 23 19 24 26 27 28 29 28 26 26 24 25 23 23 24 24 22 19 18 17 17 17 19 21 20 19 21 21 20 21 22 20 18 17
8 8 7 10 15 18 19 24 21 17 22 25 24 25 26 27 26 27 27 27 26 23 21 24 25 22 23 22 22 17 17 17 19 19 17 16 17 21 21 23 12 11 21
1 3 7 10 16 17 15 18 20 20 22 24 25 26 26 27 27 27 28 29 27 24 22 20 18 23 26 22 22 20 19 19 19 18 15 15 20 20 15 19 13 20 22

GFSMA_925_spd_033.txt.gz
Wind_Speed
12 12 12 13 11 11 9 8 7 6 4 4 4 3 5 4 4 3 4 3 4 7 8 7 8 8 6 5 5 3 4 5 6 8 10 11 8 8 10 13 13 15 17
12 11 12 12 11 10 9 7 7 5 3 3 3 3 4 3 4 3 4 6 5 7 10 8 8 7 4 3 3 3 5 6 7 9 10 11 11 10 15 13 11 14 16
14 12 12 11 11 9 9 7 7 5 4 3 3 3 2 2 3 2 2 3 6 5 3 5 5 4 3 3 3 4 5 7 9 10 12 12 13 14 15 11 14 15 17
14 12 11 11 10 10 10 9 7 6 5 4 3 2 1 1 1 1 1 1 2 4 2 6 4 2 1 2 4 6 7 8 9 10 11 12 14 15 16 15 16 17 18
15 12 11 11 11 10 9 9 8 7 6 5 3 1 2 3 2 2 1 2 2 2 0 3 5 9 10 9 6 6 6 8 9 10 11 13 15 17 18 20 21 21 21
14 13 12 11 12 11 10 11 8 6 5 4 4 5 6 6 4 5 4 5 5 4 5 5 6 7 6 8 9 5 4 6 8 9 12 14 15 17 19 20 22 23 23
15 14 13 13 13 13 13 11 9 8 7 6 5 8 11 11 7 7 7 8 8 7 6 7 7 7 6 5 6 5 3 7 9 11 13 15 17 19 20 22 23 24 25
16 15 16 15 16 16 14 13 12 11 8 8 4 7 6 6 11 12 10 10 9 9 10 9 8 8 8 9 5 8 6 7 7 11 14 16 18 20 21 23 24 25 27
19 19 18 17 18 17 16 16 14 12 10 8 6 6 4 5 7 13 13 11 10 11 11 10 11 10 9 10 12 8 6 8 13 11 15 18 21 22 24 25 26 27 28
20 20 19 19 18 17 16 16 13 12 8 7 6 9 12 11 4 4 11 13 13 12 12 12 11 11 11 11 11 13 17 13 12 13 17 21 23 23 23 25 26 27 29
20 19 19 18 18 16 14 14 13 12 8 7 7 10 13 12 11 8 7 9 14 13 11 10 11 11 12 12 12 12 10 14 19 21 20 21 21 22 23 24 25 27 28
18 18 16 16 16 14 12 10 11 11 4 10 13 12 13 11 11 11 9 12 13 14 12 11 11 12 12 12 13 14 16 20 22 20 19 21 21 23 24 25 26 27 28
18 22 21 17 17 19 19 23 16 13 14 18 11 11 13 13 12 12 13 13 12 14 13 13 13 13 13 13 14 14 12 20 25 21 20 22 24 25 24 25 26 26 27
23 22 28 28 26 28 24 17 19 16 18 12 14 11 13 12 12 12 13 12 9 14 15 16 14 13 14 15 13 19 19 19 23 23 26 27 24 24 24 25 26 26 27
32 28 22 24 31 26 22 22 19 20 15 14 11 9 13 14 13 13 13 13 13 9 9 15 16 15 15 14 14 14 19 23 25 29 30 26 23 24 25 27 27 27 27
20 19 24 23 26 28 28 24 24 19 16 13 11 11 14 17 15 15 15 14 14 16 10 17 19 18 16 18 19 18 22 25 26 25 26 24 21 22 26 28 28 27 26
18 21 23 24 28 33 28 26 20 17 15 12 7 10 19 19 18 16 15 15 17 18 16 21 20 19 17 18 20 19 19 23 24 23 22 25 26 29 27 26 26 24 23
20 22 22 24 28 30 23 19 18 14 14 9 9 18 21 20 19 18 18 19 19 19 20 20 22 21 20 20 21 19 22 22 23 24 24 26 28 26 24 25 24 24 25
18 20 24 24 25 23 18 20 17 15 6 8 20 19 22 21 21 21 21 22 21 23 22 20 22 21 20 20 22 20 21 21 23 22 23 23 24 22 26 27 26 24 23
17 16 18 23 20 19 18 16 15 9 9 21 22 21 20 22 24 24 24 25 25 26 25 24 23 22 21 21 19 21 22 20 21 22 23 23 21 22 24 26 26 24 24
9 10 16 16 21 17 18 17 12 13 18 20 21 21 22 24 27 29 29 27 27 29 27 26 22 23 19 19 19 20 21 21 21 20 22 21 20 22 22 22 24 19 16
8 11 15 15 19 18 16 17 18 15 14 16 19 22 24 26 27 31 34 39 41 38 34 28 24 21 23 20 20 19 19 19 18 18 18 23 21 22 22 21 20 16 22
10 13 17 20 22 17 16 18 15 16 18 22 25 27 24 25 27 28 30 33 35 37 40 40 30 27 24 20 19 20 20 20 21 20 20 23 21 22 21 21 20 22 23
10 11 11 11 11 9 10 14 19 20 21 25 22 22 25 27 28 29 29 31 32 30 31 33 34 32 25 21 19 20 19 19 20 21 20 20 20 20 19 22 24 24 16
8 6 5 6 6 9 13 14 15 17 17 21 23 24 25 27 29 31 31 29 32 34 31 32 32 29 26 25 20 15 16 17 17 20 18 19 20 19 19 22 20 15 16
7 5 3 3 7 11 10 7 8 13 18 21 22 24 26 27 30 31 31 30 30 34 30 26 26 33 32 26 27 25 21 19 19 18 18 15 18 19 17 20 14 23 21

GFSMA_925_spd_036.txt.gz
Wind_Speed
12 10 13 10 11 11 9 8 4 6 6 7 6 5 5 7 8 3 5 4 7 8 10 9 10 8 7 7 6 5 6 5 7 9 9 10 11 11 12 14 11 14 16
11 10 15 14 13 11 11 9 10 6 7 4 5 4 5 5 3 4 4 6 7 11 11 9 9 8 7 6 5 3 4 5 6 7 9 11 11 12 14 12 11 13 14
11 10 12 14 14 13 12 11 11 7 6 7 5 4 3 4 3 2 5 5 10 10 10 10 10 8 7 6 5 4 4 4 6 7 8 9 10 12 13 13 14 14 16
12 14 15 15 14 13 11 8 9 8 7 6 7 5 5 3 4 5 3 5 8 10 9 6 6 6 4 3 0 2 4 4 5 6 7 9 11 13 14 15 16 17 19
15 18 17 16 15 12 13 13 12 10 10 7 7 9 6 5 5 6 6 7 7 7 6 6 2 5 7 6 7 4 1 3 5 6 8 10 11 13 14 15 16 18 19
19 20 16 18 17 14 15 14 12 11 7 12 11 11 10 11 10 10 9 9 9 9 2 4 1 6 7 7 6 7 5 1 4 6 8 10 12 14 15 17 19 20 21
24 20 17 18 17 17 18 17 15 12 12 8 6 11 18 19 15 11 12 12 12 11 8 8 6 4 4 4 7 5 6 6 3 5 8 10 13 15 17 19 20 21 22
23 23 21 20 18 19 18 19 16 15 14 14 6 7 3 8 16 15 15 16 13 10 9 10 11 11 7 7 7 9 7 6 5 5 8 11 15 17 19 20 22 23 24
20 21 22 17 19 21 20 20 20 17 15 13 10 3 2 1 2 18 19 15 14 16 14 11 10 12 12 12 10 9 11 9 9 9 10 14 17 19 20 20 21 22 24
21 18 20 21 17 19 14 18 17 17 14 12 13 9 7 5 1 3 15 19 17 15 15 16 14 11 8 10 12 15 12 11 8 11 13 14 17 18 19 20 21 23 24
22 21 19 20 19 14 11 9 12 14 14 8 3 2 9 10 13 9 4 4 19 20 22 22 19 15 11 11 13 14 13 9 12 14 16 16 17 18 20 22 23 24 25
24 25 20 17 20 19 19 19 19 22 18 12 10 6 7 11 8 9 6 9 14 13 19 20 18 13 10 12 13 14 12 12 14 17 20 14 17 20 23 23 23 24 25
26 29 27 27 28 26 29 28 24 21 20 13 9 11 7 19 13 12 12 10 6 14 15 13 13 15 17 17 19 18 13 11 14 16 19 18 21 23 22 21 23 24 26
33 31 30 30 29 29 30 26 30 27 24 20 17 15 14 16 9 11 14 8 4 10 16 17 15 16 19 17 15 14 11 9 14 20 24 27 28 22 21 22 24 26 27
31 28 30 32 27 27 27 31 31 24 21 18 14 13 14 9 11 17 15 14 12 3 3 17 14 13 11 10 11 13 15 18 20 22 25 25 25 21 21 23 26 28 28
25 25 28 24 24 25 30 32 26 23 17 15 14 12 7 9 16 20 18 17 16 16 4 18 18 17 18 17 14 15 18 20 19 20 21 27 24 24 24 23 25 25 25
17 20 20 23 27 24 28 27 25 19 18 16 14 8 7 13 20 21 19 17 20 20 15 18 18 19 20 17 15 17 16 16 17 20 21 23 25 28 27 26 27 27 24
17 17 20 25 22 25 27 28 23 16 17 15 14 10 13 19 22 23 24 23 23 22 22 20 24 23 25 24 19 18 20 21 21 21 23 28 29 27 24 25 27 28 27
14 17 20 23 25 24 22 24 17 19 16 17 13 12 21 21 21 22 24 23 23 25 22 23 25 26 27 26 23 21 22 21 19 20 25 21 17 22 28 26 27 29 29
16 16 20 25 23 20 21 18 19 19 16 11 13 16 24 21 21 23 24 26 27 26 27 27 27 27 29 28 27 23 22 21 23 18 17 21 25 24 18 21 29 30 28
9 11 14 15 16 18 18 18 19 20 16 13 18 19 19 19 22 26 28 29 28 26 26 24 24 24 25 26 23 24 22 15 17 17 17 20 21 19 22 24 25 26 21
10 9 11 13 15 19 21 19 19 15 12 14 15 19 24 27 32 34 31 33 34 37 33 29 31 26 29 25 30 23 20 15 6 14 15 22 18 23 24 23 21 15 16
12 11 13 15 17 16 17 19 16 13 12 15 20 24 28 24 22 26 28 28 31 32 34 36 35 35 29 31 30 21 18 16 16 15 12 19 21 26 23 18 19 23 26
12 13 12 13 13 11 11 10 10 12 15 18 20 18 22 23 23 25 27 30 33 34 33 33 36 42 43 40 33 22 19 18 18 17 15 17 23 26 19 19 20 21 23
13 12 11 11 8 8 5 7 10 9 9 11 13 15 17 20 19 25 30 31 33 34 32 34 35 40 44 36 31 23 20 16 11 16 17 21 23 20 15 17 21 18 16
14 10 9 8 6 3 6 4 3 4 7 11 17 23 26 27 29 31 32 28 30 34 34 37 37 34 37 39 34 32 27 22 13 6 21 20 21 10 6 17 9 20 21

GFSMA_925_spd_042.txt.gz
Wind_Speed
26 24 20 19 19 17 14 13 11 10 11 13 12 11 10 10 9 8 10 10 13 11 11 10 9 7 8 8 7 7 6 6 6 7 8 9 9 10 10 10 9 10 11
25 22 20 19 19 18 14 11 10 11 11 10 12 9 9 8 6 7 9 8 8 11 11 11 10 8 7 6 6 5 5 4 4 5 6 7 7 8 8 8 9 10 11
22 21 19 18 19 17 14 15 13 12 11 11 10 10 7 5 6 6 6 5 6 9 11 12 10 9 9 7 6 4 3 3 3 4 5 5 6 7 8 9 10 11 12
17 18 15 18 18 17 19 17 16 14 15 13 11 14 12 10 8 5 6 6 9 10 12 13 13 12 9 8 7 5 3 3 3 4 4 4 5 7 9 10 12 13 14
14 16 16 19 20 22 21 19 20 19 19 16 13 14 14 14 12 8 9 10 10 12 14 13 12 11 10 10 9 7 6 4 4 3 2 3 5 7 10 11 12 13 14
18 20 21 19 21 22 21 22 24 20 19 17 16 17 18 16 15 13 14 15 15 15 15 15 15 14 12 12 12 9 7 7 6 4 3 0 5 8 10 12 13 14 15
22 24 24 22 22 27 27 26 23 21 20 20 19 15 17 17 16 14 15 19 19 18 21 19 18 17 16 14 15 13 10 9 9 7 5 6 8 6 10 11 13 13 14
26 27 26 25 26 30 30 28 25 24 18 22 11 4 1 7 17 19 19 19 19 19 22 22 21 21 20 20 20 16 14 13 12 10 9 10 7 7 10 12 13 14 15
29 30 29 27 31 30 33 31 29 28 22 18 14 8 2 4 2 8 20 20 22 24 25 25 24 23 22 21 21 19 17 18 16 15 12 12 9 9 10 12 13 14 16
31 33 31 32 31 32 34 31 30 29 27 21 13 12 11 8 4 2 7 14 23 26 28 28 28 26 25 24 23 21 20 21 21 19 16 14 12 11 12 14 14 16 17
35 35 34 33 34 35 35 31 29 30 33 30 29 23 16 14 12 3 3 9 13 22 26 29 30 30 27 26 26 24 24 25 24 24 20 17 15 14 13 14 15 17 17
38 37 36 35 38 37 37 33 30 32 35 33 30 28 19 11 10 7 3 8 10 21 26 27 32 31 28 28 29 28 28 29 27 27 25 21 18 18 15 15 16 16 16
40 42 39 33 37 37 38 36 33 35 37 33 33 31 28 25 15 14 10 7 9 12 10 12 16 23 30 33 31 32 32 31 30 31 29 24 21 19 18 16 16 15 16
40 39 40 37 35 37 38 39 38 39 36 30 29 27 29 24 19 16 12 9 2 8 9 15 16 18 18 21 30 34 33 32 32 34 31 26 24 22 20 18 17 16 16
44 39 33 30 31 32 39 40 39 38 32 29 28 27 28 22 15 14 13 9 9 3 4 16 15 20 19 18 20 29 34 34 35 36 33 29 28 26 23 20 18 18 18
34 23 24 24 28 30 38 39 33 30 27 26 27 27 22 19 16 13 10 6 12 13 5 14 18 20 20 23 26 26 28 33 37 37 36 34 33 30 25 22 19 19 20
13 23 26 29 28 31 32 29 28 26 24 25 27 22 17 15 15 13 13 13 18 22 13 16 21 28 26 26 27 30 30 30 34 38 38 38 37 33 29 25 21 22 22
16 39 33 31 31 32 30 28 26 24 23 25 24 18 16 16 12 11 10 14 17 18 22 18 24 25 26 25 27 30 32 34 37 40 41 43 41 36 32 31 24 24 24
35 42 32 32 28 29 28 26 22 19 21 25 21 18 18 14 12 9 11 13 15 19 22 25 22 26 28 28 31 34 37 36 36 42 44 42 48 42 39 33 29 27 26
38 32 29 27 25 25 23 20 19 18 20 21 18 19 18 13 6 7 11 15 19 23 26 25 24 23 23 23 25 29 31 32 37 41 43 45 48 45 44 36 32 27 26
30 27 25 23 22 23 22 20 19 20 20 18 18 18 15 7 7 8 13 16 17 18 19 18 19 22 22 23 23 26 27 30 35 36 36 40 44 45 44 36 29 27 26
24 25 25 24 24 23 20 19 18 20 18 18 19 15 10 8 9 10 12 10 10 11 14 15 18 18 22 22 23 25 26 22 18 28 27 35 35 39 41 35 29 27 28
20 17 18 20 21 19 17 17 16 18 18 18 15 8 5 7 9 13 13 14 16 19 19 19 21 20 25 23 24 27 26 26 29 32 30 27 33 37 42 33 26 28 27
19 19 19 19 19 17 18 18 17 18 17 12 8 7 7 7 9 11 15 19 21 22 20 19 20 26 27 29 29 30 30 31 36 38 30 25 32 36 37 34 29 28 23
21 21 20 20 21 21 19 18 18 15 12 10 7 4 7 9 9 11 16 18 20 20 20 20 23 25 26 26 25 27 25 22 23 30 28 28 28 27 31 33 26 24 21
23 22 20 19 20 20 16 16 14 13 12 8 4 3 7 8 9 11 13 14 17 20 22 25 23 20 21 24 23 21 25 25 23 24 25 24 24 15 6 18 24 21 22

GFSMA_925_spd_048.txt.gz
Wind_Speed
34 32 29 28 26 23 22 22 18 17 17 17 16 16 16 16 15 15 15 13 14 14 14 14 14 13 13 11 10 10 9 9 8 9 9 9 8 8 9 9 9 10 10
33 31 29 27 24 21 20 18 15 14 17 17 17 15 14 14 12 12 12 12 11 11 13 13 12 11 10 10 9 9 8 6 7 7 7 7 7 8 8 8 8 8 9
32 30 28 26 23 21 20 17 16 15 16 17 15 15 13 12 10 10 9 10 13 12 12 13 13 11 10 9 8 8 7 5 6 7 6 6 6 5 5 6 7 7 8
30 29 27 26 23 20 19 16 17 18 17 17 16 13 13 11 10 10 8 9 11 14 15 15 14 13 12 11 9 7 6 6 7 7 6 5 3 1 4 5 6 6 7
28 27 25 24 22 20 18 17 19 18 18 15 13 13 12 11 10 9 7 8 9 14 15 16 17 15 12 12 11 9 8 8 8 7 7 6 3 3 5 5 5 5 6
25 24 23 21 19 20 19 19 19 18 16 15 14 13 14 14 14 13 11 10 12 14 15 16 17 16 15 13 12 10 10 10 10 10 9 8 6 5 6 5 6 7 7
24 22 21 18 21 22 20 18 20 19 17 18 14 11 14 16 17 17 17 16 17 18 19 18 18 18 18 17 15 13 13 13 14 13 12 11 10 8 8 6 6 7 7
22 21 18 19 18 22 21 20 23 22 21 19 10 4 1 9 20 21 21 22 23 22 22 21 21 21 21 21 19 17 16 16 16 16 16 15 14 12 10 8 7 7 8
20 15 17 16 18 20 22 23 25 27 24 23 24 10 2 5 3 12 26 27 26 26 25 24 24 24 24 24 23 22 21 19 20 18 19 19 19 17 14 12 11 10 10
26 23 18 17 17 23 24 24 26 29 27 27 24 28 17 6 4 1 9 18 27 27 28 29 27 28 27 28 28 28 26 25 25 23 22 22 22 21 18 17 15 14 12
28 28 29 21 19 22 25 26 26 29 33 32 29 17 25 17 12 4 3 5 12 22 26 27 29 28 26 29 34 33 31 31 29 29 27 26 25 24 23 21 20 19 17
34 35 33 32 26 26 27 30 30 31 35 38 34 31 25 12 14 8 3 6 6 10 19 19 22 19 20 26 29 32 33 33 34 35 34 33 29 28 27 26 24 23 22
42 40 35 35 32 29 29 33 34 33 33 35 38 37 34 34 29 22 17 7 8 13 10 15 17 20 20 17 15 19 24 29 32 37 38 39 39 35 32 30 29 28 27
39 39 36 33 31 32 34 35 32 25 27 30 34 38 40 39 37 29 21 14 2 9 9 10 13 11 7 9 12 13 17 19 23 26 31 38 41 43 41 40 36 33 32
33 34 35 34 34 35 33 29 27 22 28 35 37 39 37 37 36 30 25 21 15 4 4 6 7 8 6 9 11 15 17 18 20 22 24 27 32 39 43 46 45 44 40
37 36 36 36 36 35 32 30 37 27 37 44 41 36 35 35 30 25 22 18 16 13 3 10 8 11 15 17 19 20 23 22 22 24 25 27 30 34 38 43 47 48 45
43 43 41 39 35 35 35 37 30 28 30 34 34 32 32 32 26 22 18 16 13 14 9 8 9 9 11 16 18 19 21 20 21 21 22 25 28 30 32 34 37 42 44
33 39 41 37 39 36 37 31 26 23 26 31 32 29 29 25 20 20 17 15 13 13 9 8 8 9 12 15 17 19 19 19 22 24 25 27 27 27 30 33 35 39 41
39 41 35 41 42 38 36 29 29 28 27 30 28 26 24 21 20 19 17 17 14 11 8 5 5 10 14 16 18 19 17 20 22 25 28 31 30 32 34 36 39 41 43
40 40 40 40 38 41 38 33 29 24 26 25 24 23 22 23 21 20 17 15 12 9 6 5 7 8 9 14 16 16 23 28 31 32 34 34 32 35 35 37 39 42 43
39 38 36 35 37 38 35 32 27 25 24 20 18 18 18 17 17 17 17 14 9 6 3 3 5 8 13 14 16 15 23 25 27 28 22 24 26 29 33 35 37 40 44
35 34 36 38 39 38 32 29 25 23 23 20 18 16 16 17 17 16 12 8 6 2 3 3 6 9 12 14 16 20 22 17 8 14 20 35 30 33 32 32 34 36 38
33 35 36 36 32 30 25 22 20 21 19 18 19 21 21 19 16 13 9 4 1 4 7 7 7 8 10 13 17 20 19 16 18 24 25 36 25 31 30 31 34 34 36
31 29 27 26 23 19 18 17 16 16 16 16 19 23 21 18 13 9 6 1 2 5 6 6 7 8 11 14 15 16 19 23 25 20 19 26 29 34 33 33 32 35 35
20 20 20 18 16 15 16 18 19 20 21 20 20 18 16 13 8 4 3 5 6 6 4 4 6 10 11 12 12 13 12 13 19 16 19 23 24 26 32 39 33 30 31
21 19 18 15 16 20 18 17 18 23 25 22 17 13 10 6 3 4 9 6 4 4 6 9 11 12 12 10 9 10 13 13 13 15 7 15 23 17 12 27 20 25 31

GFSMA_925_spd_051.txt.gz
Wind_Speed
35 33 33 32 31 30 29 28 26 24 22 20 19 18 17 14 14 12 13 16 15 15 15 12 12 12 12 11 10 10 9 9 9 9 10 9 10 10 10 9 10 9 9
37 34 32 30 29 27 27 26 24 23 21 20 20 18 17 15 14 13 12 14 13 14 15 14 13 12 11 10 9 8 7 7 8 8 8 9 8 8 8 8 8 7 8
36 34 31 28 26 25 25 23 22 21 21 18 17 17 16 15 14 15 13 12 13 13 14 14 13 13 12 10 9 9 7 6 7 7 6 6 5 5 5 6 5 6 6
34 34 32 28 25 24 23 21 21 20 18 16 16 15 15 14 14 13 14 13 13 12 13 15 15 14 13 12 11 10 8 7 8 7 5 5 2 2 5 4 4 5 5
31 31 30 29 25 23 22 20 20 19 19 17 15 14 15 13 12 13 13 13 14 13 13 16 17 15 15 14 13 11 10 9 9 8 8 7 4 1 3 4 4 4 4
30 30 28 26 25 23 21 20 18 17 16 15 10 13 15 13 15 17 14 14 15 16 15 13 14 15 18 16 15 13 12 11 11 11 11 11 8 6 5 4 4 3 4
31 30 26 25 24 25 23 20 17 17 17 17 9 6 10 15 18 18 18 18 18 17 17 17 15 15 19 19 17 16 14 13 13 14 14 13 12 11 10 8 8 6 6
31 29 26 25 26 25 22 21 22 16 11 18 9 4 3 8 19 23 23 22 20 17 16 19 20 22 21 19 22 20 18 17 17 17 17 17 17 16 15 13 12 11 10
31 29 26 25 27 24 25 26 24 22 16 18 22 8 3 6 3 9 23 26 25 21 19 21 24 25 25 26 24 24 23 21 20 20 20 21 21 21 20 18 17 16 15
30 29 25 26 24 22 21 25 23 24 20 17 16 27 19 5 5 3 8 14 22 26 26 26 24 27 28 27 27 27 26 27 25 24 23 23 25 25 25 23 22 21 20
31 30 26 23 23 20 26 27 26 26 28 19 21 12 20 16 15 7 7 7 15 19 23 25 27 24 24 26 26 27 29 31 30 30 29 28 26 27 27 27 26 25 24
32 32 30 28 26 24 23 24 25 25 28 28 26 20 17 11 15 13 7 19 10 10 19 18 23 26 25 25 22 22 25 30 33 33 33 33 33 30 30 30 30 29 29
32 34 32 31 30 30 27 25 24 26 28 28 27 24 25 28 27 23 19 12 12 13 11 17 22 22 20 18 20 19 17 17 20 25 30 32 34 38 38 37 34 35 34
27 33 34 33 33 31 29 30 29 27 26 26 25 25 27 31 33 31 25 15 3 10 11 7 14 17 17 18 15 14 13 13 15 18 21 22 24 28 35 39 42 42 41
38 37 37 37 38 35 33 33 31 29 26 27 29 27 25 27 28 31 28 28 21 5 7 14 15 16 16 14 11 10 13 16 20 20 19 19 21 24 26 29 32 37 41
41 41 40 39 38 38 36 34 30 26 24 26 32 29 31 32 30 31 30 29 29 21 5 17 19 12 13 10 12 13 13 13 15 17 19 20 22 23 24 28 30 32 35
48 47 45 41 38 38 36 34 31 30 31 31 34 35 31 29 32 28 28 29 27 23 14 10 14 17 15 13 13 14 14 15 13 18 18 20 23 25 28 29 31 32 34
42 44 33 34 34 32 34 36 33 31 34 30 32 28 30 27 27 28 28 30 26 23 15 9 12 14 12 13 14 14 10 11 11 16 20 22 24 26 28 30 31 33 35
38 33 33 34 34 36 34 34 33 34 30 30 32 29 28 28 27 28 28 25 22 17 14 11 9 12 11 12 9 9 9 10 12 17 22 24 25 25 26 27 27 29 33
36 34 33 31 33 32 31 29 31 31 31 29 27 25 25 27 28 26 24 21 18 17 14 11 8 8 8 7 7 9 11 10 15 16 19 18 17 19 21 22 27 31 31
35 33 30 28 29 28 31 32 31 33 32 30 25 20 21 23 23 21 23 21 20 18 14 10 6 5 6 7 8 7 11 13 17 15 10 16 16 20 20 21 24 26 29
31 29 33 33 30 33 37 35 36 33 32 26 22 21 20 18 19 20 20 20 19 17 13 8 5 6 7 7 7 9 11 11 7 7 13 22 20 22 21 22 26 32 32
27 29 29 29 33 35 35 36 33 29 25 24 24 24 22 21 22 22 20 17 13 9 6 6 6 6 5 5 7 11 11 12 14 18 19 22 19 24 24 26 28 30 34
26 28 30 31 33 32 30 24 26 22 20 21 23 24 25 26 24 22 19 14 9 4 4 5 5 3 4 6 8 11 13 15 15 16 15 15 18 25 26 28 31 31 29
23 23 22 23 22 17 17 25 24 23 24 22 22 24 27 26 22 18 15 11 7 5 6 5 4 4 6 8 10 9 11 12 12 13 16 16 15 28 32 31 17 21 20
17 16 15 13 15 20 22 23 24 26 26 25 22 22 20 19 16 11 10 9 9 8 6 2 1 3 5 6 6 6 9 11 11 10 3 10 19 17 12 20 22 28 25

GFSMA_925_spd_054.txt.gz
Wind_Speed
26 27 26 26 26 23 22 21 18 17 16 16 15 15 13 12 12 13 15 17 17 16 15 15 14 13 13 12 12 11 10 9 9 8 8 9 10 9 9 9 10 9 9
26 25 24 23 22 21 20 18 18 17 16 15 14 13 12 12 11 11 12 14 16 17 16 15 14 13 13 11 11 10 9 8 8 8 7 8 8 7 7 7 7 7 6
25 24 22 21 20 19 20 18 17 16 15 15 14 13 11 11 10 10 11 11 12 16 17 17 16 15 14 12 11 11 9 9 9 8 8 8 6 4 4 5 5 4 4
26 23 21 20 19 18 18 16 16 15 15 15 14 12 11 10 9 9 9 10 12 12 16 17 17 17 15 14 12 12 10 10 10 10 10 9 5 2 2 3 3 4 4
23 20 20 19 19 18 17 15 14 15 15 15 13 12 11 10 10 11 11 12 12 12 13 18 19 17 18 17 15 14 13 13 13 13 11 10 8 4 2 1 0 1 2
23 20 19 18 19 18 16 15 15 14 15 14 13 12 12 12 12 13 13 11 12 14 14 13 16 18 21 21 19 17 17 16 15 15 14 13 11 9 7 6 5 5 4
24 21 20 19 20 19 18 17 15 15 14 14 12 10 11 12 13 14 14 14 15 15 15 14 16 16 19 24 22 21 19 18 17 18 17 16 16 14 14 12 10 10 8
23 23 21 21 21 19 18 17 17 15 14 16 13 13 6 12 17 20 18 19 19 18 18 18 19 19 17 17 21 26 22 21 20 20 21 21 20 19 18 16 14 14 14
25 25 24 22 23 21 20 20 18 16 15 16 17 10 5 6 9 13 21 21 19 20 20 20 22 21 20 19 18 23 28 26 23 22 23 23 23 23 21 20 20 19 18
26 27 24 23 23 22 21 21 19 19 19 17 17 22 20 13 5 6 10 14 20 19 21 22 21 21 21 22 24 24 23 26 28 27 24 25 25 26 26 26 25 24 24
27 26 24 24 24 22 21 22 20 20 21 23 18 15 19 20 18 14 10 12 15 22 23 22 24 20 22 23 23 24 28 30 28 31 31 30 26 26 27 28 29 29 29
28 25 25 23 25 22 21 22 21 19 21 21 21 20 19 15 16 18 13 20 14 11 20 22 25 23 21 22 23 24 26 24 24 27 33 34 34 30 29 30 30 30 31
33 35 27 24 22 21 19 19 21 18 20 21 21 20 19 22 21 20 20 14 15 15 15 25 26 24 20 23 22 25 22 22 24 25 26 28 32 34 33 33 33 33 34
35 35 28 27 26 24 24 22 21 22 21 22 23 22 23 22 21 21 22 13 3 12 17 18 18 27 25 24 20 20 20 19 19 19 19 20 23 25 28 30 31 30 31
37 36 33 33 31 28 28 27 27 26 25 27 25 25 25 23 21 21 20 24 20 6 7 17 18 24 25 22 21 18 15 14 17 20 22 24 25 25 24 24 25 28 30
39 38 38 36 34 33 32 31 31 30 30 29 27 26 23 22 26 30 29 29 31 25 7 18 19 16 22 20 19 19 17 19 19 20 21 22 24 24 24 25 27 28 30
39 40 41 40 39 40 37 35 35 35 33 32 28 25 23 24 28 28 29 28 26 26 17 14 14 19 19 19 15 15 14 13 14 18 22 22 23 24 25 27 30 31 32
38 39 38 41 42 40 38 36 35 32 32 31 28 25 26 28 30 28 26 29 28 27 20 13 18 20 18 18 16 16 14 13 15 17 21 23 23 25 26 29 31 33 35
37 36 38 39 39 37 36 34 33 32 32 29 28 30 31 26 29 29 29 29 26 25 22 15 9 15 15 17 14 14 12 15 16 18 21 21 21 23 26 27 26 28 29
35 37 37 37 36 35 34 35 33 32 32 28 28 28 26 25 25 28 29 29 26 24 23 18 13 11 12 14 11 11 14 16 16 16 17 18 19 17 19 19 24 26 26
35 35 33 33 33 33 33 33 30 29 28 28 30 30 25 27 26 27 27 26 25 24 22 16 9 9 10 9 13 12 12 14 16 17 17 13 14 16 19 19 21 22 22
34 33 33 34 33 32 33 35 31 28 26 31 33 34 33 27 22 23 23 24 27 29 20 15 13 11 11 12 10 11 11 12 12 11 12 15 17 19 20 18 21 26 30
31 32 32 32 33 32 31 33 33 31 31 31 32 29 26 24 23 24 23 23 22 19 16 13 11 8 7 9 8 10 12 13 15 16 17 19 18 22 19 20 22 27 32
29 28 26 26 26 28 32 35 34 31 28 26 27 26 27 25 26 27 26 22 17 14 11 8 6 5 5 5 7 9 11 13 16 16 16 18 16 19 21 21 25 27 20
19 20 21 23 28 31 30 28 25 25 20 19 20 22 26 27 25 25 24 21 15 9 7 7 8 9 8 9 9 6 10 12 14 16 15 17 16 20 24 25 16 14 22
20 17 14 12 11 13 12 19 25 25 25 23 20 19 20 23 23 20 18 16 12 9 6 4 2 2 4 6 7 7 9 12 13 11 4 7 14 16 11 15 16 23 23

GFSMA_925_spd_057.txt.gz
Wind_Speed
25 25 26 27 25 23 21 20 15 15 15 14 13 13 11 11 15 15 15 17 17 16 15 14 14 14 14 13 12 11 11 12 10 10 10 9 8 8 8 7 7 7 7
24 25 26 27 26 24 21 19 16 16 16 15 14 13 12 13 12 14 15 17 18 17 16 15 14 14 14 13 12 11 10 11 9 10 9 9 8 6 6 5 5 4 4
25 24 26 26 25 23 21 17 16 16 16 16 15 14 12 12 11 12 14 15 15 18 18 18 16 15 15 14 13 12 11 11 10 11 10 9 8 6 4 4 3 3 3
22 22 22 21 20 18 19 18 18 17 17 17 16 15 13 12 12 11 11 14 16 15 19 19 19 19 17 16 14 14 13 12 13 13 12 11 9 7 5 5 4 3 1
22 20 20 18 20 20 19 18 17 17 17 17 16 14 13 13 13 12 12 12 13 15 19 22 23 21 19 18 18 17 16 15 15 15 15 14 13 10 8 6 5 4 2
26 21 16 15 19 18 18 17 17 17 17 17 16 15 13 13 12 13 13 14 14 15 17 21 23 22 23 23 21 19 19 18 17 17 16 16 16 14 12 9 8 7 6
22 23 18 15 19 17 17 17 17 16 16 15 14 13 14 14 14 14 15 16 17 16 15 15 18 21 26 27 28 24 22 21 19 19 19 18 19 18 16 13 12 11 11
18 24 18 20 23 18 17 19 18 17 16 16 15 15 7 13 18 19 19 19 18 17 17 19 19 20 22 26 30 30 26 24 24 24 23 23 22 21 19 17 17 16 15
21 22 21 25 25 20 22 21 20 18 17 17 18 12 6 8 15 22 23 20 18 19 18 20 20 20 20 19 22 26 28 30 28 26 26 27 26 25 23 22 22 22 21
18 26 27 24 23 24 20 22 22 20 17 18 16 20 21 16 3 3 14 20 20 20 20 21 21 20 20 22 23 23 27 28 31 32 29 28 27 28 28 27 27 27 27
29 28 30 27 24 24 23 22 23 23 22 19 16 16 18 19 17 11 7 9 14 18 20 23 23 17 17 20 24 25 27 25 27 30 33 32 28 29 28 29 29 29 30
31 38 31 28 27 25 24 24 25 24 24 22 21 18 17 14 14 14 9 15 16 18 18 18 27 25 27 23 23 28 27 31 33 33 32 33 35 33 30 29 28 29 30
27 30 31 30 27 28 28 28 26 27 26 23 22 21 21 20 21 20 16 18 14 11 13 20 28 29 28 29 29 30 33 32 30 29 30 31 33 35 36 33 31 31 32
35 34 32 33 32 29 29 30 29 29 31 24 23 24 22 22 21 19 18 17 9 14 13 20 19 28 31 32 34 35 34 34 33 31 28 26 25 25 26 29 31 31 30
36 34 35 35 34 32 30 29 27 27 25 25 24 26 27 25 25 23 23 21 19 7 7 14 20 24 26 31 35 37 35 30 27 24 23 22 22 24 25 26 27 27 27
37 37 38 37 35 33 32 31 29 28 28 27 27 28 29 28 28 26 24 23 24 21 12 19 20 25 28 30 36 36 30 24 23 22 22 24 25 26 26 26 26 27 28
40 40 39 39 39 37 36 35 34 34 33 32 32 32 32 30 28 24 26 27 27 28 19 22 24 25 25 25 28 26 25 24 23 22 21 23 24 26 26 26 26 27 28
37 37 39 35 37 38 38 37 36 35 35 36 36 35 35 31 29 28 30 30 32 28 26 21 19 22 23 25 23 25 25 24 21 19 19 22 22 24 26 28 28 30 32
38 38 37 37 40 38 37 38 39 38 38 37 37 37 36 32 30 30 33 31 29 29 30 21 16 20 18 23 26 23 22 20 19 18 20 19 24 26 27 28 29 30 30
38 39 39 40 40 39 40 40 39 39 38 36 35 36 35 33 30 34 32 30 29 27 26 23 17 16 19 19 24 16 17 17 16 17 17 18 21 22 25 22 20 23 24
39 38 37 39 39 40 40 39 38 39 36 34 36 36 35 34 33 35 32 28 29 28 22 20 14 9 14 11 18 14 14 15 15 16 17 19 18 16 16 18 20 22 21
36 35 37 37 37 38 39 40 39 32 32 33 33 34 32 33 36 36 35 30 31 30 25 20 18 14 14 14 13 14 11 10 10 14 18 16 15 17 19 20 21 23 25
34 36 36 35 36 35 35 38 36 37 30 30 29 26 31 39 37 33 27 26 25 24 22 21 13 13 12 12 11 10 9 11 13 15 14 17 17 21 21 22 20 21 26
35 34 33 33 32 31 32 33 36 39 36 34 32 36 37 33 28 27 27 22 18 16 16 14 14 10 10 9 7 5 8 11 12 14 15 17 17 20 20 22 23 26 29
29 29 27 27 26 25 26 26 25 34 30 26 24 24 26 24 24 26 26 24 18 16 11 12 12 7 4 6 7 4 6 10 11 14 14 18 18 19 19 21 26 25 16
24 23 17 15 16 17 19 22 25 28 22 17 14 12 15 19 24 24 26 24 21 14 9 10 5 4 0 1 3 6 5 9 11 9 6 6 13 13 15 16 16 15 22

GFSMA_925_spd_063.txt.gz
Wind_Speed
36 36 34 32 29 28 30 30 27 29 25 14 15 24 27 23 24 27 25 22 20 18 16 16 15 15 14 14 14 13 13 12 11 10 10 9 9 8 8 9 9 9 9
36 37 34 32 30 29 31 32 27 26 20 13 14 12 24 24 23 27 26 23 20 19 17 15 15 14 14 13 12 12 12 10 10 8 8 7 6 6 6 6 6 6 6
33 34 35 35 30 29 33 29 25 25 19 17 17 17 25 23 22 24 26 23 21 19 17 17 15 15 13 12 12 11 11 10 8 8 8 7 6 6 5 5 4 4 3
34 35 34 37 31 30 31 28 23 29 24 22 18 18 22 22 21 23 23 24 23 20 19 17 16 16 16 15 14 13 12 12 10 11 10 10 9 7 6 5 5 4 3
37 35 36 38 33 32 31 27 31 27 29 24 18 16 17 22 22 23 22 24 23 22 22 22 20 17 17 17 18 15 15 14 14 14 14 12 12 10 8 7 6 6 5
36 31 37 39 37 34 32 27 31 27 29 28 24 18 16 15 20 21 20 23 23 23 22 23 23 23 21 20 19 19 19 18 17 17 17 17 15 14 13 12 10 10 9
26 29 29 32 29 34 32 37 32 27 28 29 26 23 19 21 21 21 18 23 25 25 25 25 26 27 27 26 23 22 22 21 21 21 21 20 19 19 18 16 14 14 14
26 30 26 33 17 33 24 34 28 22 25 28 17 20 2 8 20 25 23 24 25 27 27 28 29 28 29 28 29 29 27 25 26 26 26 25 24 23 22 20 19 19 19
25 31 25 31 23 26 32 28 26 21 15 19 17 15 3 4 7 18 27 28 28 26 25 28 30 28 29 29 29 30 31 32 30 32 32 31 30 27 25 25 24 24 23
32 29 31 32 31 27 21 24 25 21 23 21 20 22 17 9 3 1 16 29 28 31 30 30 34 32 31 31 31 31 32 34 36 37 37 37 38 33 30 29 28 27 27
34 32 30 29 30 27 26 24 24 28 27 27 24 25 24 17 12 3 3 7 27 30 32 34 33 33 33 35 37 36 36 35 35 38 40 40 40 38 38 36 34 31 30
32 33 33 30 31 31 28 27 32 31 31 29 25 29 25 15 15 7 3 7 18 27 36 34 36 39 40 39 42 41 39 39 39 38 41 42 42 41 39 38 37 34 33
28 34 34 30 28 31 34 32 31 32 30 37 34 28 29 29 20 15 13 8 9 19 23 36 38 39 39 40 41 42 41 44 46 44 42 43 44 43 41 37 32 30 29
30 34 37 40 36 30 30 33 34 31 35 39 38 35 31 31 25 21 24 16 2 11 20 26 33 42 42 42 42 43 45 40 34 32 31 30 32 40 43 39 37 37 35
33 26 36 39 43 39 31 32 33 35 33 35 36 35 36 37 33 30 36 30 19 6 6 20 27 34 38 43 42 42 43 46 44 42 43 38 37 33 36 37 34 33 34
36 33 32 35 38 41 41 34 38 39 36 39 39 40 40 39 38 36 38 38 37 26 11 26 33 36 37 38 37 36 38 38 35 36 37 36 35 35 36 35 36 33 28
40 41 38 39 38 38 42 43 39 40 39 41 42 40 44 43 40 39 41 39 40 33 22 29 32 34 32 33 34 33 35 36 36 36 37 37 37 36 37 35 28 28 27
39 42 43 39 40 40 40 43 42 37 39 38 40 40 43 40 41 41 40 38 37 36 32 30 30 31 34 37 38 37 38 39 39 38 39 37 36 35 32 28 27 25 24
41 40 41 46 45 44 43 42 42 40 40 41 41 40 44 38 40 39 38 36 35 38 36 32 32 29 35 35 34 36 38 36 36 36 35 29 27 27 27 25 24 23 22
38 41 43 44 44 43 44 46 46 42 42 43 43 43 44 42 44 41 38 39 38 34 31 31 31 27 28 34 34 27 28 36 35 29 24 23 22 23 24 22 22 20 20
40 40 40 42 42 44 46 44 45 46 45 45 44 44 44 45 46 46 39 38 34 33 32 31 28 21 23 18 25 30 29 26 26 28 22 22 21 21 21 21 21 19 18
43 39 45 42 41 45 48 49 46 43 44 43 43 42 42 43 45 47 48 47 43 39 36 30 29 26 28 28 27 25 19 10 3 18 20 19 13 14 16 18 17 14 16
41 45 44 42 46 45 46 47 51 51 40 39 39 37 37 43 47 48 49 49 46 43 45 39 35 27 18 22 22 17 20 16 9 8 4 5 7 8 8 9 15 17 18
41 43 44 46 42 44 47 49 51 50 45 42 39 41 40 38 42 42 38 31 22 19 17 16 13 10 9 11 14 13 17 14 11 11 6 2 12 15 15 17 15 16 18
38 39 39 37 41 44 42 46 47 48 42 36 36 35 34 36 35 34 33 23 18 20 22 24 28 27 24 21 18 16 15 12 6 5 4 1 4 10 14 19 18 18 17
40 35 31 33 35 34 39 42 41 40 35 28 19 17 15 20 19 23 27 28 28 25 27 26 25 23 20 18 14 14 12 12 5 2 8 5 5 8 7 4 5 9 12

GFSMA_925_spd_066.txt.gz
Wind_Speed
37 35 32 34 35 35 35 34 31 30 26 22 20 27 26 26 28 29 27 24 23 21 20 19 17 16 15 15 14 14 13 12 12 11 12 12 10 11 10 11 10 10 10
43 39 37 36 37 35 34 33 32 30 24 16 18 29 25 26 29 28 27 23 22 21 19 19 18 16 15 15 14 13 13 12 11 10 10 10 9 8 8 8 9 8 8
43 40 38 37 34 36 36 32 31 29 21 15 21 27 26 28 27 28 27 25 22 21 20 19 18 17 16 15 15 14 13 12 11 12 11 9 8 8 7 7 7 7 6
41 40 37 38 37 36 34 32 33 29 20 15 21 26 27 26 25 27 26 25 23 21 20 20 19 19 18 17 16 15 15 13 13 13 11 10 10 9 8 8 8 7 7
40 39 39 39 38 37 37 33 31 28 23 19 20 25 28 25 26 27 26 24 23 22 21 20 19 19 18 17 17 16 16 17 16 15 13 13 14 13 11 11 10 9 8
37 38 38 39 40 40 40 35 31 28 27 24 21 24 22 24 25 26 25 25 24 23 21 21 21 20 18 19 19 18 18 19 19 19 18 18 17 17 16 15 13 12 11
37 37 37 39 39 39 40 36 29 33 31 27 23 21 21 25 25 26 25 25 25 24 24 24 24 24 23 23 22 21 22 23 23 24 23 22 22 21 21 19 17 17 17
37 36 35 39 39 40 38 36 33 29 27 32 17 16 3 7 24 28 27 25 26 26 28 28 28 28 27 28 28 27 26 26 27 27 26 25 25 24 24 23 22 21 19
37 34 33 38 39 38 36 35 37 31 23 33 26 11 2 4 5 18 27 29 29 31 31 30 31 31 32 31 31 32 32 32 31 32 31 31 30 30 28 27 25 25 23
28 30 32 36 31 36 34 39 36 34 29 27 22 25 15 10 4 1 16 30 30 32 33 33 32 33 34 34 34 35 34 35 36 36 36 36 37 36 33 31 30 29 27
27 32 32 38 26 32 33 34 24 30 31 33 24 25 26 15 11 3 3 7 25 32 36 36 34 34 34 36 38 36 36 37 38 38 41 41 41 42 42 39 36 33 31
30 30 31 34 33 26 26 30 34 30 30 32 34 27 26 13 10 5 2 5 10 20 37 37 38 38 38 39 41 41 40 39 40 41 42 44 48 47 42 42 42 40 38
29 34 36 35 37 29 27 30 34 34 33 36 37 35 31 29 26 20 18 10 9 20 15 33 39 39 40 41 42 44 44 44 44 46 47 47 48 49 45 42 42 43 40
33 40 37 37 39 38 38 38 33 33 35 36 38 32 33 31 31 27 20 15 3 7 13 19 25 34 40 42 43 45 48 48 46 46 44 41 43 47 43 46 46 43 42
29 33 39 40 40 37 36 37 36 34 35 39 39 39 36 37 37 35 32 29 20 4 5 24 29 33 36 38 39 42 46 47 48 48 47 48 46 42 40 39 40 44 48
34 30 35 39 40 38 36 34 34 36 37 40 38 40 39 39 42 43 39 36 34 24 9 28 33 37 37 37 40 42 43 46 48 46 43 39 40 43 46 46 45 42 43
38 34 36 39 40 42 43 41 38 36 39 40 42 41 42 43 41 41 41 39 35 30 19 29 35 39 40 42 44 43 42 39 42 41 40 39 36 35 38 41 38 38 39
39 42 39 39 40 42 42 43 41 38 37 37 38 40 44 38 41 40 37 38 36 37 30 28 32 34 41 45 45 46 46 42 42 42 44 41 39 37 37 38 38 38 36
38 39 41 42 39 38 39 43 43 41 41 40 39 39 42 36 40 38 37 36 36 37 35 32 35 32 35 39 41 41 42 43 43 46 42 42 42 39 39 38 36 32 31
35 37 41 41 42 42 42 42 40 41 42 43 42 43 43 40 43 41 38 39 38 34 33 31 32 33 32 36 36 34 33 44 46 44 44 43 41 35 31 28 25 24 25
37 36 36 38 40 41 45 44 44 45 43 43 42 44 46 46 48 46 38 37 34 33 33 32 31 31 26 22 27 34 31 30 32 34 33 32 30 24 24 23 23 23 20
38 38 40 40 40 43 46 48 47 42 42 42 43 43 42 43 47 49 50 50 44 37 35 33 32 30 33 30 33 32 27 15 5 13 20 19 16 16 14 16 14 12 12
36 37 41 39 43 44 48 50 50 49 42 41 43 42 41 42 45 46 50 50 51 54 53 44 38 39 35 34 31 29 27 18 8 8 18 7 8 8 7 4 3 3 7
37 41 41 43 44 46 51 51 50 52 48 47 43 43 44 43 43 46 42 43 41 42 43 44 43 37 31 22 23 22 19 19 18 12 10 5 5 5 5 6 4 8 10
26 39 44 42 42 46 48 49 51 48 44 45 45 46 47 43 41 40 44 37 25 16 8 12 14 12 10 10 16 19 23 21 4 3 4 4 5 2 6 10 10 9 10
30 31 37 39 40 42 42 47 48 45 41 38 42 41 44 45 41 42 44 40 28 25 28 28 27 25 23 20 16 15 18 15 11 3 5 4 3 3 1 4 5 5 8

GFSMA_925_spd_069.txt.gz
Wind_Speed
34 36 35 33 34 39 39 36 32 31 30 27 25 26 26 26 27 27 26 22 20 20 19 19 18 18 18 18 17 16 15 14 14 13 13 12 12 11 12 12 12 12 11
35 37 36 36 37 39 39 39 36 32 27 27 27 27 26 25 27 27 26 23 21 20 19 18 18 17 17 16 16 16 16 14 13 13 12 11 10 10 10 11 10 10 10
39 35 36 37 38 37 39 36 32 30 25 23 29 27 26 24 26 26 26 25 23 21 20 19 18 17 16 17 16 16 15 15 13 12 11 11 10 9 9 10 8 9 9
37 38 38 39 40 38 37 35 30 30 25 23 28 29 26 25 26 27 24 24 23 23 22 20 18 17 17 16 15 15 15 14 14 14 12 12 12 11 10 8 9 9 9
35 35 36 38 39 38 38 38 33 30 24 22 26 29 26 27 25 26 24 24 23 23 22 21 19 19 18 17 16 16 16 15 14 14 14 14 14 11 11 11 11 12 11
37 37 34 35 37 38 35 38 36 29 25 25 23 25 26 24 24 26 25 24 24 23 22 21 21 20 20 18 18 18 17 17 17 15 15 16 16 16 14 14 14 14 14
32 33 32 34 35 36 36 37 38 30 24 26 23 15 18 21 23 25 25 25 25 24 23 22 22 22 21 20 20 19 19 19 18 17 18 18 17 19 18 18 18 18 18
30 32 34 33 36 34 31 36 35 27 23 28 14 15 3 4 17 23 25 27 26 26 26 26 26 25 24 23 24 24 22 22 21 20 21 22 24 24 23 23 23 22 22
32 30 33 35 33 34 35 34 34 33 22 29 22 10 3 3 4 13 26 29 30 30 30 29 29 28 28 28 28 28 28 28 25 25 26 28 29 30 29 27 27 26 25
35 30 26 33 35 34 34 38 35 34 30 24 22 20 17 13 3 2 13 32 33 33 34 33 32 32 32 32 32 33 32 31 31 32 31 33 34 36 35 34 32 30 30
34 34 31 31 36 37 38 42 36 34 34 30 26 20 18 14 11 3 3 7 29 38 37 37 36 35 35 35 35 36 35 34 34 35 37 38 38 39 41 40 39 38 35
33 35 29 30 35 42 41 41 38 35 36 35 38 32 26 14 11 6 3 4 11 22 37 38 38 39 39 39 38 37 35 35 37 38 38 39 40 42 44 43 44 44 43
31 32 29 32 33 32 30 31 32 28 25 35 41 35 34 32 22 30 22 9 9 16 13 26 36 41 42 42 42 41 39 40 39 39 41 42 43 44 45 46 47 46 47
32 37 35 32 35 31 27 27 34 37 33 27 35 42 40 40 33 36 29 19 2 8 13 16 18 26 31 37 41 41 41 41 42 41 43 45 46 47 47 47 48 49 51
23 27 33 33 34 32 34 31 29 32 35 39 37 38 43 39 37 37 34 31 19 7 6 23 24 31 32 32 33 37 42 42 42 44 45 47 47 46 46 44 44 42 45
25 27 31 33 35 38 41 36 38 40 40 43 45 45 43 40 38 37 39 37 35 24 9 24 30 31 32 34 37 38 41 43 42 43 44 45 47 45 43 43 40 38 39
28 26 31 34 35 36 40 38 39 39 42 41 42 41 42 42 38 39 41 39 37 31 19 29 31 37 36 39 41 43 44 45 46 46 47 47 46 43 43 39 41 39 41
33 32 32 32 34 37 39 40 39 38 42 41 42 43 45 40 41 39 35 35 34 33 27 26 32 33 38 45 47 47 49 49 50 50 48 48 46 41 42 42 41 40 41
37 37 38 41 40 38 35 38 41 39 39 41 40 41 39 38 42 37 33 34 34 35 32 29 33 34 34 37 41 42 44 45 48 48 46 44 45 44 43 42 40 42 41
34 36 38 39 38 39 42 42 40 41 41 41 41 44 42 40 43 39 38 39 38 33 30 28 31 34 29 31 36 35 33 38 43 46 46 46 47 48 44 40 40 37 36
37 37 37 39 39 40 42 41 42 42 41 41 41 43 44 45 47 48 42 41 38 34 34 32 30 31 30 26 27 34 32 36 35 37 37 41 41 39 37 30 29 29 27
34 33 35 36 36 41 44 46 47 42 44 43 43 44 45 47 51 54 54 55 49 38 36 34 33 30 33 33 33 34 32 23 9 25 31 23 22 25 23 21 21 20 20
29 31 34 36 39 41 44 49 51 50 44 42 44 44 43 43 47 47 50 57 57 57 57 47 40 38 37 35 34 28 33 33 29 17 21 13 14 17 11 12 17 19 15
16 16 25 33 38 42 48 51 50 51 46 46 45 45 44 44 44 43 43 40 48 54 60 62 57 47 45 38 36 32 28 20 9 7 10 4 10 6 10 11 7 7 5
21 23 24 29 29 38 42 47 48 46 43 48 48 47 46 46 49 49 47 43 46 41 35 35 35 31 26 25 21 27 20 19 4 4 5 3 4 8 5 6 5 4 7
16 18 21 14 14 18 16 24 35 36 38 41 42 37 38 47 43 45 50 41 32 21 19 18 17 17 15 14 11 13 15 13 12 4 10 4 4 5 3 7 5 3 5

GFSMA_925_spd_072.txt.gz
Wind_Speed
34 36 33 28 31 38 36 34 33 33 33 31 26 24 24 23 24 25 23 21 19 18 17 17 16 17 17 17 17 16 15 15 15 15 15 14 14 13 13 13 12 12 11
34 34 31 34 34 40 36 32 33 35 33 30 26 25 25 23 25 25 24 21 19 18 18 17 16 16 16 16 16 16 15 14 14 14 14 13 12 13 12 12 11 11 10
35 33 32 34 37 40 36 31 30 32 32 30 26 27 22 22 23 24 24 23 19 18 18 18 18 17 17 16 16 15 14 14 14 14 13 12 11 10 10 10 9 10 9
34 33 33 33 38 40 38 34 33 32 31 27 28 25 22 22 23 24 23 24 23 21 19 18 17 16 16 15 15 15 14 14 14 13 12 11 10 9 9 9 9 9 9
33 35 32 32 37 39 37 35 34 32 28 27 28 26 24 22 23 22 23 23 23 22 21 19 18 17 16 16 14 15 15 14 14 13 12 12 11 11 11 11 9 10 10
38 35 33 33 36 37 37 36 36 31 28 26 23 22 21 21 21 23 23 22 22 23 23 22 20 19 18 17 16 15 15 15 14 14 15 14 15 15 15 13 13 13 13
40 34 33 33 36 37 36 34 33 33 25 26 24 13 12 17 20 21 22 22 23 23 22 22 21 21 21 19 17 17 17 17 16 16 17 18 18 18 17 17 16 16 17
31 33 32 34 36 37 37 38 34 28 21 30 13 14 3 3 13 20 22 23 23 23 23 23 23 23 23 22 22 21 21 20 19 20 21 21 22 21 20 21 21 21 21
28 31 30 29 33 36 36 38 36 31 23 30 22 8 3 3 5 14 23 22 24 24 26 26 26 27 27 27 26 27 26 25 24 23 24 25 25 24 23 24 24 24 24
26 29 31 28 31 32 33 37 38 31 29 26 24 10 12 10 3 2 9 18 23 28 29 30 32 31 30 31 31 31 30 29 29 29 29 29 31 31 32 32 31 29 28
29 31 32 35 34 34 35 34 36 35 27 29 23 21 14 14 12 4 3 5 23 33 35 35 35 35 36 36 36 35 34 33 33 33 34 34 34 35 36 37 38 38 37
30 32 29 37 33 33 32 32 36 36 32 24 33 28 23 13 8 4 0 4 13 21 30 37 40 40 39 39 38 38 37 35 35 35 36 36 38 39 39 41 42 42 43
26 32 35 31 28 29 30 33 33 35 34 30 28 33 32 31 22 23 14 8 7 19 12 21 27 35 40 41 41 41 40 38 37 36 37 37 38 40 42 43 44 44 46
23 29 32 32 29 27 32 34 31 33 32 33 29 28 32 37 32 25 18 18 4 11 18 18 23 26 30 33 35 35 38 37 37 38 38 39 39 40 42 43 45 45 45
22 26 32 32 30 31 30 31 35 37 39 34 33 29 27 27 38 40 35 28 20 8 7 22 25 32 33 33 32 30 33 33 35 37 38 41 43 43 44 45 47 46 45
16 21 27 29 29 29 30 31 32 35 41 41 38 40 36 35 30 32 35 36 33 24 10 26 30 35 32 32 34 32 34 36 39 41 42 42 44 45 45 46 45 44 41
20 19 23 28 28 30 32 33 34 34 34 32 36 38 38 37 38 42 40 40 35 31 20 33 34 34 33 35 39 41 43 43 44 44 45 46 47 47 46 47 47 45 41
19 20 21 24 28 31 32 35 35 32 33 35 37 34 36 35 39 41 36 38 36 34 28 27 32 32 35 43 44 44 46 47 47 48 48 48 48 48 46 45 44 44 41
23 24 25 25 27 30 34 37 39 40 40 42 42 39 39 40 40 36 35 34 35 33 30 28 31 33 33 35 40 44 47 45 47 47 46 48 48 46 44 42 42 42 43
23 27 31 33 34 35 36 35 34 37 37 37 38 40 39 41 43 41 38 39 37 33 30 27 29 32 33 33 35 33 32 37 41 45 48 45 43 44 42 41 42 43 44
28 28 30 32 34 36 38 38 36 36 36 36 38 40 41 44 46 48 42 41 37 33 32 33 32 32 30 30 31 36 34 36 38 39 40 40 43 42 42 41 41 41 39
28 31 33 33 32 36 35 37 40 37 37 37 38 39 41 43 49 53 54 56 52 40 36 35 36 33 37 38 37 34 34 29 16 27 34 30 30 29 29 30 31 28 29
6 5 9 20 26 31 36 39 42 44 39 38 40 41 42 42 45 47 48 54 59 60 60 52 42 40 42 41 39 37 34 34 34 26 24 17 11 11 5 3 4 12 15
10 11 13 15 16 13 17 17 26 39 44 44 43 43 42 43 44 42 41 41 44 52 58 61 56 50 41 37 30 30 30 27 17 10 14 5 12 13 14 15 12 15 14
11 11 11 14 16 17 24 23 24 23 25 38 42 40 41 45 47 47 46 41 38 31 26 29 20 15 2 21 39 39 25 12 3 2 3 5 7 14 17 16 16 15 15
11 11 14 17 19 20 27 25 22 17 19 21 17 8 13 18 35 38 31 36 36 20 19 7 11 9 9 18 14 6 3 8 8 6 13 7 5 5 5 10 12 11 8

GFSMA_925_spd_078.txt.gz
Wind_Speed
22 22 21 24 29 30 32 29 25 22 20 18 17 15 14 11 12 12 14 16 17 16 16 16 16 16 15 16 15 15 15 14 14 13 13 12 12 12 12 11 11 11 11
24 25 27 25 28 33 31 26 24 22 20 18 17 15 13 12 13 13 14 17 15 16 16 15 15 15 14 14 14 14 14 13 12 12 12 12 11 11 10 10 10 10 10
28 29 29 28 30 34 31 25 24 22 20 18 17 15 13 13 15 14 14 15 16 16 15 15 14 14 15 14 14 13 13 13 12 12 12 12 11 11 11 11 10 10 10
26 25 28 28 32 35 33 24 24 23 21 20 17 16 13 13 15 15 13 14 16 14 14 13 13 14 14 14 14 12 12 13 13 13 12 12 12 12 12 11 11 11 12
27 33 31 29 34 35 34 25 24 23 21 20 18 15 14 13 14 15 14 14 14 14 13 15 15 15 14 14 14 14 13 13 14 14 14 14 14 13 12 12 12 12 13
31 35 31 34 34 35 31 24 25 23 22 21 19 17 14 13 13 14 15 15 14 13 13 13 16 15 16 16 15 15 15 15 15 15 16 16 15 15 14 13 14 15 15
18 36 34 36 36 39 37 28 25 25 23 21 19 15 13 11 12 13 14 15 16 15 15 14 15 15 15 20 19 17 17 17 17 17 18 18 18 18 16 16 17 17 18
25 35 36 36 38 36 34 29 28 26 24 25 21 19 7 7 12 15 15 16 16 16 17 18 18 16 15 15 19 23 22 20 20 21 21 21 21 21 20 20 21 21 21
21 29 37 38 37 36 35 30 28 29 26 27 25 21 7 6 14 16 17 16 16 16 18 19 20 19 19 18 18 21 24 24 25 25 25 25 24 23 22 22 22 23 23
23 28 39 37 37 33 32 31 30 29 26 26 24 25 18 10 11 6 16 19 18 19 20 19 20 21 21 21 22 23 23 25 28 28 27 28 28 29 29 29 29 29 28
20 27 36 35 36 33 29 30 29 29 27 26 25 25 17 12 17 10 7 14 18 21 21 22 22 23 22 22 23 26 28 31 29 30 31 31 32 32 33 34 35 35 35
19 21 27 28 32 31 28 30 30 31 28 25 25 23 22 20 15 13 8 13 18 20 23 24 24 25 22 21 24 28 32 30 32 33 34 35 36 36 37 39 41 41 41
20 23 23 25 30 30 26 26 29 30 29 27 27 26 23 20 19 17 14 12 11 18 16 24 23 24 23 26 26 33 36 37 35 36 37 37 38 39 41 42 43 44 45
15 19 25 30 30 33 32 29 27 29 28 28 26 27 24 20 21 19 18 16 10 16 18 18 22 25 26 27 30 29 29 30 33 31 34 36 37 39 42 43 44 45 46
13 18 24 30 32 33 33 31 30 31 32 33 33 30 27 24 27 23 22 21 20 10 13 21 20 16 22 23 25 31 30 29 29 33 34 30 31 32 35 37 39 41 42
12 15 19 25 28 31 30 33 34 32 31 34 33 31 31 28 24 21 20 16 17 17 13 19 22 20 21 19 21 26 27 34 39 37 37 35 34 37 39 39 40 42 44
11 14 15 18 22 26 29 29 31 31 31 24 26 31 35 33 32 30 24 19 19 19 16 23 25 26 28 28 30 30 30 30 35 40 42 40 42 43 48 47 47 49 50
11 13 14 16 18 25 28 28 27 26 30 32 31 25 29 25 29 29 28 31 28 29 25 26 30 30 33 38 38 37 35 36 36 36 40 47 48 50 52 55 55 56 56
11 12 12 13 14 16 22 26 25 22 24 27 32 35 35 30 32 32 32 33 35 35 32 31 35 37 35 34 35 37 37 39 38 39 43 47 49 51 54 56 57 58 58
10 12 12 12 11 12 15 20 20 21 21 23 23 25 28 32 34 34 33 34 33 32 32 32 32 32 33 36 37 36 36 35 37 39 41 44 43 44 45 47 50 51 53
7 8 10 11 12 8 8 14 15 19 22 24 25 27 27 29 31 32 31 31 31 31 30 30 29 31 32 31 33 33 35 36 37 36 38 37 35 33 30 36 43 44 43
7 6 5 4 7 5 2 13 17 17 15 21 25 26 29 32 37 40 42 45 44 36 32 31 30 29 33 35 35 34 33 30 16 30 34 29 29 19 12 11 15 23 30
12 14 14 12 11 10 10 4 9 18 22 24 20 15 16 19 23 26 30 39 47 52 54 47 37 33 31 30 30 32 33 33 33 28 26 14 5 4 4 10 18 4 5
15 15 15 13 12 16 14 8 5 3 2 3 6 9 10 13 16 20 23 24 21 22 28 34 26 21 22 26 29 29 27 21 16 10 7 3 6 9 10 11 13 13 12
17 17 17 16 15 19 23 15 9 7 10 12 13 19 14 13 16 16 16 17 15 4 8 4 5 8 10 10 11 12 10 12 9 5 1 6 9 11 7 8 11 13 12
18 17 18 19 20 20 27 22 15 11 13 13 16 19 23 20 18 16 11 5 11 9 7 10 13 17 18 20 21 17 13 8 5 4 13 7 5 3 2 3 7 6 7

GFSMA_925_spd_081.txt.gz
Wind_Speed
23 22 20 25 25 28 31 32 31 26 21 21 19 15 14 9 11 12 13 15 18 18 16 15 15 15 15 14 14 14 13 12 12 11 11 11 10 10 9 10 9 8 7
21 24 24 23 23 27 31 30 31 28 23 22 22 17 16 11 11 9 13 15 16 16 16 15 16 14 14 14 13 13 12 11 11 11 11 11 11 11 11 10 9 9 8
22 22 21 24 24 30 30 30 28 25 25 23 20 17 14 12 14 13 15 16 15 16 16 15 16 15 14 13 13 13 12 12 12 11 10 10 10 10 10 10 10 9 9
20 22 24 24 23 26 28 29 27 24 23 20 21 18 15 13 14 14 15 16 16 14 14 16 16 14 14 13 13 12 12 12 12 12 12 12 12 11 10 10 11 10 10
20 24 23 27 27 28 29 29 24 23 23 22 20 18 16 15 14 15 15 15 16 16 15 16 17 15 15 14 13 13 13 13 13 13 12 12 12 12 12 12 12 12 12
23 24 28 29 29 28 31 31 24 21 22 23 23 16 14 15 15 15 16 16 16 16 16 19 18 16 16 15 15 15 15 14 14 15 14 14 14 14 13 13 14 14 14
18 22 26 31 30 31 31 34 26 24 23 27 15 20 12 9 9 15 16 16 15 16 17 19 18 17 18 20 20 18 18 17 16 17 16 16 17 16 15 16 16 15 16
19 20 34 33 34 31 34 33 26 24 22 26 20 19 4 4 8 11 14 15 15 16 17 17 16 16 18 18 21 24 22 20 20 20 19 20 19 18 19 19 18 19 20
14 17 28 35 33 36 37 36 30 27 20 23 25 19 6 5 13 16 16 17 17 18 19 19 19 19 19 16 18 22 24 24 25 24 24 23 22 20 20 20 20 21 21
14 18 20 38 39 38 36 36 32 28 26 24 23 24 19 10 11 6 16 17 15 18 18 18 19 21 22 21 20 20 22 24 26 26 28 28 27 27 25 26 26 26 27
10 13 25 32 36 36 38 35 30 29 25 24 22 19 17 16 13 11 9 15 20 21 22 23 20 22 23 24 25 27 28 27 25 26 30 30 31 32 31 31 31 31 32
9 12 25 31 34 34 38 38 32 27 25 21 21 19 15 12 9 10 4 13 17 20 20 20 23 23 22 23 26 26 28 27 29 31 31 31 33 34 36 36 38 37 38
13 17 20 27 28 31 33 37 34 27 25 23 22 21 18 15 15 11 10 8 7 18 16 24 24 24 25 24 25 30 32 30 28 31 32 36 35 37 39 40 43 42 43
15 16 20 22 27 26 32 29 24 23 23 22 21 19 19 21 16 16 10 13 7 9 12 13 22 24 24 24 26 30 33 34 30 31 36 38 36 37 41 44 46 45 46
13 16 20 19 22 27 29 30 26 23 22 23 22 21 21 18 20 22 18 17 16 7 8 13 16 21 24 24 25 28 32 34 32 32 28 29 33 37 35 37 38 39 41
11 13 18 21 24 27 28 29 30 29 27 27 28 25 24 26 24 25 21 22 23 19 9 13 16 15 22 21 19 23 31 32 31 33 32 32 34 36 38 41 42 40 41
8 12 16 20 25 28 32 31 26 30 30 28 29 31 33 30 30 30 26 28 24 22 14 20 21 25 27 27 24 24 23 26 28 31 32 36 39 39 43 46 47 47 49
6 9 10 15 21 24 26 29 30 29 30 27 26 27 29 28 31 30 28 29 29 26 21 21 25 27 29 33 37 40 42 42 37 35 38 40 42 44 44 45 48 51 53
7 7 8 9 13 14 18 24 26 25 25 28 29 28 28 25 25 25 25 26 27 28 26 26 33 36 36 38 37 41 42 43 40 41 42 44 46 48 50 54 53 53 52
8 8 9 8 8 8 10 14 20 23 24 24 26 24 25 27 28 27 26 27 29 29 31 32 33 33 32 35 34 32 29 32 33 35 38 41 45 47 44 48 51 54 55
13 9 10 8 8 7 4 6 9 10 24 22 15 17 21 21 22 28 30 31 32 31 30 29 28 28 28 26 26 27 30 32 32 32 34 33 29 27 24 27 27 32 41
12 13 15 14 12 10 4 4 7 4 3 2 3 7 8 12 20 26 30 33 33 30 27 25 24 23 28 30 29 26 26 25 14 20 22 19 19 16 14 13 13 17 20
17 17 15 13 15 13 10 6 4 2 2 3 5 8 10 10 13 14 15 15 17 16 16 18 20 19 18 23 26 28 21 16 12 23 21 11 13 9 9 9 11 10 9
22 22 20 17 15 19 12 9 10 7 9 11 12 10 10 11 13 14 15 12 9 11 13 10 6 6 9 12 14 16 18 20 21 16 12 8 11 4 1 5 11 13 13
22 23 22 21 20 22 16 16 13 12 14 16 16 20 15 14 14 8 7 3 6 9 17 18 16 14 15 13 11 7 10 8 3 5 13 6 7 3 4 6 7 12 12
18 19 22 20 21 21 22 21 14 14 16 16 18 20 24 22 22 15 13 10 13 12 10 11 16 19 21 22 21 19 13 8 4 2 15 9 5 2 2 4 5 6 8

GFSMA_925_spd_084.txt.gz
Wind_Speed
21 23 24 23 25 30 30 30 27 26 28 25 23 18 15 12 19 21 24 18 18 18 17 17 17 17 17 17 16 15 15 14 13 13 13 12 12 11 11 11 11 10 10
20 22 22 23 27 31 30 30 27 26 25 25 26 19 19 14 20 18 20 20 20 20 17 17 17 17 16 16 16 16 15 14 13 12 12 12 13 13 11 10 10 9 9
22 23 23 23 25 25 27 25 25 25 26 27 29 25 20 15 15 20 18 21 19 18 17 17 17 16 16 15 15 15 14 14 13 12 12 12 12 12 11 10 10 10 10
21 23 23 23 25 27 27 28 28 28 29 29 25 22 18 15 15 19 20 21 20 20 18 18 17 15 16 15 15 15 14 14 13 12 12 12 12 11 11 11 11 10 10
19 23 23 25 28 26 26 30 27 25 27 26 31 23 20 17 17 16 25 25 21 18 18 18 18 15 15 15 16 15 15 14 14 14 13 13 13 12 12 12 11 11 11
18 22 22 23 24 25 26 25 25 28 26 23 24 21 23 22 19 16 24 25 22 22 20 20 18 17 17 18 18 18 17 16 16 15 15 14 14 14 13 13 13 13 13
19 22 25 22 26 24 27 28 25 28 26 21 23 22 19 18 20 15 18 19 21 21 24 23 23 22 22 21 21 20 19 18 17 17 17 17 16 16 15 15 14 14 14
20 23 26 28 28 26 27 31 28 20 22 24 19 14 3 4 8 13 16 17 22 23 24 26 20 22 24 27 26 24 22 21 20 19 19 19 18 18 17 17 16 17 15
19 19 24 31 28 29 29 33 33 26 20 24 30 14 4 3 6 8 11 11 12 17 18 21 20 22 25 23 23 27 26 25 25 23 23 21 20 19 18 18 18 20 19
16 19 23 30 33 31 31 35 37 33 22 21 26 25 15 16 4 3 15 20 16 20 19 21 23 21 20 21 21 19 21 25 25 26 26 25 25 24 23 22 22 22 22
13 18 23 26 31 34 33 34 35 30 27 24 19 22 20 13 19 6 5 12 23 17 22 22 15 24 26 23 21 19 20 20 23 25 27 27 28 28 28 27 26 28 27
13 16 20 25 28 33 35 36 34 35 32 25 24 25 21 10 8 7 3 12 18 22 24 26 27 21 23 28 28 26 26 27 26 26 27 29 30 31 32 33 33 31 32
11 10 12 23 29 29 33 39 33 34 34 25 26 28 18 13 10 3 7 7 5 15 16 25 26 28 28 25 26 27 30 28 28 29 31 33 34 34 35 35 37 38 38
14 11 14 22 25 28 31 36 40 32 34 28 26 23 20 15 11 5 2 3 1 2 11 14 28 31 30 35 34 31 29 29 32 32 33 35 37 37 38 37 39 41 41
14 15 15 19 24 22 32 33 32 33 31 31 28 22 16 14 14 10 4 1 3 2 3 6 6 29 28 27 26 25 28 30 31 31 35 37 38 36 36 39 40 39 39
15 15 17 18 18 22 20 26 30 28 27 23 21 22 19 15 11 17 17 9 8 9 6 15 17 11 11 18 21 24 27 28 26 27 30 32 33 34 34 35 36 37 39
14 16 15 18 20 21 22 22 22 25 27 26 22 22 20 17 18 16 18 24 22 24 13 21 22 26 26 27 23 21 23 30 35 30 30 31 34 36 37 38 39 40 40
12 12 14 16 17 19 22 25 27 28 28 28 25 25 25 22 26 28 26 26 29 28 27 25 23 23 28 32 33 33 37 39 37 37 36 39 44 44 42 42 47 47 47
11 11 10 14 17 18 19 22 27 28 28 27 27 28 27 27 29 27 28 25 25 25 26 25 28 30 30 31 32 36 39 39 42 44 44 43 44 44 49 46 46 47 49
11 10 10 11 15 15 15 15 19 22 23 24 25 27 27 27 29 30 27 27 27 25 24 26 28 27 29 33 30 31 30 31 33 32 31 28 21 20 24 23 31 33 34
16 15 16 16 14 12 9 9 10 7 20 21 21 20 15 13 15 23 20 19 19 22 23 23 24 23 24 25 20 15 14 14 13 10 14 14 16 14 13 13 15 16 20
20 21 20 18 15 12 7 7 10 8 10 11 10 9 6 3 1 5 5 3 8 13 17 12 14 12 9 7 12 14 15 8 4 8 17 21 19 16 15 13 12 12 11
22 23 21 19 19 16 12 11 9 9 9 9 9 8 5 5 7 6 6 7 7 8 6 4 3 7 7 12 15 16 13 9 8 17 18 10 10 5 4 6 10 10 10
29 25 23 22 22 23 16 13 13 15 17 17 15 12 10 10 8 6 5 8 15 19 16 13 13 12 10 9 8 7 8 11 5 3 10 3 7 3 3 5 10 11 11
33 30 26 25 25 23 20 16 15 17 20 21 21 20 16 15 11 10 9 12 14 16 19 19 19 17 17 16 12 4 11 8 5 8 17 7 9 6 4 5 7 9 10
27 32 28 26 25 28 23 18 16 20 25 25 26 28 29 28 23 17 16 16 21 18 17 18 19 20 21 22 23 21 16 13 8 4 16 9 10 9 3 6 6 9 9

GFSMA_925_spd_087.txt.gz
Wind_Speed
20 20 27 28 26 27 30 31 27 26 25 28 27 25 16 25 29 29 27 22 20 21 20 19 18 17 18 18 17 17 17 16 17 17 17 17 15 14 14 14 13 13 12
22 23 30 29 26 28 30 30 30 25 26 26 28 27 19 25 29 29 27 23 22 21 21 20 19 20 19 20 19 17 16 16 16 16 16 17 15 13 13 13 11 11 11
22 24 26 29 30 30 30 30 27 25 24 24 27 26 20 28 27 28 27 24 22 20 18 20 20 19 19 19 18 18 17 16 15 15 15 16 17 15 13 12 11 11 11
23 24 26 26 28 30 32 31 28 24 23 26 23 21 26 29 28 28 24 25 22 20 21 19 18 19 18 18 18 18 17 17 16 16 16 16 15 15 13 13 12 12 12
23 24 28 26 27 30 31 29 26 30 27 28 27 25 30 28 28 22 25 25 23 23 22 22 20 19 20 19 17 18 17 17 18 17 17 17 16 15 15 14 14 13 13
22 25 27 28 30 26 26 27 30 29 27 26 27 21 24 22 22 25 26 21 24 23 22 23 21 20 19 20 19 19 18 18 18 18 18 17 17 16 16 15 15 15 14
23 25 28 29 29 28 28 28 27 25 24 34 21 20 23 24 22 21 26 26 25 25 24 24 24 23 22 21 21 20 19 19 20 19 19 18 17 17 16 16 16 15 15
21 25 27 28 26 25 25 28 26 20 20 28 17 20 4 8 17 18 30 29 27 27 24 24 27 26 25 25 23 22 21 21 20 20 20 20 19 18 17 16 16 16 16
22 24 25 25 26 25 25 27 28 26 20 27 22 14 6 4 8 12 23 25 27 27 29 28 29 28 26 25 25 25 24 24 24 23 22 21 20 19 18 18 18 17 17
24 23 26 25 28 28 28 31 32 31 25 28 21 20 13 19 7 2 11 15 14 27 29 32 29 26 24 22 23 23 24 27 27 27 26 25 22 20 19 19 20 20 20
22 24 24 27 30 31 32 33 35 33 30 27 24 23 16 22 19 4 3 9 19 19 21 22 25 26 25 25 24 23 20 22 27 28 28 28 28 26 24 24 24 24 24
20 20 23 28 28 32 32 34 39 37 32 29 29 26 21 11 13 6 2 5 16 22 23 25 23 23 27 26 22 21 21 20 20 22 26 28 30 30 29 28 29 28 28
19 19 23 24 30 32 34 35 35 35 34 33 31 27 23 17 20 18 8 6 5 12 19 23 27 27 22 26 29 29 28 26 27 26 26 28 29 30 32 32 34 35 34
20 19 21 22 26 29 27 34 32 33 34 31 32 23 26 20 14 18 11 11 2 6 8 12 30 30 28 31 33 29 29 29 29 28 29 29 30 31 32 33 35 38 39
19 16 15 17 23 24 28 31 30 32 35 33 31 23 25 24 14 13 13 13 10 3 3 6 6 15 30 30 29 30 27 28 28 30 31 32 32 33 35 36 37 39 40
18 17 16 17 21 21 24 26 33 29 32 33 30 23 17 21 14 9 11 11 8 6 3 7 4 4 7 13 15 17 21 24 25 27 29 28 30 31 31 31 34 34 36
17 17 17 18 20 17 23 28 27 34 28 28 29 23 22 16 15 13 9 6 6 5 3 10 16 15 19 17 17 20 19 22 27 28 30 33 35 36 35 36 35 36 37
16 15 15 17 17 17 17 18 25 30 29 29 27 23 19 18 16 15 17 20 21 17 15 18 27 27 28 26 24 22 23 28 34 36 38 41 39 38 39 42 44 43 45
14 13 13 13 15 17 17 19 19 27 30 30 29 27 24 21 19 19 23 26 22 19 20 23 26 22 24 25 29 32 37 39 36 34 31 31 34 37 36 30 32 31 36
17 14 13 16 16 15 15 16 17 20 23 25 25 25 24 25 24 23 25 26 25 22 21 20 20 23 23 29 26 25 24 20 20 13 11 13 6 3 3 7 11 14 15
20 19 19 17 16 15 14 14 15 18 16 14 13 14 12 16 24 25 20 20 20 20 20 19 18 18 20 15 10 6 4 9 8 4 1 3 6 8 8 8 7 11 14
21 20 19 17 15 12 13 17 16 17 21 20 20 17 15 15 13 11 10 10 14 12 11 8 3 2 1 5 10 11 12 5 3 4 8 8 8 7 8 8 8 11 11
23 22 22 20 20 17 13 17 18 21 22 20 17 14 12 10 9 10 9 8 9 8 4 3 3 4 3 7 8 7 4 3 2 9 9 1 7 8 7 8 11 11 12
25 26 24 25 26 22 18 20 22 23 23 19 16 14 13 12 10 11 13 16 18 18 15 15 14 13 10 8 6 4 4 2 3 8 9 2 8 5 3 4 6 8 8
26 27 25 26 30 24 19 19 22 26 29 30 25 20 18 20 17 13 14 18 20 23 23 23 21 19 18 16 10 2 7 6 4 8 15 4 11 6 4 5 6 7 7
27 27 28 29 30 30 20 21 22 27 31 30 30 32 32 23 19 17 20 22 27 21 19 17 17 18 19 21 22 21 15 15 7 5 16 4 9 6 2 2 8 14 14

GFSMA_925_spd_090.txt.gz
Wind_Speed
23 21 23 24 26 26 24 23 27 31 29 28 31 29 25 23 27 29 28 25 24 22 20 21 20 21 19 18 17 16 16 15 15 17 17 17 17 18 17 16 16 15 14
23 22 24 26 29 25 25 29 32 29 32 31 30 29 27 24 30 31 29 25 22 20 22 21 21 20 19 19 18 17 16 16 18 18 17 16 16 17 17 17 16 15 14
23 22 26 28 28 26 27 29 31 30 30 28 28 21 26 28 31 31 31 26 21 20 22 21 21 19 19 20 20 18 18 18 18 17 18 17 16 16 16 16 15 14 14
24 24 26 29 29 27 26 28 31 29 28 28 27 23 25 30 32 32 29 26 24 24 23 23 22 21 20 20 20 19 17 18 18 17 17 18 18 17 17 15 15 15 15
25 26 26 28 31 29 28 28 31 30 25 23 21 24 27 32 33 31 29 27 26 25 24 22 21 21 21 20 19 20 19 18 18 17 17 18 18 17 15 14 14 14 14
26 28 27 26 27 29 28 28 30 32 28 27 24 26 23 31 35 33 31 29 27 24 24 24 22 21 20 20 19 19 19 19 18 17 17 17 16 16 16 15 15 14 13
26 29 27 27 28 30 31 29 30 29 25 27 21 19 13 23 32 33 32 29 26 25 24 25 24 22 22 21 21 19 19 19 18 18 17 17 17 17 16 16 16 16 15
27 29 29 29 30 29 25 27 29 20 19 28 11 22 4 6 16 31 31 29 26 26 26 27 26 24 23 23 23 21 20 20 19 18 18 18 19 19 19 18 17 17 16
27 27 27 30 30 27 25 29 31 28 21 21 28 9 4 4 12 19 27 28 28 26 28 28 27 26 27 26 25 24 21 22 21 20 20 21 21 21 20 19 18 18 18
25 24 24 26 28 28 26 28 31 30 25 22 26 24 4 14 5 3 17 26 28 30 29 29 28 29 28 27 26 25 24 23 24 24 23 22 22 22 21 21 20 19 19
22 22 22 25 26 26 26 25 25 30 30 27 28 22 17 23 14 5 5 8 22 31 32 30 29 28 29 28 27 26 23 23 23 25 27 26 25 25 24 23 22 22 22
24 22 24 27 26 27 30 28 29 30 31 28 25 25 25 16 13 8 3 7 15 21 29 31 30 30 31 29 28 24 22 22 21 21 25 28 28 28 28 26 26 25 26
23 23 25 25 26 28 29 30 32 32 34 35 32 28 28 23 26 21 14 5 8 7 13 22 26 28 27 29 28 26 24 23 23 23 23 23 26 28 30 31 31 31 30
24 24 23 23 26 27 29 32 33 33 32 34 34 32 26 22 27 28 20 11 2 2 7 11 25 24 23 22 23 25 24 23 24 25 26 27 27 27 28 29 31 32 33
24 22 22 24 25 26 29 32 31 32 34 36 35 33 29 25 10 22 27 21 11 3 6 10 8 20 29 27 25 24 25 25 26 28 28 28 29 30 32 32 33 34 37
22 19 20 20 20 22 24 27 27 29 33 31 32 29 29 26 15 15 17 18 13 8 3 7 8 9 6 2 7 12 22 19 23 27 31 34 33 29 31 30 28 31 32
20 19 20 18 16 18 21 21 22 28 32 28 30 30 23 23 21 18 17 16 13 11 5 6 10 10 10 11 12 15 18 20 23 25 27 30 31 31 32 34 36 37 38
19 19 18 17 17 17 15 20 24 25 32 27 30 29 20 18 23 25 23 18 15 11 7 9 12 15 17 21 21 20 19 17 18 20 23 27 28 30 30 31 33 35 36
15 14 12 14 15 15 15 15 21 26 25 29 29 29 24 21 24 20 15 12 12 11 12 14 13 13 19 19 19 21 22 23 21 18 19 22 24 25 25 26 26 21 22
15 14 14 13 13 13 13 13 19 22 26 23 27 28 25 26 25 18 17 17 16 16 18 17 19 17 17 18 18 20 21 13 8 6 10 7 4 2 2 3 6 6 6
13 11 11 11 11 12 12 12 15 19 21 19 20 23 23 24 25 21 19 17 16 18 18 16 16 13 12 8 6 6 4 2 3 5 3 2 2 3 4 6 7 9 9
14 13 12 10 10 8 13 14 17 17 18 20 20 17 13 13 15 19 20 19 18 17 14 11 6 3 3 3 3 4 5 1 3 1 3 2 4 5 6 6 9 8 9
17 16 15 15 16 14 13 18 20 22 23 22 20 18 15 15 15 15 16 13 10 7 10 10 7 4 4 3 4 2 1 1 1 7 2 4 5 6 5 5 6 4 5
22 21 20 18 18 17 17 21 25 25 24 21 18 16 15 16 14 15 17 19 18 15 14 14 13 11 6 2 1 3 4 5 6 7 4 3 5 2 1 1 2 3 4
26 25 24 21 20 19 19 22 26 27 26 23 18 16 18 18 14 16 19 23 24 24 21 21 21 19 16 12 7 4 5 12 3 7 7 3 5 3 3 8 9 9 8
29 27 31 27 22 20 17 20 24 29 32 30 27 21 19 19 17 16 20 22 25 19 18 18 18 18 17 20 18 15 11 12 8 3 9 2 3 1 1 1 6 7 7

GFSMA_925_spd_093.txt.gz
Wind_Speed
26 26 26 25 24 24 24 23 23 21 29 27 25 29 26 27 27 28 29 25 21 21 21 20 19 18 18 16 15 14 14 12 11 12 15 16 16 16 15 14 14 14 14
27 26 27 24 22 25 27 25 23 28 29 28 26 26 25 25 26 28 28 26 23 20 18 18 19 18 18 18 15 14 14 13 11 15 16 17 16 15 15 15 14 14 13
27 27 26 24 22 24 25 25 24 29 29 29 28 26 27 23 26 29 30 28 25 21 20 19 19 19 19 19 17 16 16 15 16 16 15 16 15 16 15 15 14 13 11
27 26 24 26 24 24 25 24 28 29 24 26 27 28 27 22 24 27 30 28 24 20 20 21 20 19 20 19 20 19 17 17 18 17 16 16 15 15 15 14 13 12 13
28 26 25 25 25 25 25 24 28 28 25 25 27 28 27 26 25 28 30 28 24 22 20 21 21 20 19 18 19 19 19 18 17 16 16 16 14 14 14 14 14 14 13
30 28 26 25 27 24 24 23 25 26 26 24 20 25 27 27 27 27 30 28 25 23 23 23 21 19 19 20 19 19 18 18 17 16 16 15 15 15 15 14 14 14 14
30 29 27 26 27 28 26 28 24 24 21 23 18 13 18 18 25 30 31 29 27 26 24 25 24 22 21 19 18 19 18 17 17 16 15 15 15 15 16 16 15 15 15
30 29 30 26 25 27 27 27 27 19 17 28 11 12 2 2 11 25 29 29 29 28 25 26 25 24 24 21 22 20 18 18 17 17 17 17 17 17 17 17 16 16 16
30 30 30 27 28 27 28 29 29 24 20 23 22 8 3 3 6 10 22 29 31 31 28 27 27 25 24 25 25 23 20 21 19 19 20 20 19 18 18 18 18 17 17
30 29 29 29 29 30 28 27 29 28 25 20 22 24 9 8 5 4 12 25 29 31 29 28 29 28 27 26 25 25 24 22 23 23 22 21 20 19 20 19 19 18 18
27 28 28 27 28 29 29 27 27 27 29 23 25 17 16 15 12 5 6 7 20 29 29 28 30 31 29 28 26 26 27 25 23 23 24 23 21 20 19 19 18 19 20
26 26 25 25 26 27 27 28 28 29 29 26 26 25 26 19 14 7 3 7 14 19 30 29 30 29 29 29 28 27 26 25 24 24 24 25 25 24 23 23 22 21 22
23 25 24 25 25 27 27 27 26 28 29 28 29 29 28 27 25 19 8 3 4 5 17 31 31 30 29 28 28 27 26 25 24 24 23 24 24 24 26 27 28 27 27
22 23 25 25 25 24 25 25 27 28 30 31 29 26 30 27 30 26 16 10 1 3 8 10 30 32 31 29 27 26 27 25 24 25 25 24 24 24 25 26 29 30 31
24 23 26 25 21 22 23 24 26 28 30 32 33 33 29 33 30 31 28 25 10 5 8 12 8 27 26 26 24 22 25 23 23 23 25 23 23 24 26 27 29 30 32
21 22 21 17 18 20 21 24 27 30 33 33 31 32 29 32 28 30 30 29 30 11 3 5 13 9 20 23 21 18 15 17 18 19 21 22 23 25 26 28 30 30 30
20 20 17 16 17 20 22 23 25 27 28 28 34 36 32 33 26 21 26 25 22 13 6 6 9 14 16 14 9 8 7 9 12 13 14 17 20 22 24 25 28 32 35
17 15 13 12 13 12 16 17 18 18 23 24 30 31 34 35 26 20 22 24 16 9 11 10 13 11 9 9 9 12 14 11 13 14 14 19 23 23 24 26 29 28 29
14 11 8 10 12 15 16 16 18 20 21 26 29 27 31 33 30 25 23 19 18 17 15 11 12 13 15 15 16 15 12 10 12 13 16 18 20 22 23 23 18 15 14
15 12 11 9 10 11 13 14 13 17 19 21 28 31 26 29 30 30 29 24 21 17 13 14 11 12 14 14 12 9 8 8 9 7 9 7 4 5 4 3 2 1 2
17 15 11 9 6 5 7 10 10 15 17 21 20 22 27 23 25 28 30 26 23 18 16 15 11 9 8 7 9 8 5 11 11 12 9 6 4 2 3 4 5 6 6
16 15 11 8 4 2 4 9 11 17 19 20 19 17 17 21 22 25 25 21 20 17 17 13 8 6 8 7 8 8 10 9 5 6 7 5 3 4 4 5 6 5 5
16 16 14 11 10 7 3 9 15 17 19 18 19 17 15 15 14 14 14 14 14 15 16 14 13 6 7 7 7 6 6 5 4 3 7 5 3 5 4 4 3 3 4
20 18 17 16 15 14 10 12 17 18 18 16 15 15 17 16 14 16 18 18 16 14 9 10 11 9 5 4 5 5 6 9 10 8 5 4 4 3 3 2 2 3 4
27 24 21 19 19 17 14 17 18 22 23 20 17 16 17 18 15 16 20 25 25 25 23 23 21 17 13 9 7 6 9 12 4 6 6 4 4 3 6 8 8 7 6
30 28 28 25 23 23 18 17 19 23 27 26 23 22 19 19 17 17 20 23 28 21 21 21 21 20 19 19 14 9 10 9 8 4 6 3 3 2 2 4 6 5 3

GFSMA_925_spd_096.txt.gz
Wind_Speed
26 25 24 24 25 26 24 26 26 26 27 27 28 30 29 26 26 28 27 28 24 25 24 23 21 19 19 18 16 15 14 12 10 10 12 12 14 14 14 14 13 14 13
28 26 25 25 25 26 26 26 25 23 24 25 26 27 25 24 25 26 28 28 24 21 22 22 20 19 18 17 15 14 13 13 12 9 13 15 14 15 14 13 14 14 13
28 26 26 26 26 26 25 24 22 21 22 25 26 26 25 25 23 23 30 28 23 21 19 20 20 21 20 17 16 14 14 13 12 13 15 16 15 14 14 13 12 13 13
28 27 25 26 25 23 22 26 22 20 24 25 26 24 27 24 20 19 28 28 26 24 20 18 19 20 19 17 17 15 15 14 13 15 16 15 15 14 14 13 13 12 11
28 27 25 25 24 25 25 25 23 21 22 23 24 24 23 25 25 20 26 30 29 26 21 20 19 20 20 18 17 19 16 15 16 16 15 15 14 14 14 13 12 12 12
30 26 24 24 25 26 26 26 23 25 24 22 19 19 24 29 28 25 22 28 30 25 21 22 21 21 21 18 16 18 17 16 16 15 16 16 15 15 14 14 14 12 12
31 29 26 24 26 27 27 28 22 24 19 22 15 14 14 24 27 28 26 24 26 24 22 21 21 21 19 17 19 18 18 17 17 18 17 16 16 16 16 14 14 13 13
32 32 29 27 27 26 27 27 25 17 17 26 10 13 3 2 14 24 27 28 27 25 23 23 23 23 21 21 21 18 19 19 18 18 18 17 18 17 16 16 15 14 14
35 33 30 29 28 27 28 29 29 25 17 25 24 8 3 3 4 10 24 31 30 27 25 24 25 25 25 23 22 20 21 20 19 19 19 18 18 17 16 16 15 15 15
34 31 31 29 28 29 27 29 29 29 22 18 22 20 9 14 3 2 11 23 27 27 26 25 27 26 26 25 24 26 24 19 21 20 20 20 20 17 17 17 16 15 16
27 32 33 31 29 28 27 29 29 30 31 21 24 15 14 13 10 3 4 5 20 26 26 27 28 28 28 26 25 26 25 24 22 24 23 21 19 18 17 18 17 15 15
34 35 33 32 28 28 28 28 27 28 28 27 25 22 22 11 9 5 3 10 13 17 27 30 31 30 29 28 27 27 26 25 24 22 23 24 23 21 20 20 19 18 18
33 35 33 30 26 26 25 26 27 27 28 28 28 28 25 25 19 20 15 12 6 6 16 31 30 30 28 29 28 28 26 25 25 24 24 23 23 24 26 25 23 22 21
28 29 30 28 24 23 23 23 26 26 27 29 26 27 26 28 29 29 21 17 4 3 7 9 32 30 29 28 28 26 26 25 25 23 23 24 24 25 25 25 25 25 25
25 24 26 24 24 26 24 26 22 23 26 28 27 31 31 30 33 30 27 29 12 5 6 13 11 30 32 31 30 28 25 24 25 23 23 23 24 24 24 24 24 25 25
21 21 24 24 27 24 24 21 21 24 25 28 28 32 32 29 31 32 30 29 23 13 4 18 17 15 28 30 29 27 24 21 19 20 21 21 22 23 23 23 23 23 23
21 23 24 26 23 21 20 19 21 22 24 25 26 28 31 34 33 32 31 31 27 20 5 4 14 12 19 26 25 21 17 12 12 15 16 16 17 17 16 17 20 21 20
21 23 22 20 18 18 17 17 20 20 24 25 28 31 34 34 35 36 32 32 29 25 12 13 13 14 17 16 14 16 12 10 12 13 15 15 16 18 17 16 17 19 21
19 17 16 14 14 12 10 13 15 15 19 24 26 30 32 35 32 32 33 31 27 24 19 19 14 19 16 13 10 9 10 14 13 12 14 15 15 16 15 15 15 15 18
18 16 14 13 12 11 8 9 11 12 15 17 19 28 29 33 33 33 32 32 33 26 22 19 17 16 18 15 13 10 14 14 12 10 8 7 6 5 4 4 2 2 2
21 18 16 12 8 5 4 7 7 10 12 10 13 19 26 31 35 38 36 34 33 26 23 19 12 10 13 11 16 15 15 20 14 12 10 7 6 5 6 7 7 7 7
19 17 13 11 8 5 1 5 6 8 11 13 14 14 16 24 30 32 30 28 28 26 21 17 15 14 16 17 17 17 18 11 5 13 11 9 7 9 9 8 8 8 6
20 19 16 13 12 9 4 3 9 11 13 13 14 15 15 14 24 26 26 28 28 25 23 21 23 14 16 15 15 14 16 8 7 11 13 10 9 11 9 9 6 5 5
24 21 18 16 16 15 10 9 13 14 15 13 13 12 15 15 15 19 20 19 17 12 9 10 16 12 10 11 11 11 13 15 16 10 10 5 8 7 5 6 5 5 6
28 27 24 22 22 19 14 15 17 20 22 21 17 15 15 16 15 18 23 27 26 28 26 25 22 18 13 12 11 11 17 17 5 4 5 5 5 8 7 9 8 6 6
28 28 29 28 25 25 19 18 19 23 27 27 24 23 20 18 17 19 25 28 32 25 26 28 26 25 21 18 11 9 12 11 10 5 5 4 9 6 5 7 6 4 2

GFSMA_925_spd_099.txt.gz
Wind_Speed
26 27 26 25 20 22 23 22 20 18 21 21 19 19 20 23 24 26 24 23 30 31 29 26 26 24 25 23 23 20 19 17 15 13 12 12 11 11 13 14 14 13 12
26 27 28 26 26 25 23 25 23 20 19 18 18 20 18 21 22 25 25 22 31 29 27 27 25 23 23 22 21 18 17 15 11 11 12 11 13 14 14 14 13 13 12
26 27 28 27 27 26 24 24 21 21 22 17 17 20 20 24 22 25 24 23 30 27 26 21 23 23 22 22 18 16 15 11 11 11 14 13 15 16 15 14 14 13 13
29 28 28 26 24 26 25 23 23 21 21 22 21 21 18 25 24 26 21 22 26 23 22 21 23 22 22 21 20 17 14 13 13 12 14 16 16 16 15 14 14 13 13
32 31 29 26 24 26 25 24 24 23 21 22 20 17 21 23 26 25 19 18 23 22 21 24 22 22 23 21 19 18 16 15 15 16 16 17 17 15 16 16 15 15 14
34 33 30 28 26 24 25 23 24 24 21 22 15 16 19 22 23 24 18 16 22 22 22 20 20 19 23 23 20 18 19 17 17 18 17 17 17 17 17 16 16 16 16
36 35 32 29 28 27 27 25 24 22 20 23 17 11 12 16 22 25 22 20 21 24 24 18 18 17 23 24 20 18 19 19 20 20 19 18 18 17 18 17 16 15 14
37 36 33 31 30 28 26 27 26 19 17 26 11 12 3 2 17 23 24 26 22 24 25 22 19 20 19 21 20 20 20 22 21 21 20 19 19 17 18 17 16 15 15
38 35 30 32 32 30 29 30 30 24 18 24 22 8 3 3 4 11 24 28 28 26 26 25 20 19 19 19 20 21 20 23 21 20 21 20 20 20 20 18 17 17 16
34 27 21 28 31 30 29 29 30 30 23 21 22 21 10 10 4 3 8 21 28 32 32 26 20 20 20 20 21 22 21 21 23 22 22 20 20 20 19 18 17 17 17
38 41 21 35 34 32 31 27 30 29 31 22 21 17 17 11 8 4 3 5 19 29 35 33 26 21 22 22 20 23 24 26 24 22 21 20 20 19 18 18 17 16 16
38 36 46 45 35 33 29 27 28 32 31 26 26 21 24 13 10 6 2 10 13 17 30 29 29 25 21 22 24 25 26 27 25 22 25 23 21 21 20 19 17 16 16
33 47 45 38 38 33 29 23 30 28 32 28 27 26 23 21 17 19 8 8 5 6 14 28 30 30 25 26 27 28 26 27 26 25 24 25 25 24 23 21 20 19 19
26 28 36 37 37 31 29 29 29 26 27 29 27 27 26 28 24 19 19 12 4 4 13 15 36 32 26 28 30 28 26 26 26 25 24 25 24 25 25 24 24 23 22
20 29 32 34 34 30 31 26 26 26 27 28 27 28 28 30 31 30 24 24 17 6 9 14 12 34 25 27 29 28 27 25 25 25 25 23 23 24 25 25 24 23 23
16 19 24 29 30 27 23 25 25 24 24 24 24 27 28 27 27 28 30 28 26 17 7 11 22 17 31 30 30 29 27 24 21 22 23 23 24 24 25 24 24 22 23
13 19 25 26 25 26 23 24 25 24 23 22 23 25 29 30 30 30 30 27 25 20 6 11 16 23 19 26 27 29 22 19 18 20 20 21 22 21 20 22 21 22 22
17 24 20 22 23 25 22 22 22 21 21 21 22 24 31 33 33 32 32 31 29 27 18 12 14 12 13 24 21 16 14 16 15 15 17 17 16 16 17 18 18 17 17
24 21 23 22 21 19 18 19 20 18 18 20 21 25 26 28 30 30 32 32 31 30 23 14 11 15 9 16 19 21 19 17 13 11 14 14 15 16 16 15 15 15 12
27 21 19 17 14 14 14 14 15 16 15 17 20 20 26 29 34 31 32 32 30 27 23 19 18 18 18 18 19 21 15 15 13 11 10 10 9 9 9 9 9 9 8
28 24 21 18 16 13 13 13 13 12 12 14 12 13 18 25 34 37 32 30 31 28 24 21 18 16 15 17 19 18 15 21 15 13 15 14 14 14 14 13 13 12 12
27 25 22 18 13 7 8 11 10 9 10 8 6 5 8 19 23 32 30 30 32 30 26 21 17 17 17 19 23 24 23 12 6 16 16 13 12 14 12 11 13 11 10
28 24 21 16 14 8 2 4 10 10 9 8 8 8 9 11 20 27 32 35 33 30 28 26 23 20 21 23 25 24 23 17 10 21 20 15 14 16 13 12 10 10 11
22 27 24 19 18 15 10 7 13 14 15 13 11 12 12 13 13 20 27 23 17 14 13 21 24 20 16 21 23 25 25 22 20 20 15 6 12 13 12 13 10 9 10
26 30 29 27 25 19 13 12 16 20 22 22 18 16 14 15 15 16 22 29 26 23 21 18 19 18 16 16 17 20 25 24 7 5 7 9 12 13 11 11 11 11 11
30 29 32 32 30 26 17 14 18 23 27 28 27 25 20 18 16 18 23 26 30 25 27 26 28 24 21 19 16 16 23 18 15 5 8 7 16 8 7 6 8 7 5

GFSMA_925_spd_102.txt.gz
Wind_Speed
21 20 20 21 21 20 22 20 19 19 19 19 19 17 18 18 18 16 15 17 18 24 25 26 30 29 29 28 28 27 25 22 20 18 17 15 14 14 14 14 13 13 12
23 22 22 21 22 21 21 20 19 18 18 18 18 17 18 18 18 17 19 16 17 23 27 33 32 29 28 28 26 26 25 22 20 18 16 14 13 12 13 15 14 14 13
24 24 22 22 21 19 18 17 16 16 16 16 18 17 18 17 18 19 20 23 21 17 29 31 34 30 28 28 26 23 22 20 17 15 15 14 13 15 15 15 15 14 13
27 26 22 23 22 22 19 19 20 19 19 18 17 17 19 19 19 19 23 27 28 16 30 32 26 25 27 26 25 23 21 20 16 14 16 16 16 18 17 16 16 16 15
32 28 25 21 22 27 20 20 20 20 16 18 17 16 17 19 19 16 25 22 21 17 24 30 27 24 20 24 25 24 23 21 17 16 17 17 20 19 18 17 17 16 15
35 30 25 24 25 26 19 19 18 19 18 16 14 13 15 13 13 14 19 21 16 20 29 27 26 21 24 25 25 22 23 20 17 18 19 20 21 20 20 19 18 17 16
35 32 28 26 28 27 23 22 17 20 18 17 13 10 8 12 14 15 16 19 18 21 12 20 23 21 25 27 26 24 23 20 19 19 22 20 21 21 20 19 18 18 17
34 34 31 30 29 25 25 23 20 17 15 23 8 8 3 3 11 16 17 22 22 15 15 14 19 20 21 24 25 25 23 21 20 21 22 21 20 21 21 20 19 18 17
33 33 32 31 27 25 25 22 22 21 15 22 20 8 3 4 3 8 19 16 20 20 19 22 19 16 17 19 22 25 25 25 23 24 22 21 21 20 19 20 20 18 17
36 36 37 37 32 28 25 24 24 22 20 20 19 24 12 8 5 3 9 21 22 26 27 25 28 23 19 19 21 23 26 25 24 25 24 23 22 21 20 21 20 19 17
40 38 38 37 40 36 31 26 24 26 25 22 23 18 16 12 10 3 3 7 19 26 27 30 28 29 25 21 21 21 27 25 25 25 24 25 23 22 22 22 20 19 17
36 39 37 34 33 30 31 33 31 27 26 24 26 21 23 13 14 8 3 9 12 14 25 29 33 32 29 25 23 23 26 27 26 26 25 25 23 22 21 20 18 17 16
28 35 37 36 39 37 33 34 29 29 28 28 26 25 26 24 18 19 11 7 4 6 12 28 33 31 30 28 25 24 25 29 26 27 25 25 24 22 22 20 19 18 17
29 27 36 41 32 39 29 29 29 28 27 29 28 28 25 26 25 23 17 9 5 5 6 8 30 37 32 31 27 26 25 27 28 29 27 25 26 25 24 24 24 22 21
26 25 26 25 24 22 29 32 30 26 24 29 29 30 28 26 26 28 26 17 14 5 8 15 12 35 36 34 33 29 26 27 29 28 29 27 26 26 26 27 26 25 23
22 22 22 21 24 30 31 31 24 24 26 27 26 27 26 25 24 27 28 27 22 13 6 20 23 26 39 30 30 29 25 27 26 27 27 27 26 26 26 26 27 26 26
25 28 25 23 25 23 25 23 23 23 23 25 25 26 27 27 26 26 26 26 24 23 8 7 21 23 35 33 26 28 21 19 22 27 26 27 27 26 26 26 28 27 27
27 29 35 28 18 22 20 20 21 20 24 25 23 25 26 27 27 26 25 24 24 23 18 14 17 20 25 37 32 24 23 20 23 21 25 26 27 26 24 24 23 24 24
24 23 23 27 27 21 20 22 24 25 25 24 25 24 24 25 26 26 29 27 27 26 25 19 14 21 23 26 28 20 26 21 16 13 18 20 20 20 21 19 18 18 18
16 18 19 23 25 23 21 23 23 21 21 18 18 19 20 21 25 27 29 30 29 27 26 21 19 20 19 24 31 31 21 19 18 16 18 17 16 15 15 15 14 14 13
15 19 24 26 26 24 19 18 19 18 16 15 17 20 20 23 27 30 30 29 29 30 28 25 19 18 20 23 24 19 21 21 17 19 22 18 17 16 16 16 16 16 16
12 19 24 22 20 15 14 18 16 13 14 13 13 11 11 14 21 29 33 31 34 31 27 23 22 19 21 25 21 26 28 15 6 17 22 17 16 15 14 13 15 16 15
24 18 19 23 19 12 8 10 14 12 11 9 6 4 4 5 7 12 27 27 29 29 27 27 21 22 22 31 29 28 23 18 11 26 24 18 16 18 16 15 14 15 15
32 31 28 23 22 17 12 11 13 12 12 10 8 6 4 4 5 12 21 21 17 18 20 26 23 23 24 33 33 29 31 23 22 29 20 7 17 21 19 15 12 13 14
32 34 32 23 29 23 15 16 16 18 18 18 15 12 9 8 8 13 20 26 25 24 21 19 23 20 17 23 24 26 27 28 8 11 11 11 17 21 18 17 16 15 13
32 33 37 29 32 29 21 20 19 21 23 21 21 20 17 14 11 12 18 21 27 19 22 23 24 20 17 18 16 18 24 21 17 6 15 8 24 13 6 11 15 12 11

GFSMA_925_spd_105.txt.gz
Wind_Speed
22 22 21 22 21 21 22 23 23 24 22 21 21 18 18 18 18 13 15 13 17 22 23 25 24 27 27 29 29 30 29 28 25 23 21 19 18 16 14 13 12 11 13
23 21 22 23 22 21 22 22 22 18 21 20 19 19 19 18 16 14 14 12 16 18 25 26 25 27 30 31 31 31 31 28 25 24 22 20 18 16 15 15 12 15 14
28 24 24 20 21 19 23 23 18 21 18 17 18 19 18 18 16 14 17 15 12 19 23 26 27 37 34 32 31 31 30 28 26 25 22 20 18 16 17 16 16 16 16
31 29 24 25 23 21 18 21 22 20 20 17 16 17 18 18 16 15 16 15 13 12 18 27 26 29 37 36 33 30 30 28 25 22 21 20 16 15 17 18 18 17 16
31 31 28 26 24 23 19 22 20 19 17 17 15 15 16 16 15 15 15 15 14 13 11 17 20 39 24 34 32 30 28 27 24 22 21 20 18 18 19 19 19 17 17
33 33 29 28 26 27 23 24 23 20 18 18 16 13 13 14 12 14 15 13 13 16 14 15 21 16 30 27 30 30 27 28 26 22 20 19 19 20 21 20 20 19 17
31 32 30 29 30 30 27 26 24 20 19 15 10 9 11 12 14 13 13 12 13 17 10 17 25 27 30 29 30 29 27 27 25 22 20 20 20 22 21 21 20 19 18
28 33 32 30 31 29 27 27 24 18 15 21 8 7 2 5 10 14 12 12 13 21 17 10 30 39 30 33 31 30 28 28 25 24 19 20 20 22 21 21 20 19 18
35 37 33 34 33 31 31 30 26 24 19 21 18 7 3 4 3 9 16 14 16 17 18 11 16 37 27 28 29 30 28 30 26 25 20 23 22 22 22 22 20 18 18
33 35 38 39 32 31 30 32 28 25 22 20 22 24 16 4 5 2 7 15 17 17 19 22 19 14 18 23 26 29 31 29 28 26 23 24 24 21 23 21 21 20 18
32 35 38 37 33 30 30 27 22 26 26 22 24 16 22 13 14 5 4 8 16 21 21 26 26 23 24 19 21 27 28 32 30 26 26 25 26 23 22 21 22 20 19
31 33 33 34 35 35 35 37 21 33 31 28 26 23 20 12 12 12 7 7 11 13 21 22 26 29 27 31 22 20 27 30 31 27 27 26 26 25 22 21 22 21 21
26 31 35 36 38 40 42 39 27 41 35 29 28 27 24 23 20 19 15 7 3 5 12 27 28 26 25 30 33 27 24 28 30 30 29 26 27 25 23 22 22 20 19
25 27 36 36 37 33 26 26 28 33 29 28 26 24 24 25 21 19 15 12 4 2 6 10 28 30 32 31 30 31 25 28 30 30 29 29 27 26 25 23 21 21 20
23 28 30 33 29 28 27 26 27 31 31 30 25 26 22 22 22 21 20 18 11 4 7 13 12 30 31 32 35 32 27 27 29 31 31 30 28 27 27 25 25 24 23
25 27 30 34 30 26 26 26 28 28 31 27 22 22 21 21 21 22 24 24 21 14 4 17 22 18 35 33 38 34 31 26 28 32 32 31 29 28 28 28 27 26 25
26 25 26 26 30 33 32 25 21 25 25 20 18 18 21 21 23 22 24 21 23 21 8 12 19 18 27 31 31 37 33 29 29 33 34 32 31 29 28 28 27 27 27
24 24 23 25 27 29 26 28 19 14 25 20 19 19 22 23 24 22 22 25 25 26 25 14 19 19 24 34 32 36 33 27 26 31 32 32 31 30 28 28 28 29 29
18 21 22 24 27 28 30 30 26 47 39 26 20 21 22 19 21 22 23 23 24 22 22 14 13 22 25 31 29 26 26 25 24 24 30 30 30 30 29 28 29 28 28
18 23 23 20 20 23 26 30 28 27 22 19 21 22 22 23 24 23 24 26 25 22 23 21 18 20 26 32 27 30 21 22 22 17 18 21 24 25 24 24 23 23 23
11 6 13 16 18 20 20 21 23 22 20 19 14 11 14 14 15 17 17 24 26 24 24 22 17 16 19 23 25 22 22 25 18 22 24 21 22 22 20 20 21 19 21
24 19 13 9 13 10 17 20 19 16 14 14 12 10 11 17 21 25 28 31 27 29 25 23 23 20 21 28 26 28 29 15 5 18 24 20 20 22 21 18 19 20 17
28 32 29 17 13 10 8 17 18 16 12 9 6 5 7 11 12 14 14 17 25 32 31 28 27 28 26 30 31 32 29 25 11 31 27 17 17 19 17 20 18 20 19
33 32 34 31 24 21 13 17 18 17 15 11 7 3 2 5 7 9 8 7 6 9 17 22 21 24 26 30 40 35 32 24 22 29 21 7 20 21 21 18 18 19 17
31 31 34 36 25 34 21 16 23 22 21 19 15 10 5 3 1 6 11 16 18 19 16 17 20 21 25 29 33 35 32 29 8 12 13 11 18 24 19 17 16 15 16
29 30 33 38 30 38 32 21 25 25 27 23 21 20 20 9 4 7 13 17 22 17 18 19 21 20 19 22 28 31 40 27 17 5 16 10 26 16 7 18 20 17 15

GFSMA_925_spd_108.txt.gz
Wind_Speed
24 24 23 23 27 22 23 24 23 22 23 23 22 21 19 19 21 17 16 13 14 15 18 18 22 23 23 25 28 29 31 30 28 26 26 24 22 20 18 16 13 13 15
27 26 26 26 23 24 23 24 23 24 24 23 23 22 22 19 19 19 13 14 13 11 17 19 21 23 24 27 29 31 32 31 29 27 26 24 21 20 18 16 16 14 18
24 24 25 25 26 23 25 27 24 22 22 20 19 18 20 21 20 18 18 13 9 10 14 20 23 24 29 32 34 33 34 33 30 28 26 24 22 20 19 18 17 15 18
37 26 27 27 23 24 28 29 30 23 22 19 19 18 19 19 20 19 15 18 14 10 13 17 25 24 25 27 41 34 35 34 31 29 27 25 23 21 19 19 18 17 19
31 36 33 30 37 31 20 26 28 25 20 19 19 19 19 19 18 18 15 14 16 19 17 17 23 28 31 33 35 35 34 33 32 29 27 26 23 20 19 20 19 20 20
33 33 33 31 35 33 29 28 25 24 21 22 18 16 18 17 16 16 15 13 16 18 18 17 17 26 23 29 28 30 34 34 31 29 27 27 24 19 17 21 21 21 21
33 34 34 34 31 30 31 29 28 27 22 19 14 9 11 13 11 15 17 17 19 17 21 17 19 23 26 34 36 34 35 33 32 30 28 27 23 20 20 22 22 21 21
34 34 35 34 33 32 33 31 32 24 20 27 13 7 2 5 17 15 16 18 17 17 20 16 15 22 25 34 33 35 36 32 31 29 29 27 23 22 24 24 23 22 21
39 34 36 36 36 30 17 30 29 29 22 24 25 8 3 4 3 14 20 18 18 20 19 19 14 19 24 29 28 29 32 32 33 31 29 26 23 22 26 26 24 24 22
39 39 42 39 36 36 36 29 28 26 24 21 21 26 11 7 4 2 9 21 21 22 20 22 18 14 28 25 26 32 34 32 32 31 29 26 26 24 26 26 26 24 22
41 40 41 39 40 36 35 34 28 27 27 23 21 15 20 18 16 3 3 5 18 22 24 24 19 25 14 19 33 34 38 36 34 32 30 28 27 26 26 27 27 25 23
33 40 41 37 37 35 34 38 39 34 38 31 30 25 19 17 12 6 2 4 9 14 22 21 21 21 23 17 24 29 31 36 35 34 32 30 26 29 26 28 27 25 25
30 30 36 37 37 34 40 38 37 39 34 34 28 29 31 27 23 20 14 3 3 4 10 20 22 25 24 24 27 26 31 33 36 35 35 30 27 30 30 28 26 26 25
30 24 43 36 36 37 36 40 40 34 37 30 27 26 28 24 29 23 19 8 3 2 6 7 24 26 32 33 34 34 30 33 34 37 35 31 31 31 32 29 26 24 26
37 26 30 30 30 36 36 35 26 28 31 32 35 22 33 30 30 26 21 20 10 4 7 14 14 29 31 31 33 32 40 35 36 36 38 34 34 32 31 31 27 24 27
34 26 25 27 32 35 35 36 30 28 30 27 27 27 34 27 27 26 22 22 21 12 4 19 22 19 30 32 33 33 36 39 37 41 37 36 36 33 32 31 29 27 26
26 28 29 32 31 33 33 33 32 30 30 28 29 29 31 29 26 27 25 22 23 20 7 10 20 21 22 29 30 33 36 37 37 38 35 37 35 34 32 31 30 29 28
16 27 30 27 33 33 32 32 29 30 30 29 20 23 25 25 25 27 28 24 22 22 16 11 19 19 25 26 32 36 33 32 33 32 33 33 32 33 32 31 31 30 29
21 16 26 26 24 30 30 32 31 33 34 26 20 24 25 27 26 25 24 23 23 21 22 15 14 24 22 27 30 29 28 28 27 29 30 31 34 35 35 32 31 30 30
26 20 14 18 18 24 29 29 29 28 28 26 24 29 23 24 21 21 24 22 21 21 22 20 16 19 22 25 28 30 23 26 27 25 31 32 36 35 33 33 32 31 30
29 24 21 13 7 9 11 22 21 28 30 28 7 13 16 17 19 15 16 19 22 21 19 19 14 15 15 14 23 22 18 26 21 23 26 24 26 24 23 26 28 28 29
35 30 29 27 21 18 6 17 21 20 18 18 14 10 10 12 13 14 14 15 15 15 22 22 22 18 22 24 23 31 28 17 4 20 23 22 23 24 23 22 25 27 28
34 37 37 34 37 29 20 11 19 21 19 17 16 12 9 5 5 6 8 11 13 20 28 25 20 25 24 27 32 28 31 27 12 32 28 16 19 21 18 19 20 25 26
35 35 36 35 33 38 28 21 16 24 22 17 12 9 6 3 0 4 6 5 2 6 10 17 27 25 25 33 46 40 34 24 23 30 23 8 19 21 20 18 19 20 21
34 37 37 38 38 38 35 27 22 24 28 26 22 16 11 8 5 4 7 9 7 8 7 11 13 18 24 27 37 34 30 30 7 13 13 12 18 24 19 19 17 19 18
29 31 39 42 40 42 41 32 23 26 27 24 28 29 28 18 9 6 10 11 13 9 7 7 12 16 20 29 31 34 42 27 15 5 17 11 30 19 8 16 19 18 19

GFSMA_925_spd_111.txt.gz
Wind_Speed
28 28 28 27 28 29 30 30 29 27 26 26 24 23 21 18 14 15 16 16 15 14 15 17 20 21 23 25 22 29 32 32 32 30 30 29 27 25 22 18 16 14 13
29 29 30 33 30 33 33 31 32 29 28 26 26 24 24 22 17 17 16 15 14 14 14 16 19 20 24 26 22 35 36 34 33 32 31 30 27 24 21 19 16 14 14
31 31 32 32 35 33 34 31 29 30 30 27 27 26 24 21 18 17 16 14 14 14 12 13 19 21 24 25 24 22 38 36 34 33 32 31 28 25 22 19 17 16 15
32 29 33 34 35 34 36 35 32 31 34 32 27 25 23 21 19 18 17 17 16 14 13 14 18 22 22 23 24 23 27 33 34 34 33 31 28 26 23 20 19 17 16
34 37 36 33 29 26 36 40 39 37 33 31 30 26 22 19 20 19 18 18 18 17 18 17 15 24 25 25 26 28 30 33 35 35 33 32 29 27 24 22 21 20 16
30 35 38 42 39 35 28 37 40 40 36 34 27 24 22 20 20 20 20 21 21 20 19 20 22 22 29 28 28 25 26 35 38 36 34 32 30 28 24 21 23 21 20
29 36 42 43 41 43 36 37 36 34 30 31 22 15 14 18 19 19 20 21 22 20 21 23 22 20 27 31 33 33 32 35 37 37 35 33 31 29 23 18 21 22 22
29 29 40 37 36 40 36 35 38 23 19 31 12 10 2 4 16 19 20 21 22 22 22 22 23 22 25 32 34 34 38 32 37 39 36 34 31 29 26 21 24 25 24
28 28 33 39 36 39 38 34 25 21 15 18 17 8 2 4 3 14 23 24 25 23 23 22 24 23 23 30 35 39 39 44 39 41 37 35 32 29 27 24 24 26 26
38 34 29 39 42 39 39 39 40 24 31 31 15 26 9 7 3 3 7 23 27 26 24 23 24 23 21 25 31 39 39 34 46 40 37 34 31 30 29 26 26 27 28
36 32 33 31 42 40 40 43 38 31 39 34 23 35 27 13 10 3 3 5 20 27 27 27 25 25 24 25 23 24 26 30 30 32 35 32 32 30 31 26 28 29 29
34 34 31 31 34 42 40 40 40 39 37 33 37 37 32 22 14 5 3 3 9 15 26 28 26 27 26 26 31 25 28 27 28 31 34 34 30 30 32 27 29 29 29
31 32 29 36 30 37 37 37 37 40 41 40 39 34 32 30 22 22 13 5 3 8 13 26 26 29 29 26 20 20 28 31 32 35 37 34 32 32 33 30 29 30 30
34 36 35 34 35 30 34 36 39 42 43 37 33 32 31 31 30 31 24 10 3 3 12 8 24 29 32 31 25 21 22 31 36 38 39 36 34 33 32 34 30 31 30
33 37 37 35 34 38 32 36 39 43 43 45 38 30 26 29 36 35 30 28 12 6 8 15 11 28 32 32 31 28 31 30 32 40 39 38 36 34 31 35 33 30 29
32 29 26 32 34 40 38 39 40 36 36 31 37 27 29 31 35 37 35 26 26 12 5 20 23 18 28 32 34 32 32 32 32 37 40 40 38 36 33 35 36 32 29
30 27 23 30 33 37 33 38 35 32 32 33 36 40 41 39 37 27 31 30 26 23 6 11 23 25 23 29 30 32 33 35 36 41 42 41 40 38 36 36 37 35 31
30 28 23 21 27 30 31 36 29 29 31 32 37 39 42 39 37 30 25 29 25 27 16 9 18 21 23 29 30 31 33 35 34 35 41 41 41 40 38 37 37 36 34
33 33 25 21 15 14 29 32 31 31 29 32 34 34 31 25 25 24 25 27 27 26 24 15 13 21 24 26 26 28 27 31 32 35 40 42 40 39 39 39 37 37 36
35 36 32 26 22 16 0 7 26 26 26 26 27 29 21 18 27 26 24 27 24 21 22 19 14 15 20 23 29 27 23 27 30 33 37 40 38 37 37 37 34 34 34
35 32 30 31 28 32 24 10 13 18 25 22 18 19 16 21 17 25 24 24 26 24 18 17 15 14 16 14 24 21 17 27 22 26 27 30 36 38 38 35 35 33 36
34 34 34 34 36 30 32 14 8 23 18 18 15 13 16 22 22 20 18 22 23 22 19 14 15 13 19 19 22 26 21 10 3 22 28 21 24 29 31 35 36 34 36
34 36 37 36 38 40 36 25 29 22 21 20 19 17 14 12 14 15 16 15 17 18 19 16 14 19 20 26 28 28 30 26 17 28 28 13 20 23 23 23 29 29 31
33 38 40 39 39 44 39 33 26 40 31 28 17 14 11 10 10 11 12 10 8 6 8 14 19 26 22 26 39 41 34 20 17 30 25 7 19 22 22 20 24 28 29
35 36 34 40 42 47 46 35 31 39 26 37 33 27 13 11 8 12 12 13 11 7 3 4 11 16 23 26 35 31 28 27 5 13 16 11 17 25 22 20 19 21 21
31 32 35 39 36 40 48 42 38 32 32 34 32 30 29 22 11 11 14 13 13 7 5 6 6 6 7 20 28 30 40 28 12 4 19 10 30 18 7 15 19 20 20

GFSMA_925_spd_114.txt.gz
Wind_Speed
28 29 29 29 30 31 32 33 33 32 30 27 25 24 22 20 17 16 20 21 22 23 22 22 23 24 25 25 24 27 28 26 26 30 31 31 30 30 27 26 22 19 16
31 32 32 32 32 32 33 34 35 35 34 30 28 27 26 23 20 18 17 19 21 19 24 22 22 23 25 27 27 30 30 29 36 34 33 32 32 29 28 25 22 19 17
33 34 35 37 36 35 34 33 34 34 35 33 32 30 28 25 23 21 19 21 20 21 23 22 21 22 24 27 29 33 28 30 33 37 35 35 33 32 28 25 22 19 17
33 36 36 37 36 35 37 36 36 35 34 34 33 30 28 26 26 26 23 21 23 22 23 22 20 21 24 25 29 30 26 28 37 40 38 37 35 33 29 26 23 20 17
20 32 34 34 32 39 37 38 36 36 33 34 34 32 29 28 27 25 25 23 23 24 24 22 19 19 24 26 26 27 28 26 33 42 39 38 36 33 30 27 24 21 18
16 18 30 36 36 38 37 37 33 36 35 36 32 32 29 29 27 26 26 24 23 25 26 24 22 20 21 27 27 26 28 29 37 40 39 39 38 35 31 28 25 22 19
19 18 20 26 34 37 40 42 37 28 29 34 22 21 27 28 27 28 26 26 26 26 26 25 24 23 24 26 30 30 31 31 39 42 40 39 38 36 33 30 26 21 19
24 24 21 19 25 32 35 32 35 32 31 31 19 11 4 6 21 25 24 26 29 28 28 26 26 25 25 24 31 32 31 33 40 39 41 43 40 38 34 32 26 20 25
27 27 29 27 24 23 32 32 35 37 30 16 16 5 5 3 1 10 23 30 31 30 27 27 26 26 25 25 25 32 37 35 39 40 46 45 43 39 36 34 30 24 26
29 28 27 29 28 30 27 32 34 34 31 21 14 12 18 8 3 2 9 26 30 32 30 30 29 28 26 26 26 30 39 41 39 40 49 48 44 41 38 35 33 25 26
26 28 28 27 28 31 33 30 31 32 34 29 25 18 24 30 23 4 4 6 22 28 33 33 32 31 27 29 27 28 31 37 41 43 32 52 46 41 37 36 32 27 27
24 24 25 27 27 27 32 30 36 35 38 38 31 26 25 24 18 7 3 5 12 18 26 32 33 31 29 28 29 27 23 32 38 48 35 46 45 40 38 36 33 28 28
26 30 30 30 30 31 30 27 35 37 35 32 31 32 35 33 22 27 14 4 3 11 17 26 34 32 30 26 30 29 28 28 29 41 39 46 44 40 39 35 34 31 29
27 31 31 30 35 36 34 32 32 35 33 36 33 30 34 39 33 29 26 9 2 5 11 8 27 31 32 29 30 24 25 31 29 21 24 41 37 37 37 35 35 33 30
28 31 35 35 36 33 32 32 30 35 36 39 37 43 40 36 37 37 32 27 14 6 10 16 12 27 31 29 33 30 25 26 28 28 27 28 31 36 36 36 37 34 31
31 34 35 34 34 32 34 33 31 31 32 37 39 38 37 33 36 34 33 32 30 11 4 20 26 17 27 30 34 33 30 26 30 31 34 34 37 40 39 36 38 38 33
31 30 33 33 30 31 29 32 32 29 31 32 30 34 37 39 35 31 29 29 27 26 9 12 24 28 20 27 27 35 35 31 30 31 33 39 41 41 40 38 38 39 37
29 29 30 31 27 29 23 27 33 29 28 29 31 33 37 33 33 30 26 22 26 27 19 5 19 22 23 27 27 30 33 35 35 35 34 34 40 43 42 41 39 40 40
30 31 30 30 31 30 25 13 19 24 28 31 33 35 36 31 24 22 22 22 22 26 27 20 12 17 23 22 24 26 29 32 36 39 35 37 39 45 46 43 40 39 42
31 32 31 30 30 30 29 23 12 13 13 28 32 37 32 33 24 21 24 25 31 33 26 21 17 15 17 20 24 23 22 29 32 31 33 33 35 40 42 40 42 40 41
33 33 32 31 34 28 33 28 14 13 23 33 24 25 27 31 31 38 32 33 33 29 24 19 12 11 14 12 21 17 18 25 26 28 28 27 29 36 42 44 42 41 41
33 34 36 34 35 34 34 33 13 13 11 18 13 18 11 20 23 29 31 27 29 24 18 16 15 14 18 17 20 22 19 8 3 23 26 24 25 32 37 41 42 42 40
35 34 35 35 38 40 38 35 33 31 32 29 29 14 10 8 12 17 22 26 23 25 26 23 19 18 18 24 25 22 27 21 15 21 28 10 14 18 23 32 39 39 36
31 32 36 37 38 47 45 36 35 37 37 39 40 31 20 13 7 3 14 21 18 14 16 16 18 17 19 23 26 34 33 21 14 21 24 5 13 11 14 16 21 32 36
31 32 34 38 38 39 46 44 35 30 32 37 38 36 35 26 18 6 4 12 18 14 8 9 10 12 17 23 23 23 26 21 4 9 18 11 14 16 16 16 19 26 29
29 30 32 36 35 37 44 44 38 33 33 28 31 36 36 32 29 16 8 4 8 11 8 6 4 1 5 11 17 25 33 22 9 4 20 12 24 13 6 13 18 22 25

GFSMA_925_spd_117.txt.gz
Wind_Speed
25 25 26 27 30 30 30 30 30 31 30 28 26 25 24 23 22 23 23 22 21 22 21 21 21 20 21 23 24 25 26 28 29 27 29 30 30 29 28 25 23 22 19
28 28 28 27 30 30 31 32 33 33 33 32 30 29 27 26 25 24 23 25 25 25 25 24 22 21 23 25 26 27 28 29 29 28 32 32 31 31 31 28 25 23 19
30 31 30 32 33 32 32 31 32 31 31 33 35 34 32 31 29 27 26 24 26 27 27 28 27 24 25 26 27 29 29 29 29 30 33 33 33 33 32 29 27 23 20
13 18 33 35 36 36 32 31 32 30 29 28 29 35 36 34 32 31 30 29 28 27 27 26 27 26 25 26 29 29 31 30 33 33 34 36 35 35 33 30 28 24 21
12 15 17 24 33 35 33 24 30 31 24 28 28 27 35 36 33 33 35 33 30 29 29 28 29 27 25 26 27 27 30 34 33 34 37 38 38 38 35 33 29 25 22
13 14 14 14 16 24 25 32 41 30 21 31 27 25 31 34 33 34 35 35 33 30 29 30 29 27 24 22 26 27 27 33 33 34 39 35 42 40 37 35 31 27 24
17 19 19 19 15 15 21 23 29 29 25 34 19 16 19 27 28 32 35 35 34 31 30 30 30 27 26 23 24 28 29 29 33 36 35 44 43 43 40 36 33 30 26
21 20 20 21 20 20 17 18 24 22 23 30 20 12 5 10 19 24 27 32 33 30 31 31 32 28 26 26 26 28 32 31 32 33 34 43 45 42 42 39 36 33 29
24 22 21 20 21 19 21 21 18 24 20 19 27 11 2 4 4 17 25 30 31 29 32 33 35 32 29 29 28 29 34 36 33 38 36 45 45 42 44 42 39 36 30
25 26 24 22 21 20 20 24 24 22 24 17 14 24 20 10 3 2 8 18 36 31 35 35 36 35 31 30 29 30 30 37 37 36 39 46 47 46 45 45 41 38 34
24 24 25 23 21 19 19 20 24 26 27 26 23 12 13 16 13 3 4 5 18 35 41 39 39 39 37 33 30 30 31 32 38 41 39 44 43 46 48 48 44 40 36
24 24 25 25 26 26 24 22 23 27 28 32 30 30 23 11 9 5 4 6 13 24 30 35 43 42 39 37 33 31 32 33 35 43 46 46 46 52 54 51 47 42 38
21 23 26 28 28 27 27 28 28 28 27 32 34 31 34 32 26 25 17 8 9 16 17 29 37 40 41 38 36 33 33 33 30 32 42 50 47 57 56 52 48 44 38
23 24 25 26 28 27 28 29 29 27 29 30 33 36 33 32 32 30 29 17 8 6 11 12 28 31 40 39 37 33 32 35 35 31 33 36 43 37 55 54 47 43 39
23 25 26 25 27 27 26 29 28 28 27 30 32 35 37 34 34 33 33 33 18 9 9 14 16 30 32 37 37 34 33 36 33 33 31 25 42 41 53 46 46 42 39
25 25 27 28 27 27 26 28 29 29 28 28 31 31 33 29 30 31 30 32 32 19 8 23 25 20 29 33 34 33 34 33 28 29 29 24 28 45 47 47 44 43 39
26 26 27 26 26 28 28 30 30 26 27 28 28 30 33 33 31 30 32 32 27 22 10 10 23 28 26 25 29 32 32 34 28 26 28 25 23 27 36 41 41 39 38
28 27 27 26 28 28 30 30 31 26 25 26 29 31 34 27 31 31 31 29 28 30 21 9 20 24 26 28 28 30 29 31 30 28 31 31 33 35 35 36 39 41 39
29 30 30 30 31 30 32 34 33 31 24 25 29 28 32 27 28 27 29 29 28 29 29 19 13 17 23 22 24 25 24 27 31 34 29 29 32 36 38 41 42 48 42
29 30 31 32 34 30 35 37 35 27 25 21 17 25 29 29 31 31 29 26 27 23 22 20 15 15 19 21 23 21 22 27 30 33 34 33 33 35 39 42 46 49 46
30 31 33 33 36 35 39 41 33 28 26 19 9 10 13 24 34 34 31 27 27 23 18 20 16 15 14 13 22 19 16 23 27 31 32 33 35 34 36 40 44 52 52
32 34 36 35 37 40 47 44 39 32 30 27 27 18 14 16 11 36 33 29 31 27 19 19 20 13 22 25 22 22 17 9 3 23 24 25 23 25 27 30 34 36 42
31 34 37 36 36 44 51 46 40 34 32 32 33 32 27 26 21 8 21 23 24 30 34 30 27 26 21 27 26 26 25 20 12 19 26 16 20 21 24 28 32 34 40
30 29 34 37 37 43 50 49 41 37 34 33 35 36 31 34 29 16 4 6 4 1 7 26 32 25 26 27 30 29 32 24 15 16 24 6 13 12 17 21 27 32 38
30 32 34 37 39 40 48 49 44 37 34 34 36 40 40 35 29 22 14 15 10 14 13 9 13 19 19 22 21 21 24 16 2 9 23 14 11 10 8 9 14 21 27
30 28 31 35 36 39 43 44 41 34 34 33 33 35 41 41 39 33 24 22 19 19 16 11 7 9 8 9 11 19 23 18 8 3 20 16 15 11 3 7 8 11 17

GFSMA_925_spd_120.txt.gz
Wind_Speed
19 19 20 20 22 24 29 29 29 30 30 29 27 26 25 25 25 25 25 24 23 23 23 22 21 20 21 21 24 24 25 27 28 26 26 26 28 28 29 28 26 23 21
16 16 18 20 23 23 24 30 32 31 28 27 30 30 28 28 27 27 27 27 26 25 25 26 24 21 21 22 23 24 26 26 28 28 27 29 30 30 30 31 28 26 23
14 10 16 24 23 23 25 28 31 31 29 25 25 28 31 30 29 29 29 29 28 28 27 27 27 25 24 24 23 24 26 27 27 28 30 31 32 32 33 32 30 28 25
8 12 10 8 18 28 29 30 29 27 30 28 27 28 29 33 34 33 31 31 30 29 28 29 28 29 27 24 24 24 26 27 28 28 32 34 34 34 35 35 32 29 26
5 8 12 16 18 12 23 31 31 27 25 24 26 24 30 30 33 35 36 35 31 28 26 26 29 29 30 28 26 26 26 28 30 30 33 34 36 36 39 37 34 32 28
8 8 9 10 10 12 17 17 25 32 27 21 23 19 29 25 29 32 33 34 33 30 28 27 26 29 29 29 28 27 27 27 30 32 35 35 38 37 39 39 36 34 30
10 12 12 12 11 11 13 13 16 23 27 30 18 18 27 21 19 29 28 31 35 31 27 28 28 28 31 31 29 28 28 27 28 32 35 35 36 40 43 39 38 36 32
11 12 14 14 12 13 14 14 11 13 20 25 18 15 7 18 28 34 25 27 36 26 30 31 32 32 33 34 32 30 29 29 29 30 35 36 36 42 42 43 42 39 34
14 14 14 15 14 13 13 15 15 17 12 14 24 10 2 4 6 21 34 33 36 39 37 28 31 34 37 37 34 33 30 31 31 32 31 35 38 41 45 45 43 41 37
16 14 13 13 14 14 14 14 15 17 17 15 15 28 29 4 3 2 9 29 36 38 35 39 38 40 40 39 40 38 33 33 33 35 33 35 35 35 43 45 44 43 40
18 17 16 15 16 14 15 15 16 16 18 20 20 13 21 22 16 3 3 6 23 35 42 44 44 47 48 42 44 43 36 35 33 36 38 36 37 41 47 50 45 45 43
18 19 19 19 19 16 16 17 18 20 20 21 24 23 23 10 7 6 2 3 12 22 40 45 41 37 42 44 47 46 39 37 35 34 39 40 38 38 48 52 48 48 47
21 22 23 23 21 21 20 20 20 22 22 24 26 27 28 30 26 26 21 5 4 16 20 35 35 33 38 46 45 48 42 37 35 34 35 39 41 40 43 51 51 51 52
21 23 24 23 21 22 23 21 21 23 23 26 27 34 31 31 29 28 24 16 5 5 14 15 29 32 37 44 47 48 42 37 36 34 36 36 41 43 43 44 52 54 55
20 21 20 21 21 21 23 20 21 22 24 25 30 30 31 30 29 31 31 28 17 10 10 18 21 32 39 40 44 46 41 40 36 35 37 34 33 37 49 53 50 59 58
23 23 23 22 21 22 20 23 22 24 23 24 27 28 29 29 30 32 30 29 27 21 12 20 27 29 35 35 36 37 43 42 34 37 36 36 34 35 40 44 53 59 62
23 23 24 24 23 22 24 24 24 23 26 25 22 29 27 28 28 28 29 29 28 28 12 19 23 28 26 24 29 30 36 36 34 36 34 32 33 35 38 38 48 57 53
22 22 23 25 24 25 24 24 23 23 23 23 25 23 28 24 26 28 28 29 29 29 26 14 20 23 25 22 21 29 30 33 34 34 31 28 28 28 25 36 49 54 60
25 26 26 28 28 29 29 28 24 25 25 23 24 25 21 27 30 28 29 25 28 30 29 25 18 21 19 23 21 27 28 31 31 31 30 27 30 29 24 28 41 51 48
27 28 29 28 29 32 32 32 28 30 30 29 29 28 25 22 18 18 28 27 26 23 22 22 21 17 12 16 21 27 21 27 26 29 29 29 30 33 35 34 31 38 41
27 29 29 30 34 39 41 38 31 30 32 33 35 34 30 30 28 22 19 24 22 23 23 23 15 15 15 16 25 23 21 27 29 28 29 30 30 33 30 37 36 37 42
30 32 33 34 38 41 45 36 33 32 34 35 36 38 36 37 38 29 24 28 25 29 24 19 21 14 22 27 24 25 20 9 4 28 30 26 28 31 31 29 30 37 44
30 30 34 35 35 42 45 38 33 31 32 35 36 39 36 38 43 33 22 10 5 4 9 12 19 20 23 27 27 24 26 25 15 19 31 19 23 24 27 27 28 30 32
30 29 33 34 34 38 43 39 29 30 30 35 38 38 38 40 46 37 24 21 23 21 19 8 3 11 20 27 36 38 34 23 15 22 27 7 18 19 21 20 23 26 29
33 32 30 33 35 37 41 40 35 30 32 33 35 38 43 42 45 41 30 24 29 33 20 17 11 8 6 20 28 37 27 20 3 9 25 13 13 12 15 18 19 21 24
30 31 30 31 31 34 40 40 40 35 32 32 33 36 41 42 44 45 43 39 30 33 29 24 21 17 13 10 6 13 34 21 8 2 17 17 14 11 3 11 15 17 19

GFSMA_925_spd_123.txt.gz
Wind_Speed
19 19 19 19 20 17 20 21 22 22 25 27 25 21 21 21 20 17 20 20 20 21 21 21 20 21 22 24 25 26 25 26 27 29 28 27 28 28 28 28 27 25 23
15 15 16 17 19 22 23 23 24 23 24 27 28 30 24 21 21 23 20 21 22 22 23 22 20 21 21 21 24 25 25 26 28 29 30 29 28 29 30 30 30 28 24
15 17 16 17 19 19 21 24 27 27 23 24 28 30 31 31 25 25 25 24 21 23 24 24 24 22 22 21 22 23 25 28 29 29 31 31 31 31 32 33 33 31 28
11 10 10 13 17 18 20 23 25 26 28 25 25 26 31 33 34 30 25 28 24 22 23 24 25 25 25 25 23 23 24 27 29 31 31 32 32 32 35 35 36 33 31
6 7 9 12 15 14 12 15 24 28 25 26 27 23 25 28 28 28 17 28 30 29 26 26 25 26 28 29 28 27 26 26 28 31 32 33 33 33 36 37 38 36 33
4 6 7 9 10 11 13 17 19 20 30 26 21 21 23 24 23 27 13 24 29 32 32 29 28 28 28 30 31 30 29 28 27 30 32 34 34 35 38 38 39 40 36
5 5 6 7 9 10 12 13 15 16 20 22 21 25 36 28 30 31 33 29 29 28 32 32 29 33 32 34 32 31 31 30 29 28 31 35 35 35 38 41 41 42 40
10 7 6 7 7 7 10 11 11 10 12 19 12 8 3 19 34 35 27 29 34 29 32 33 30 36 33 27 32 34 34 33 32 28 31 34 37 37 37 41 43 43 42
14 10 9 8 9 8 8 11 11 12 13 11 27 10 3 6 9 22 33 31 33 35 37 36 38 40 36 35 38 36 36 35 34 31 31 33 36 37 38 38 40 41 44
15 13 13 11 11 11 10 10 11 11 11 15 15 29 26 8 4 4 13 26 35 34 38 42 38 47 40 39 40 39 41 39 37 34 33 33 36 36 40 41 46 47 42
14 15 14 14 14 14 13 12 12 14 15 14 19 13 18 22 21 5 5 7 22 28 30 37 39 37 38 37 37 41 43 41 38 36 34 36 37 36 37 39 43 47 44
17 16 18 15 15 15 16 16 15 15 17 19 20 21 22 13 12 11 9 8 11 21 33 34 36 37 38 37 37 40 41 43 41 38 37 36 39 40 38 36 42 46 49
19 18 20 18 18 18 18 17 17 17 17 20 23 21 24 28 25 21 21 12 12 22 20 31 33 34 35 33 34 38 43 43 44 40 40 37 39 42 41 37 40 48 49
17 19 19 18 18 18 20 18 18 18 18 21 24 26 26 25 29 27 24 15 12 13 22 25 26 30 32 31 37 34 38 43 45 44 43 40 38 42 44 41 39 51 53
17 19 19 20 19 18 18 18 19 19 19 21 22 26 28 29 27 31 30 29 17 12 15 24 25 25 30 33 36 36 40 43 49 48 45 42 38 39 41 43 43 43 56
20 20 21 22 21 20 19 18 18 19 18 20 20 24 26 28 27 29 29 30 28 23 16 26 26 27 25 27 30 34 39 44 43 46 45 43 40 39 41 42 44 44 48
21 22 23 23 24 23 23 21 19 18 19 19 19 19 23 21 27 27 28 28 27 27 15 25 28 23 26 25 24 32 36 38 37 42 42 42 40 38 40 40 38 45 51
21 23 25 26 29 28 27 22 19 18 19 20 20 18 18 23 17 25 27 26 26 26 24 15 26 24 27 25 27 28 30 34 34 35 39 42 39 39 40 40 38 42 44
21 23 26 30 29 31 29 24 20 21 19 20 21 19 21 26 27 25 19 18 24 25 28 26 23 25 24 23 24 26 28 29 33 34 32 36 36 38 35 36 38 38 43
21 24 27 29 30 33 31 28 24 24 24 23 25 23 26 29 28 27 21 22 20 25 27 27 23 19 21 25 28 24 20 27 29 31 28 30 34 34 34 35 34 35 34
23 25 26 30 31 35 35 31 24 25 26 26 29 28 27 30 28 24 21 20 19 21 23 24 21 22 18 18 25 29 29 22 26 29 29 29 31 35 35 35 35 33 27
23 25 27 27 32 34 36 30 26 24 27 29 32 32 32 38 38 29 25 20 21 24 21 21 23 12 18 24 26 25 23 14 7 26 28 28 35 37 36 37 37 33 32
20 23 25 27 30 36 37 32 27 26 27 29 31 37 36 41 45 39 33 27 26 24 25 24 24 7 13 25 28 27 28 26 14 20 28 21 34 34 35 34 33 31 39
22 23 25 26 27 33 37 35 28 27 28 31 34 39 37 39 44 38 34 35 34 34 29 25 23 20 15 13 9 26 30 23 17 21 31 6 28 27 29 29 31 34 36
22 23 24 27 30 34 38 39 33 29 30 30 31 33 39 38 41 40 36 34 32 35 33 27 24 23 22 24 16 13 19 17 2 12 32 19 18 17 23 26 26 27 30
20 20 22 27 26 30 35 36 35 29 26 27 28 31 37 37 38 38 36 32 30 31 33 36 36 36 36 30 28 22 17 6 6 1 24 21 20 16 5 17 22 20 20

GFSMA_925_spd_126.txt.gz
Wind_Speed
16 15 18 20 18 19 19 21 23 23 24 23 23 24 22 21 20 18 17 18 19 20 20 21 20 19 21 22 25 26 26 26 28 29 31 30 29 27 25 29 29 28 26
17 15 15 16 18 21 22 19 21 22 23 23 25 25 25 24 22 21 20 17 19 21 22 23 22 21 22 22 25 27 28 28 29 31 32 33 31 29 27 30 33 31 28
16 13 14 16 16 15 20 24 24 23 22 22 26 27 27 26 24 24 23 21 19 20 23 24 25 24 23 24 24 26 28 28 30 32 33 33 33 32 28 31 35 33 31
7 10 12 17 14 18 20 22 22 23 24 26 26 28 29 28 28 27 24 23 22 20 19 23 26 27 27 26 27 26 26 28 31 32 33 33 34 34 32 31 37 37 34
9 9 9 12 13 16 20 25 21 24 24 23 27 30 33 33 30 28 27 24 23 24 23 22 22 27 30 30 32 31 28 28 30 31 34 35 35 35 35 34 37 38 37
12 11 10 10 11 13 14 16 22 23 21 22 25 32 35 31 28 24 24 20 22 26 28 29 22 26 31 33 35 35 34 31 30 30 32 34 35 36 36 37 37 40 40
12 11 11 11 11 12 15 15 15 17 21 21 22 24 26 26 29 22 22 24 35 32 31 34 26 28 26 35 38 37 37 35 35 32 31 32 35 37 37 37 38 42 43
13 12 12 12 12 11 14 15 14 17 19 18 10 9 3 7 18 36 35 37 54 41 34 32 24 30 28 29 34 39 35 37 37 37 34 32 34 36 39 38 39 42 44
13 15 14 14 14 12 12 15 13 13 18 20 18 14 4 6 9 17 29 33 41 40 41 34 31 29 31 32 31 29 35 38 39 40 37 35 33 34 38 39 39 42 45
13 15 16 15 14 13 12 14 13 14 13 17 20 21 29 25 10 10 21 28 40 38 36 36 36 34 32 33 36 33 32 38 40 43 39 37 34 33 35 39 40 41 45
14 15 17 16 15 13 13 14 15 14 14 16 18 20 22 26 26 13 12 11 22 28 34 36 38 36 38 37 35 34 37 40 39 44 41 39 36 34 34 38 39 41 43
15 13 18 16 15 15 14 16 16 14 16 18 20 18 20 14 15 15 15 16 18 22 25 28 31 35 37 37 39 40 39 41 42 42 43 41 39 37 36 37 38 40 43
17 17 17 18 17 17 17 16 16 15 14 17 17 19 20 22 25 27 23 13 14 27 30 30 30 31 31 34 36 36 40 40 41 41 42 43 41 39 38 39 39 39 44
15 18 18 17 17 17 16 16 16 14 15 16 17 20 20 21 23 24 29 21 15 15 26 29 30 31 33 31 31 34 38 40 42 43 42 45 43 41 42 40 41 41 42
14 15 15 16 17 17 17 18 15 16 17 17 18 18 20 21 24 25 29 30 21 15 16 26 23 29 27 32 33 31 33 34 38 40 44 44 47 45 45 41 42 43 44
13 14 15 16 19 18 18 18 16 15 17 18 18 18 18 22 19 23 28 32 33 25 16 24 27 24 27 32 33 33 32 32 35 39 42 45 47 49 49 45 43 45 47
14 14 17 17 20 21 21 18 19 18 18 19 19 17 16 21 21 20 17 25 29 27 17 27 26 31 30 27 29 24 28 31 30 37 42 45 44 49 52 49 44 46 50
14 17 19 20 23 23 22 20 21 21 21 24 23 20 21 23 21 21 21 20 18 24 26 15 25 30 32 31 29 30 26 28 32 32 37 41 40 43 51 50 46 44 49
17 19 22 24 25 25 24 21 21 22 23 24 25 24 26 28 26 25 21 19 20 21 23 25 23 24 27 28 30 31 29 29 27 31 33 36 36 39 48 50 47 42 47
18 20 21 23 25 26 26 23 22 22 22 24 26 26 29 34 30 28 22 20 20 21 22 21 20 23 25 26 30 27 21 26 27 29 33 35 34 35 44 48 46 44 47
18 18 20 23 23 29 32 26 21 22 24 26 28 28 29 33 30 27 25 24 23 20 18 18 15 20 21 18 21 25 28 27 30 31 29 36 36 32 37 42 46 44 47
18 18 20 21 27 29 32 26 22 21 23 25 28 27 28 35 36 29 26 23 23 23 20 14 13 14 19 24 28 27 29 21 10 30 33 29 36 35 40 42 46 47 44
17 18 21 21 25 31 33 28 23 21 22 24 28 31 31 35 39 32 29 29 27 26 25 19 19 19 21 23 27 28 24 25 24 28 30 23 32 30 32 37 41 43 41
17 19 20 22 23 31 32 30 21 19 20 23 26 31 30 33 37 32 27 27 27 30 31 26 22 22 24 25 26 27 32 34 28 24 26 8 24 32 37 35 37 39 37
17 19 20 22 24 26 32 32 22 20 21 22 23 27 33 32 35 34 30 29 28 32 31 28 27 30 32 32 30 27 22 20 3 12 31 17 17 23 27 35 34 35 36
16 16 19 21 22 25 30 32 28 21 21 21 21 23 30 31 32 34 32 31 30 31 33 34 35 35 35 37 35 31 25 16 11 3 8 8 17 15 3 18 31 31 30

GFSMA_925_spd_129.txt.gz
Wind_Speed
16 15 17 18 19 19 20 21 23 23 26 26 27 27 26 22 23 21 19 19 20 20 24 23 21 22 22 22 22 25 25 25 27 29 30 30 28 27 26 25 25 25 25
10 13 15 16 18 19 21 20 22 23 25 24 28 30 29 27 23 25 25 19 19 20 24 26 25 25 23 22 24 24 27 27 28 30 31 32 31 30 28 27 25 27 28
9 9 8 9 12 15 19 20 23 22 22 24 27 28 30 29 28 28 23 26 20 22 23 27 28 28 27 26 25 25 26 28 29 31 32 33 33 33 32 30 27 31 32
10 11 11 14 17 20 15 15 17 25 27 28 30 30 28 29 30 29 27 26 23 19 25 25 30 31 31 30 28 27 28 29 30 32 33 34 34 35 34 34 32 33 35
13 12 11 11 13 16 17 18 21 23 20 27 32 22 25 28 32 33 31 32 28 27 21 19 23 30 34 34 32 31 31 31 31 33 34 35 34 34 35 36 36 32 36
14 12 10 10 13 13 13 15 16 16 20 26 28 23 24 29 32 36 32 27 20 16 22 30 24 26 30 37 37 35 35 34 34 34 35 35 36 36 36 37 39 37 36
14 13 11 12 13 12 14 16 18 20 20 19 20 19 25 31 38 34 36 26 34 38 31 38 38 31 26 34 40 40 37 36 37 36 35 36 37 37 37 38 39 40 38
12 11 13 12 13 13 13 13 15 18 19 18 16 15 6 8 19 27 31 36 39 48 40 42 37 35 32 34 35 43 40 39 40 41 38 37 37 38 39 38 39 40 41
13 12 13 13 13 12 12 14 14 14 17 19 20 14 4 6 9 18 30 31 40 43 37 36 41 35 32 31 32 31 35 40 43 43 43 41 38 38 40 39 39 40 41
13 14 13 13 14 13 12 12 13 15 14 16 18 16 22 21 8 10 15 30 36 37 37 37 41 41 35 37 39 36 32 33 41 42 46 44 41 38 40 40 40 40 41
11 12 15 13 13 14 15 14 15 16 14 15 15 17 18 21 22 10 11 14 23 27 30 34 34 33 35 39 40 40 40 33 36 41 48 47 43 40 41 41 40 41 42
14 15 15 14 13 15 16 16 15 15 16 18 18 17 15 10 13 16 11 12 16 27 25 26 28 32 35 36 37 37 38 43 41 40 46 49 47 43 43 43 41 41 42
14 16 16 15 15 15 16 16 15 16 16 18 19 19 18 17 17 19 19 14 13 25 27 25 26 25 27 32 35 36 41 42 42 45 45 45 49 47 45 45 42 41 41
15 17 17 16 16 14 16 16 15 14 16 18 19 19 19 17 19 20 17 15 13 14 27 27 24 22 27 26 25 30 35 38 43 44 42 43 45 50 49 46 44 42 41
15 16 16 17 19 17 16 16 13 15 15 15 17 18 18 18 17 20 19 19 17 12 14 21 24 27 27 27 29 32 27 32 34 38 42 42 43 49 52 49 47 45 44
16 17 19 19 18 18 18 16 16 16 15 18 17 18 18 22 20 20 20 21 22 22 15 27 28 30 24 25 22 24 25 28 31 31 34 38 43 46 50 53 51 47 46
17 18 19 21 21 20 17 16 15 15 17 18 20 19 20 22 20 20 21 21 20 21 10 22 30 29 32 26 23 22 26 27 29 31 32 36 40 41 46 53 54 52 50
16 17 17 18 19 20 18 17 16 16 18 20 20 21 24 25 22 21 22 20 21 21 18 11 22 23 26 26 24 26 26 25 25 28 29 35 38 40 43 48 52 54 55
15 15 16 18 20 21 19 17 18 18 18 20 20 21 25 27 25 25 22 22 21 21 19 16 16 20 21 25 27 26 26 29 30 29 31 32 32 37 40 46 50 53 57
15 15 17 19 20 22 22 20 18 18 19 20 21 21 27 31 28 27 23 24 24 22 20 18 17 18 20 25 24 21 24 26 26 27 28 35 38 41 43 42 44 48 51
15 15 16 19 20 25 25 23 17 19 19 21 23 23 26 31 29 25 24 24 25 24 21 20 17 18 19 25 23 23 25 34 30 28 27 27 36 42 42 42 45 47 49
15 16 17 18 23 24 27 21 18 18 19 22 25 25 25 33 36 30 28 25 27 27 25 22 18 16 19 21 24 24 22 15 6 18 28 35 33 33 37 43 43 42 45
14 16 17 18 21 28 30 24 18 17 19 21 24 27 26 30 36 31 27 25 24 25 25 18 20 21 20 25 25 27 22 21 22 33 32 27 29 34 35 38 42 43 40
14 15 17 18 19 28 31 27 18 17 18 20 22 27 27 30 35 32 26 26 25 27 27 26 21 21 23 26 27 24 24 26 27 26 26 11 27 33 36 39 42 43 43
13 15 16 18 19 23 30 31 21 18 20 19 21 25 32 30 33 34 29 28 27 29 28 24 22 24 25 27 30 28 27 24 12 13 25 18 15 28 37 41 42 41 40
13 12 14 18 19 24 29 31 28 21 21 20 21 23 29 30 31 33 30 30 29 29 29 31 29 30 29 29 29 32 27 21 17 8 29 27 18 16 4 25 38 39 38